<?xml version="1.0" encoding="UTF-8" standalone="no" ?>
<gpx xmlns="http://www.topografix.com/GPX/1/1" xmlns:xsi="http://www.w3.org/2001/XMLSchema-instance" xsi:schemaLocation="http://www.topografix.com/GPX/1/1 http://www.topografix.com/GPX/1/1/gpx.xsd" version="1.1" creator="VisuGPX - https://www.visugpx.com">
  <metadata>
    <name>Lac de Guerry</name>
    <desc><![CDATA[Banne d\'Ordanche - Guéry]]></desc>
  </metadata>
  <trk>
    <name><![CDATA[Banne Ordanche]]></name>
    <desc><![CDATA[]]></desc>
    <trkseg>
      <trkpt lat="45.61977" lon="2.81722">
        <ele>1293</ele>
        <time>2015-04-14T08:14:58.772Z</time>
      </trkpt>
      <trkpt lat="45.6197" lon="2.81714">
        <ele>1328</ele>
        <time>2015-04-14T08:16:15.387Z</time>
      </trkpt>
      <trkpt lat="45.6197" lon="2.81714">
        <ele>1328</ele>
        <time>2015-04-14T08:16:16.410Z</time>
      </trkpt>
      <trkpt lat="45.61962" lon="2.81707">
        <ele>1330</ele>
        <time>2015-04-14T08:17:35.394Z</time>
      </trkpt>
      <trkpt lat="45.61962" lon="2.81706">
        <ele>1330</ele>
        <time>2015-04-14T08:17:36.393Z</time>
      </trkpt>
      <trkpt lat="45.61956" lon="2.81697">
        <ele>1330</ele>
        <time>2015-04-14T08:17:44.495Z</time>
      </trkpt>
      <trkpt lat="45.61955" lon="2.81696">
        <ele>1330</ele>
        <time>2015-04-14T08:17:45.431Z</time>
      </trkpt>
      <trkpt lat="45.61949" lon="2.81687">
        <ele>1330</ele>
        <time>2015-04-14T08:17:52.749Z</time>
      </trkpt>
      <trkpt lat="45.61948" lon="2.81686">
        <ele>1330</ele>
        <time>2015-04-14T08:17:53.373Z</time>
      </trkpt>
      <trkpt lat="45.61942" lon="2.81677">
        <ele>1331</ele>
        <time>2015-04-14T08:17:59.369Z</time>
      </trkpt>
      <trkpt lat="45.61941" lon="2.81676">
        <ele>1331</ele>
        <time>2015-04-14T08:18:00.592Z</time>
      </trkpt>
      <trkpt lat="45.61935" lon="2.81668">
        <ele>1333</ele>
        <time>2015-04-14T08:18:06.606Z</time>
      </trkpt>
      <trkpt lat="45.61934" lon="2.81667">
        <ele>1333</ele>
        <time>2015-04-14T08:18:07.550Z</time>
      </trkpt>
      <trkpt lat="45.61927" lon="2.81661">
        <ele>1330</ele>
        <time>2015-04-14T08:18:16.582Z</time>
      </trkpt>
      <trkpt lat="45.61926" lon="2.8166">
        <ele>1329</ele>
        <time>2015-04-14T08:18:17.376Z</time>
      </trkpt>
      <trkpt lat="45.61919" lon="2.81653">
        <ele>1332</ele>
        <time>2015-04-14T08:18:24.580Z</time>
      </trkpt>
      <trkpt lat="45.61918" lon="2.81652">
        <ele>1331</ele>
        <time>2015-04-14T08:18:25.431Z</time>
      </trkpt>
      <trkpt lat="45.61912" lon="2.81645">
        <ele>1328</ele>
        <time>2015-04-14T08:18:33.460Z</time>
      </trkpt>
      <trkpt lat="45.61911" lon="2.81644">
        <ele>1328</ele>
        <time>2015-04-14T08:18:34.597Z</time>
      </trkpt>
      <trkpt lat="45.61904" lon="2.81637">
        <ele>1331</ele>
        <time>2015-04-14T08:18:42.617Z</time>
      </trkpt>
      <trkpt lat="45.61903" lon="2.81636">
        <ele>1332</ele>
        <time>2015-04-14T08:18:43.452Z</time>
      </trkpt>
      <trkpt lat="45.61898" lon="2.81628">
        <ele>1332</ele>
        <time>2015-04-14T08:18:49.549Z</time>
      </trkpt>
      <trkpt lat="45.61897" lon="2.81627">
        <ele>1332</ele>
        <time>2015-04-14T08:18:50.518Z</time>
      </trkpt>
      <trkpt lat="45.61889" lon="2.81621">
        <ele>1334</ele>
        <time>2015-04-14T08:18:57.525Z</time>
      </trkpt>
      <trkpt lat="45.61888" lon="2.8162">
        <ele>1334</ele>
        <time>2015-04-14T08:18:58.575Z</time>
      </trkpt>
      <trkpt lat="45.6188" lon="2.81614">
        <ele>1333</ele>
        <time>2015-04-14T08:19:06.449Z</time>
      </trkpt>
      <trkpt lat="45.61879" lon="2.81613">
        <ele>1333</ele>
        <time>2015-04-14T08:19:07.610Z</time>
      </trkpt>
      <trkpt lat="45.61872" lon="2.81605">
        <ele>1333</ele>
        <time>2015-04-14T08:19:14.409Z</time>
      </trkpt>
      <trkpt lat="45.61871" lon="2.81604">
        <ele>1333</ele>
        <time>2015-04-14T08:19:15.560Z</time>
      </trkpt>
      <trkpt lat="45.61865" lon="2.81596">
        <ele>1336</ele>
        <time>2015-04-14T08:19:22.456Z</time>
      </trkpt>
      <trkpt lat="45.61864" lon="2.81595">
        <ele>1336</ele>
        <time>2015-04-14T08:19:23.490Z</time>
      </trkpt>
      <trkpt lat="45.61858" lon="2.81585">
        <ele>1336</ele>
        <time>2015-04-14T08:19:36.600Z</time>
      </trkpt>
      <trkpt lat="45.61858" lon="2.81584">
        <ele>1336</ele>
        <time>2015-04-14T08:19:37.589Z</time>
      </trkpt>
      <trkpt lat="45.6185" lon="2.81578">
        <ele>1336</ele>
        <time>2015-04-14T08:19:45.543Z</time>
      </trkpt>
      <trkpt lat="45.61849" lon="2.81578">
        <ele>1336</ele>
        <time>2015-04-14T08:19:46.527Z</time>
      </trkpt>
      <trkpt lat="45.61842" lon="2.8157">
        <ele>1338</ele>
        <time>2015-04-14T08:19:54.639Z</time>
      </trkpt>
      <trkpt lat="45.61841" lon="2.81569">
        <ele>1338</ele>
        <time>2015-04-14T08:19:55.407Z</time>
      </trkpt>
      <trkpt lat="45.61834" lon="2.81564">
        <ele>1338</ele>
        <time>2015-04-14T08:20:01.449Z</time>
      </trkpt>
      <trkpt lat="45.61833" lon="2.81562">
        <ele>1339</ele>
        <time>2015-04-14T08:20:02.666Z</time>
      </trkpt>
      <trkpt lat="45.61826" lon="2.81554">
        <ele>1339</ele>
        <time>2015-04-14T08:20:08.405Z</time>
      </trkpt>
      <trkpt lat="45.61825" lon="2.81553">
        <ele>1340</ele>
        <time>2015-04-14T08:20:09.591Z</time>
      </trkpt>
      <trkpt lat="45.61818" lon="2.81548">
        <ele>1340</ele>
        <time>2015-04-14T08:20:16.575Z</time>
      </trkpt>
      <trkpt lat="45.61816" lon="2.81547">
        <ele>1339</ele>
        <time>2015-04-14T08:20:17.480Z</time>
      </trkpt>
      <trkpt lat="45.6181" lon="2.81539">
        <ele>1339</ele>
        <time>2015-04-14T08:20:24.490Z</time>
      </trkpt>
      <trkpt lat="45.6181" lon="2.81538">
        <ele>1339</ele>
        <time>2015-04-14T08:20:25.602Z</time>
      </trkpt>
      <trkpt lat="45.61802" lon="2.81535">
        <ele>1341</ele>
        <time>2015-04-14T08:20:32.467Z</time>
      </trkpt>
      <trkpt lat="45.618" lon="2.81533">
        <ele>1341</ele>
        <time>2015-04-14T08:20:33.489Z</time>
      </trkpt>
      <trkpt lat="45.61793" lon="2.81526">
        <ele>1345</ele>
        <time>2015-04-14T08:20:40.515Z</time>
      </trkpt>
      <trkpt lat="45.61792" lon="2.81525">
        <ele>1345</ele>
        <time>2015-04-14T08:20:41.415Z</time>
      </trkpt>
      <trkpt lat="45.61786" lon="2.81516">
        <ele>1347</ele>
        <time>2015-04-14T08:20:49.413Z</time>
      </trkpt>
      <trkpt lat="45.61785" lon="2.81515">
        <ele>1347</ele>
        <time>2015-04-14T08:20:50.447Z</time>
      </trkpt>
      <trkpt lat="45.61778" lon="2.81507">
        <ele>1347</ele>
        <time>2015-04-14T08:20:58.437Z</time>
      </trkpt>
      <trkpt lat="45.61777" lon="2.81506">
        <ele>1346</ele>
        <time>2015-04-14T08:20:59.411Z</time>
      </trkpt>
      <trkpt lat="45.61772" lon="2.81496">
        <ele>1347</ele>
        <time>2015-04-14T08:21:06.646Z</time>
      </trkpt>
      <trkpt lat="45.61771" lon="2.81494">
        <ele>1347</ele>
        <time>2015-04-14T08:21:07.449Z</time>
      </trkpt>
      <trkpt lat="45.61766" lon="2.81484">
        <ele>1348</ele>
        <time>2015-04-14T08:21:14.565Z</time>
      </trkpt>
      <trkpt lat="45.61766" lon="2.81482">
        <ele>1348</ele>
        <time>2015-04-14T08:21:15.516Z</time>
      </trkpt>
      <trkpt lat="45.61761" lon="2.81472">
        <ele>1349</ele>
        <time>2015-04-14T08:21:22.517Z</time>
      </trkpt>
      <trkpt lat="45.61761" lon="2.8147">
        <ele>1348</ele>
        <time>2015-04-14T08:21:23.504Z</time>
      </trkpt>
      <trkpt lat="45.61757" lon="2.8146">
        <ele>1350</ele>
        <time>2015-04-14T08:21:29.484Z</time>
      </trkpt>
      <trkpt lat="45.61756" lon="2.81458">
        <ele>1351</ele>
        <time>2015-04-14T08:21:30.510Z</time>
      </trkpt>
      <trkpt lat="45.61752" lon="2.81447">
        <ele>1352</ele>
        <time>2015-04-14T08:21:37.524Z</time>
      </trkpt>
      <trkpt lat="45.61752" lon="2.81446">
        <ele>1353</ele>
        <time>2015-04-14T08:21:38.390Z</time>
      </trkpt>
      <trkpt lat="45.61749" lon="2.81435">
        <ele>1353</ele>
        <time>2015-04-14T08:21:45.568Z</time>
      </trkpt>
      <trkpt lat="45.61748" lon="2.81433">
        <ele>1353</ele>
        <time>2015-04-14T08:21:46.449Z</time>
      </trkpt>
      <trkpt lat="45.61744" lon="2.81422">
        <ele>1350</ele>
        <time>2015-04-14T08:21:54.371Z</time>
      </trkpt>
      <trkpt lat="45.61743" lon="2.8142">
        <ele>1349</ele>
        <time>2015-04-14T08:21:55.579Z</time>
      </trkpt>
      <trkpt lat="45.6174" lon="2.8141">
        <ele>1348</ele>
        <time>2015-04-14T08:22:01.355Z</time>
      </trkpt>
      <trkpt lat="45.61739" lon="2.81409">
        <ele>1347</ele>
        <time>2015-04-14T08:22:02.756Z</time>
      </trkpt>
      <trkpt lat="45.61737" lon="2.81398">
        <ele>1351</ele>
        <time>2015-04-14T08:22:09.475Z</time>
      </trkpt>
      <trkpt lat="45.61736" lon="2.81396">
        <ele>1351</ele>
        <time>2015-04-14T08:22:10.576Z</time>
      </trkpt>
      <trkpt lat="45.61732" lon="2.81385">
        <ele>1356</ele>
        <time>2015-04-14T08:22:17.441Z</time>
      </trkpt>
      <trkpt lat="45.61732" lon="2.81383">
        <ele>1357</ele>
        <time>2015-04-14T08:22:18.578Z</time>
      </trkpt>
      <trkpt lat="45.61727" lon="2.81374">
        <ele>1355</ele>
        <time>2015-04-14T08:22:25.437Z</time>
      </trkpt>
      <trkpt lat="45.61727" lon="2.81372">
        <ele>1354</ele>
        <time>2015-04-14T08:22:26.605Z</time>
      </trkpt>
      <trkpt lat="45.61723" lon="2.81361">
        <ele>1359</ele>
        <time>2015-04-14T08:22:34.590Z</time>
      </trkpt>
      <trkpt lat="45.61723" lon="2.8136">
        <ele>1358</ele>
        <time>2015-04-14T08:22:35.412Z</time>
      </trkpt>
      <trkpt lat="45.6172" lon="2.81349">
        <ele>1359</ele>
        <time>2015-04-14T08:22:43.386Z</time>
      </trkpt>
      <trkpt lat="45.61719" lon="2.81347">
        <ele>1359</ele>
        <time>2015-04-14T08:22:44.640Z</time>
      </trkpt>
      <trkpt lat="45.61716" lon="2.81336">
        <ele>1359</ele>
        <time>2015-04-14T08:22:51.437Z</time>
      </trkpt>
      <trkpt lat="45.61715" lon="2.81335">
        <ele>1359</ele>
        <time>2015-04-14T08:22:52.658Z</time>
      </trkpt>
      <trkpt lat="45.61711" lon="2.81324">
        <ele>1356</ele>
        <time>2015-04-14T08:23:00.499Z</time>
      </trkpt>
      <trkpt lat="45.61711" lon="2.81322">
        <ele>1357</ele>
        <time>2015-04-14T08:23:01.438Z</time>
      </trkpt>
      <trkpt lat="45.61708" lon="2.8131">
        <ele>1356</ele>
        <time>2015-04-14T08:23:09.139Z</time>
      </trkpt>
      <trkpt lat="45.61707" lon="2.81309">
        <ele>1357</ele>
        <time>2015-04-14T08:23:09.353Z</time>
      </trkpt>
      <trkpt lat="45.61703" lon="2.81298">
        <ele>1357</ele>
        <time>2015-04-14T08:23:17.492Z</time>
      </trkpt>
      <trkpt lat="45.61703" lon="2.81297">
        <ele>1356</ele>
        <time>2015-04-14T08:23:18.650Z</time>
      </trkpt>
      <trkpt lat="45.61701" lon="2.81285">
        <ele>1353</ele>
        <time>2015-04-14T08:23:25.629Z</time>
      </trkpt>
      <trkpt lat="45.61701" lon="2.81283">
        <ele>1353</ele>
        <time>2015-04-14T08:23:26.500Z</time>
      </trkpt>
      <trkpt lat="45.61702" lon="2.81271">
        <ele>1358</ele>
        <time>2015-04-14T08:23:34.663Z</time>
      </trkpt>
      <trkpt lat="45.61702" lon="2.81269">
        <ele>1358</ele>
        <time>2015-04-14T08:23:35.449Z</time>
      </trkpt>
      <trkpt lat="45.61705" lon="2.81258">
        <ele>1361</ele>
        <time>2015-04-14T08:23:44.659Z</time>
      </trkpt>
      <trkpt lat="45.61705" lon="2.81256">
        <ele>1361</ele>
        <time>2015-04-14T08:23:45.481Z</time>
      </trkpt>
      <trkpt lat="45.61711" lon="2.81246">
        <ele>1362</ele>
        <time>2015-04-14T08:23:52.616Z</time>
      </trkpt>
      <trkpt lat="45.61712" lon="2.81245">
        <ele>1363</ele>
        <time>2015-04-14T08:23:53.538Z</time>
      </trkpt>
      <trkpt lat="45.61717" lon="2.81234">
        <ele>1364</ele>
        <time>2015-04-14T08:23:59.345Z</time>
      </trkpt>
      <trkpt lat="45.61718" lon="2.81233">
        <ele>1365</ele>
        <time>2015-04-14T08:24:00.524Z</time>
      </trkpt>
      <trkpt lat="45.61725" lon="2.81225">
        <ele>1367</ele>
        <time>2015-04-14T08:24:06.453Z</time>
      </trkpt>
      <trkpt lat="45.61725" lon="2.81223">
        <ele>1368</ele>
        <time>2015-04-14T08:24:07.681Z</time>
      </trkpt>
      <trkpt lat="45.6173" lon="2.81213">
        <ele>1366</ele>
        <time>2015-04-14T08:24:15.517Z</time>
      </trkpt>
      <trkpt lat="45.61731" lon="2.81212">
        <ele>1366</ele>
        <time>2015-04-14T08:24:16.390Z</time>
      </trkpt>
      <trkpt lat="45.61737" lon="2.81203">
        <ele>1367</ele>
        <time>2015-04-14T08:24:25.551Z</time>
      </trkpt>
      <trkpt lat="45.61738" lon="2.81203">
        <ele>1368</ele>
        <time>2015-04-14T08:24:26.655Z</time>
      </trkpt>
      <trkpt lat="45.61745" lon="2.81196">
        <ele>1371</ele>
        <time>2015-04-14T08:24:33.396Z</time>
      </trkpt>
      <trkpt lat="45.61746" lon="2.81195">
        <ele>1371</ele>
        <time>2015-04-14T08:24:34.831Z</time>
      </trkpt>
      <trkpt lat="45.61752" lon="2.81187">
        <ele>1372</ele>
        <time>2015-04-14T08:24:41.461Z</time>
      </trkpt>
      <trkpt lat="45.61752" lon="2.81186">
        <ele>1372</ele>
        <time>2015-04-14T08:24:42.650Z</time>
      </trkpt>
      <trkpt lat="45.61758" lon="2.81177">
        <ele>1371</ele>
        <time>2015-04-14T08:24:49.422Z</time>
      </trkpt>
      <trkpt lat="45.61759" lon="2.81176">
        <ele>1370</ele>
        <time>2015-04-14T08:24:50.742Z</time>
      </trkpt>
      <trkpt lat="45.61766" lon="2.81171">
        <ele>1367</ele>
        <time>2015-04-14T08:24:57.504Z</time>
      </trkpt>
      <trkpt lat="45.61767" lon="2.8117">
        <ele>1368</ele>
        <time>2015-04-14T08:24:58.470Z</time>
      </trkpt>
      <trkpt lat="45.61774" lon="2.81164">
        <ele>1368</ele>
        <time>2015-04-14T08:25:05.640Z</time>
      </trkpt>
      <trkpt lat="45.61776" lon="2.81163">
        <ele>1369</ele>
        <time>2015-04-14T08:25:06.451Z</time>
      </trkpt>
      <trkpt lat="45.61783" lon="2.81158">
        <ele>1367</ele>
        <time>2015-04-14T08:25:14.438Z</time>
      </trkpt>
      <trkpt lat="45.61783" lon="2.81156">
        <ele>1368</ele>
        <time>2015-04-14T08:25:15.542Z</time>
      </trkpt>
      <trkpt lat="45.61789" lon="2.81147">
        <ele>1367</ele>
        <time>2015-04-14T08:25:23.666Z</time>
      </trkpt>
      <trkpt lat="45.6179" lon="2.81146">
        <ele>1368</ele>
        <time>2015-04-14T08:25:24.406Z</time>
      </trkpt>
      <trkpt lat="45.61798" lon="2.8114">
        <ele>1372</ele>
        <time>2015-04-14T08:25:34.420Z</time>
      </trkpt>
      <trkpt lat="45.61799" lon="2.81139">
        <ele>1371</ele>
        <time>2015-04-14T08:25:35.569Z</time>
      </trkpt>
      <trkpt lat="45.61805" lon="2.81132">
        <ele>1374</ele>
        <time>2015-04-14T08:25:42.435Z</time>
      </trkpt>
      <trkpt lat="45.61806" lon="2.81131">
        <ele>1373</ele>
        <time>2015-04-14T08:25:43.431Z</time>
      </trkpt>
      <trkpt lat="45.61812" lon="2.81123">
        <ele>1376</ele>
        <time>2015-04-14T08:25:49.675Z</time>
      </trkpt>
      <trkpt lat="45.61813" lon="2.81122">
        <ele>1376</ele>
        <time>2015-04-14T08:25:50.585Z</time>
      </trkpt>
      <trkpt lat="45.61819" lon="2.81113">
        <ele>1381</ele>
        <time>2015-04-14T08:26:53.572Z</time>
      </trkpt>
      <trkpt lat="45.6182" lon="2.81112">
        <ele>1382</ele>
        <time>2015-04-14T08:26:54.458Z</time>
      </trkpt>
      <trkpt lat="45.61825" lon="2.81103">
        <ele>1382</ele>
        <time>2015-04-14T08:27:02.484Z</time>
      </trkpt>
      <trkpt lat="45.61826" lon="2.81102">
        <ele>1383</ele>
        <time>2015-04-14T08:27:03.606Z</time>
      </trkpt>
      <trkpt lat="45.61833" lon="2.81093">
        <ele>1381</ele>
        <time>2015-04-14T08:27:10.386Z</time>
      </trkpt>
      <trkpt lat="45.61833" lon="2.81092">
        <ele>1382</ele>
        <time>2015-04-14T08:27:11.630Z</time>
      </trkpt>
      <trkpt lat="45.61837" lon="2.81082">
        <ele>1382</ele>
        <time>2015-04-14T08:27:18.410Z</time>
      </trkpt>
      <trkpt lat="45.61837" lon="2.8108">
        <ele>1382</ele>
        <time>2015-04-14T08:27:19.634Z</time>
      </trkpt>
      <trkpt lat="45.61838" lon="2.81069">
        <ele>1381</ele>
        <time>2015-04-14T08:27:25.582Z</time>
      </trkpt>
      <trkpt lat="45.61839" lon="2.81067">
        <ele>1381</ele>
        <time>2015-04-14T08:27:26.599Z</time>
      </trkpt>
      <trkpt lat="45.6184" lon="2.81055">
        <ele>1382</ele>
        <time>2015-04-14T08:27:33.453Z</time>
      </trkpt>
      <trkpt lat="45.6184" lon="2.81053">
        <ele>1382</ele>
        <time>2015-04-14T08:27:34.601Z</time>
      </trkpt>
      <trkpt lat="45.6184" lon="2.81041">
        <ele>1382</ele>
        <time>2015-04-14T08:27:41.594Z</time>
      </trkpt>
      <trkpt lat="45.6184" lon="2.8104">
        <ele>1383</ele>
        <time>2015-04-14T08:27:42.445Z</time>
      </trkpt>
      <trkpt lat="45.61841" lon="2.81028">
        <ele>1384</ele>
        <time>2015-04-14T08:27:49.491Z</time>
      </trkpt>
      <trkpt lat="45.61841" lon="2.81026">
        <ele>1384</ele>
        <time>2015-04-14T08:27:50.477Z</time>
      </trkpt>
      <trkpt lat="45.61842" lon="2.81014">
        <ele>1384</ele>
        <time>2015-04-14T08:27:57.614Z</time>
      </trkpt>
      <trkpt lat="45.61842" lon="2.81013">
        <ele>1384</ele>
        <time>2015-04-14T08:27:58.479Z</time>
      </trkpt>
      <trkpt lat="45.61845" lon="2.81001">
        <ele>1385</ele>
        <time>2015-04-14T08:28:06.598Z</time>
      </trkpt>
      <trkpt lat="45.61845" lon="2.80999">
        <ele>1385</ele>
        <time>2015-04-14T08:28:07.446Z</time>
      </trkpt>
      <trkpt lat="45.61846" lon="2.80988">
        <ele>1384</ele>
        <time>2015-04-14T08:28:14.520Z</time>
      </trkpt>
      <trkpt lat="45.61846" lon="2.80986">
        <ele>1385</ele>
        <time>2015-04-14T08:28:15.463Z</time>
      </trkpt>
      <trkpt lat="45.61845" lon="2.80973">
        <ele>1384</ele>
        <time>2015-04-14T08:28:22.534Z</time>
      </trkpt>
      <trkpt lat="45.61845" lon="2.80971">
        <ele>1384</ele>
        <time>2015-04-14T08:28:23.471Z</time>
      </trkpt>
      <trkpt lat="45.61844" lon="2.80959">
        <ele>1386</ele>
        <time>2015-04-14T08:28:30.438Z</time>
      </trkpt>
      <trkpt lat="45.61843" lon="2.80957">
        <ele>1386</ele>
        <time>2015-04-14T08:28:31.526Z</time>
      </trkpt>
      <trkpt lat="45.61842" lon="2.80946">
        <ele>1388</ele>
        <time>2015-04-14T08:28:38.436Z</time>
      </trkpt>
      <trkpt lat="45.61841" lon="2.80944">
        <ele>1388</ele>
        <time>2015-04-14T08:28:39.558Z</time>
      </trkpt>
      <trkpt lat="45.61839" lon="2.80932">
        <ele>1389</ele>
        <time>2015-04-14T08:28:47.542Z</time>
      </trkpt>
      <trkpt lat="45.61838" lon="2.8093">
        <ele>1389</ele>
        <time>2015-04-14T08:28:48.455Z</time>
      </trkpt>
      <trkpt lat="45.61836" lon="2.80918">
        <ele>1389</ele>
        <time>2015-04-14T08:28:56.571Z</time>
      </trkpt>
      <trkpt lat="45.61836" lon="2.80917">
        <ele>1389</ele>
        <time>2015-04-14T08:28:57.651Z</time>
      </trkpt>
      <trkpt lat="45.61833" lon="2.80905">
        <ele>1390</ele>
        <time>2015-04-14T08:29:05.669Z</time>
      </trkpt>
      <trkpt lat="45.61833" lon="2.80903">
        <ele>1391</ele>
        <time>2015-04-14T08:29:06.431Z</time>
      </trkpt>
      <trkpt lat="45.61829" lon="2.80893">
        <ele>1391</ele>
        <time>2015-04-14T08:29:14.473Z</time>
      </trkpt>
      <trkpt lat="45.61829" lon="2.80892">
        <ele>1391</ele>
        <time>2015-04-14T08:29:15.782Z</time>
      </trkpt>
      <trkpt lat="45.61826" lon="2.80881">
        <ele>1393</ele>
        <time>2015-04-14T08:29:41.546Z</time>
      </trkpt>
      <trkpt lat="45.61825" lon="2.80878">
        <ele>1393</ele>
        <time>2015-04-14T08:29:42.502Z</time>
      </trkpt>
      <trkpt lat="45.61823" lon="2.80868">
        <ele>1393</ele>
        <time>2015-04-14T08:29:47.660Z</time>
      </trkpt>
      <trkpt lat="45.61822" lon="2.80866">
        <ele>1393</ele>
        <time>2015-04-14T08:29:48.561Z</time>
      </trkpt>
      <trkpt lat="45.61818" lon="2.80856">
        <ele>1394</ele>
        <time>2015-04-14T08:29:54.685Z</time>
      </trkpt>
      <trkpt lat="45.61817" lon="2.80855">
        <ele>1395</ele>
        <time>2015-04-14T08:29:55.452Z</time>
      </trkpt>
      <trkpt lat="45.61812" lon="2.80844">
        <ele>1395</ele>
        <time>2015-04-14T08:30:02.548Z</time>
      </trkpt>
      <trkpt lat="45.61812" lon="2.80843">
        <ele>1395</ele>
        <time>2015-04-14T08:30:03.618Z</time>
      </trkpt>
      <trkpt lat="45.61806" lon="2.80835">
        <ele>1394</ele>
        <time>2015-04-14T08:30:10.470Z</time>
      </trkpt>
      <trkpt lat="45.61805" lon="2.80834">
        <ele>1394</ele>
        <time>2015-04-14T08:30:11.600Z</time>
      </trkpt>
      <trkpt lat="45.61799" lon="2.80826">
        <ele>1395</ele>
        <time>2015-04-14T08:30:24.694Z</time>
      </trkpt>
      <trkpt lat="45.61799" lon="2.80825">
        <ele>1395</ele>
        <time>2015-04-14T08:30:25.386Z</time>
      </trkpt>
      <trkpt lat="45.61795" lon="2.80814">
        <ele>1396</ele>
        <time>2015-04-14T08:30:47.840Z</time>
      </trkpt>
      <trkpt lat="45.61794" lon="2.80812">
        <ele>1397</ele>
        <time>2015-04-14T08:30:49.008Z</time>
      </trkpt>
      <trkpt lat="45.61788" lon="2.80805">
        <ele>1396</ele>
        <time>2015-04-14T08:30:55.879Z</time>
      </trkpt>
      <trkpt lat="45.61787" lon="2.80804">
        <ele>1396</ele>
        <time>2015-04-14T08:30:56.788Z</time>
      </trkpt>
      <trkpt lat="45.61781" lon="2.80795">
        <ele>1396</ele>
        <time>2015-04-14T08:31:04.035Z</time>
      </trkpt>
      <trkpt lat="45.6178" lon="2.80794">
        <ele>1397</ele>
        <time>2015-04-14T08:31:04.816Z</time>
      </trkpt>
      <trkpt lat="45.61775" lon="2.80784">
        <ele>1397</ele>
        <time>2015-04-14T08:31:11.835Z</time>
      </trkpt>
      <trkpt lat="45.61774" lon="2.80782">
        <ele>1397</ele>
        <time>2015-04-14T08:31:12.904Z</time>
      </trkpt>
      <trkpt lat="45.61772" lon="2.80772">
        <ele>1398</ele>
        <time>2015-04-14T08:31:18.783Z</time>
      </trkpt>
      <trkpt lat="45.61771" lon="2.8077">
        <ele>1398</ele>
        <time>2015-04-14T08:31:19.833Z</time>
      </trkpt>
      <trkpt lat="45.61771" lon="2.80758">
        <ele>1399</ele>
        <time>2015-04-14T08:31:26.821Z</time>
      </trkpt>
      <trkpt lat="45.61771" lon="2.80756">
        <ele>1399</ele>
        <time>2015-04-14T08:31:28.034Z</time>
      </trkpt>
      <trkpt lat="45.6177" lon="2.80744">
        <ele>1399</ele>
        <time>2015-04-14T08:31:34.997Z</time>
      </trkpt>
      <trkpt lat="45.6177" lon="2.80742">
        <ele>1399</ele>
        <time>2015-04-14T08:31:35.836Z</time>
      </trkpt>
      <trkpt lat="45.61771" lon="2.8073">
        <ele>1399</ele>
        <time>2015-04-14T08:31:43.012Z</time>
      </trkpt>
      <trkpt lat="45.61771" lon="2.80729">
        <ele>1399</ele>
        <time>2015-04-14T08:31:44.047Z</time>
      </trkpt>
      <trkpt lat="45.61772" lon="2.80716">
        <ele>1400</ele>
        <time>2015-04-14T08:31:50.931Z</time>
      </trkpt>
      <trkpt lat="45.61772" lon="2.80715">
        <ele>1400</ele>
        <time>2015-04-14T08:31:51.960Z</time>
      </trkpt>
      <trkpt lat="45.61772" lon="2.80703">
        <ele>1400</ele>
        <time>2015-04-14T08:31:58.818Z</time>
      </trkpt>
      <trkpt lat="45.61772" lon="2.80701">
        <ele>1400</ele>
        <time>2015-04-14T08:32:00.028Z</time>
      </trkpt>
      <trkpt lat="45.61773" lon="2.80689">
        <ele>1400</ele>
        <time>2015-04-14T08:32:07.000Z</time>
      </trkpt>
      <trkpt lat="45.61773" lon="2.80687">
        <ele>1400</ele>
        <time>2015-04-14T08:32:07.867Z</time>
      </trkpt>
      <trkpt lat="45.61774" lon="2.80675">
        <ele>1400</ele>
        <time>2015-04-14T08:32:14.952Z</time>
      </trkpt>
      <trkpt lat="45.61774" lon="2.80674">
        <ele>1400</ele>
        <time>2015-04-14T08:32:15.856Z</time>
      </trkpt>
      <trkpt lat="45.61775" lon="2.80662">
        <ele>1400</ele>
        <time>2015-04-14T08:32:22.023Z</time>
      </trkpt>
      <trkpt lat="45.61775" lon="2.8066">
        <ele>1400</ele>
        <time>2015-04-14T08:32:22.850Z</time>
      </trkpt>
      <trkpt lat="45.61777" lon="2.80649">
        <ele>1401</ele>
        <time>2015-04-14T08:32:28.781Z</time>
      </trkpt>
      <trkpt lat="45.61778" lon="2.80647">
        <ele>1401</ele>
        <time>2015-04-14T08:32:29.937Z</time>
      </trkpt>
      <trkpt lat="45.61778" lon="2.80635">
        <ele>1401</ele>
        <time>2015-04-14T08:32:35.904Z</time>
      </trkpt>
      <trkpt lat="45.61778" lon="2.80633">
        <ele>1400</ele>
        <time>2015-04-14T08:32:36.862Z</time>
      </trkpt>
      <trkpt lat="45.61779" lon="2.80622">
        <ele>1401</ele>
        <time>2015-04-14T08:32:43.005Z</time>
      </trkpt>
      <trkpt lat="45.61779" lon="2.8062">
        <ele>1401</ele>
        <time>2015-04-14T08:32:43.952Z</time>
      </trkpt>
      <trkpt lat="45.6178" lon="2.80607">
        <ele>1401</ele>
        <time>2015-04-14T08:32:50.841Z</time>
      </trkpt>
      <trkpt lat="45.6178" lon="2.80606">
        <ele>1401</ele>
        <time>2015-04-14T08:32:51.811Z</time>
      </trkpt>
      <trkpt lat="45.61781" lon="2.80593">
        <ele>1401</ele>
        <time>2015-04-14T08:32:58.872Z</time>
      </trkpt>
      <trkpt lat="45.61781" lon="2.80591">
        <ele>1401</ele>
        <time>2015-04-14T08:32:59.901Z</time>
      </trkpt>
      <trkpt lat="45.61782" lon="2.80579">
        <ele>1402</ele>
        <time>2015-04-14T08:33:06.853Z</time>
      </trkpt>
      <trkpt lat="45.61782" lon="2.80577">
        <ele>1402</ele>
        <time>2015-04-14T08:33:08.044Z</time>
      </trkpt>
      <trkpt lat="45.61783" lon="2.80566">
        <ele>1404</ele>
        <time>2015-04-14T08:33:14.024Z</time>
      </trkpt>
      <trkpt lat="45.61783" lon="2.80564">
        <ele>1403</ele>
        <time>2015-04-14T08:33:14.830Z</time>
      </trkpt>
      <trkpt lat="45.61781" lon="2.80552">
        <ele>1403</ele>
        <time>2015-04-14T08:33:25.959Z</time>
      </trkpt>
      <trkpt lat="45.61781" lon="2.8055">
        <ele>1403</ele>
        <time>2015-04-14T08:33:26.782Z</time>
      </trkpt>
      <trkpt lat="45.61781" lon="2.80538">
        <ele>1405</ele>
        <time>2015-04-14T08:33:33.908Z</time>
      </trkpt>
      <trkpt lat="45.61781" lon="2.80536">
        <ele>1404</ele>
        <time>2015-04-14T08:33:34.779Z</time>
      </trkpt>
      <trkpt lat="45.61782" lon="2.80523">
        <ele>1404</ele>
        <time>2015-04-14T08:33:42.010Z</time>
      </trkpt>
      <trkpt lat="45.61782" lon="2.80521">
        <ele>1404</ele>
        <time>2015-04-14T08:33:42.787Z</time>
      </trkpt>
      <trkpt lat="45.61784" lon="2.80509">
        <ele>1404</ele>
        <time>2015-04-14T08:33:50.014Z</time>
      </trkpt>
      <trkpt lat="45.61784" lon="2.80507">
        <ele>1405</ele>
        <time>2015-04-14T08:33:50.854Z</time>
      </trkpt>
      <trkpt lat="45.61784" lon="2.80495">
        <ele>1406</ele>
        <time>2015-04-14T08:33:57.989Z</time>
      </trkpt>
      <trkpt lat="45.61784" lon="2.80494">
        <ele>1406</ele>
        <time>2015-04-14T08:33:58.786Z</time>
      </trkpt>
      <trkpt lat="45.61784" lon="2.80483">
        <ele>1405</ele>
        <time>2015-04-14T08:34:04.943Z</time>
      </trkpt>
      <trkpt lat="45.61784" lon="2.80481">
        <ele>1405</ele>
        <time>2015-04-14T08:34:05.901Z</time>
      </trkpt>
      <trkpt lat="45.61784" lon="2.80469">
        <ele>1405</ele>
        <time>2015-04-14T08:34:11.779Z</time>
      </trkpt>
      <trkpt lat="45.61784" lon="2.80467">
        <ele>1405</ele>
        <time>2015-04-14T08:34:13.055Z</time>
      </trkpt>
      <trkpt lat="45.61784" lon="2.80455">
        <ele>1405</ele>
        <time>2015-04-14T08:34:19.835Z</time>
      </trkpt>
      <trkpt lat="45.61784" lon="2.80454">
        <ele>1404</ele>
        <time>2015-04-14T08:34:21.005Z</time>
      </trkpt>
      <trkpt lat="45.61784" lon="2.80442">
        <ele>1405</ele>
        <time>2015-04-14T08:34:27.822Z</time>
      </trkpt>
      <trkpt lat="45.61784" lon="2.8044">
        <ele>1405</ele>
        <time>2015-04-14T08:34:28.973Z</time>
      </trkpt>
      <trkpt lat="45.61782" lon="2.80429">
        <ele>1404</ele>
        <time>2015-04-14T08:34:36.029Z</time>
      </trkpt>
      <trkpt lat="45.61782" lon="2.80427">
        <ele>1404</ele>
        <time>2015-04-14T08:34:36.833Z</time>
      </trkpt>
      <trkpt lat="45.61783" lon="2.80415">
        <ele>1405</ele>
        <time>2015-04-14T08:34:48.806Z</time>
      </trkpt>
      <trkpt lat="45.61783" lon="2.80413">
        <ele>1405</ele>
        <time>2015-04-14T08:34:50.016Z</time>
      </trkpt>
      <trkpt lat="45.61785" lon="2.80403">
        <ele>1405</ele>
        <time>2015-04-14T08:34:56.502Z</time>
      </trkpt>
      <trkpt lat="45.61786" lon="2.80401">
        <ele>1406</ele>
        <time>2015-04-14T08:34:56.783Z</time>
      </trkpt>
      <trkpt lat="45.61786" lon="2.80388">
        <ele>1406</ele>
        <time>2015-04-14T08:35:03.996Z</time>
      </trkpt>
      <trkpt lat="45.61786" lon="2.80387">
        <ele>1406</ele>
        <time>2015-04-14T08:35:04.813Z</time>
      </trkpt>
      <trkpt lat="45.61787" lon="2.80374">
        <ele>1405</ele>
        <time>2015-04-14T08:35:12.022Z</time>
      </trkpt>
      <trkpt lat="45.61787" lon="2.80373">
        <ele>1405</ele>
        <time>2015-04-14T08:35:12.790Z</time>
      </trkpt>
      <trkpt lat="45.61787" lon="2.80361">
        <ele>1404</ele>
        <time>2015-04-14T08:35:20.968Z</time>
      </trkpt>
      <trkpt lat="45.61787" lon="2.80359">
        <ele>1404</ele>
        <time>2015-04-14T08:35:22.030Z</time>
      </trkpt>
      <trkpt lat="45.61786" lon="2.80347">
        <ele>1404</ele>
        <time>2015-04-14T08:35:29.001Z</time>
      </trkpt>
      <trkpt lat="45.61786" lon="2.80345">
        <ele>1404</ele>
        <time>2015-04-14T08:35:29.907Z</time>
      </trkpt>
      <trkpt lat="45.61786" lon="2.80334">
        <ele>1404</ele>
        <time>2015-04-14T08:35:36.169Z</time>
      </trkpt>
      <trkpt lat="45.61786" lon="2.80332">
        <ele>1404</ele>
        <time>2015-04-14T08:35:36.821Z</time>
      </trkpt>
      <trkpt lat="45.61787" lon="2.80319">
        <ele>1405</ele>
        <time>2015-04-14T08:35:43.819Z</time>
      </trkpt>
      <trkpt lat="45.61786" lon="2.80318">
        <ele>1405</ele>
        <time>2015-04-14T08:35:44.787Z</time>
      </trkpt>
      <trkpt lat="45.61785" lon="2.80305">
        <ele>1403</ele>
        <time>2015-04-14T08:35:52.848Z</time>
      </trkpt>
      <trkpt lat="45.61785" lon="2.80304">
        <ele>1403</ele>
        <time>2015-04-14T08:35:54.050Z</time>
      </trkpt>
      <trkpt lat="45.61785" lon="2.80292">
        <ele>1404</ele>
        <time>2015-04-14T08:36:02.011Z</time>
      </trkpt>
      <trkpt lat="45.61785" lon="2.8029">
        <ele>1405</ele>
        <time>2015-04-14T08:36:02.847Z</time>
      </trkpt>
      <trkpt lat="45.61785" lon="2.80278">
        <ele>1405</ele>
        <time>2015-04-14T08:36:09.856Z</time>
      </trkpt>
      <trkpt lat="45.61785" lon="2.80276">
        <ele>1405</ele>
        <time>2015-04-14T08:36:10.879Z</time>
      </trkpt>
      <trkpt lat="45.61786" lon="2.80264">
        <ele>1405</ele>
        <time>2015-04-14T08:36:17.900Z</time>
      </trkpt>
      <trkpt lat="45.61786" lon="2.80262">
        <ele>1405</ele>
        <time>2015-04-14T08:36:18.991Z</time>
      </trkpt>
      <trkpt lat="45.61788" lon="2.8025">
        <ele>1407</ele>
        <time>2015-04-14T08:36:26.999Z</time>
      </trkpt>
      <trkpt lat="45.61788" lon="2.80249">
        <ele>1407</ele>
        <time>2015-04-14T08:36:27.863Z</time>
      </trkpt>
      <trkpt lat="45.61787" lon="2.80237">
        <ele>1406</ele>
        <time>2015-04-14T08:36:36.800Z</time>
      </trkpt>
      <trkpt lat="45.61787" lon="2.80236">
        <ele>1407</ele>
        <time>2015-04-14T08:36:37.984Z</time>
      </trkpt>
      <trkpt lat="45.61787" lon="2.80223">
        <ele>1406</ele>
        <time>2015-04-14T08:36:48.049Z</time>
      </trkpt>
      <trkpt lat="45.61787" lon="2.80221">
        <ele>1406</ele>
        <time>2015-04-14T08:36:48.768Z</time>
      </trkpt>
      <trkpt lat="45.61786" lon="2.8021">
        <ele>1406</ele>
        <time>2015-04-14T08:36:57.057Z</time>
      </trkpt>
      <trkpt lat="45.61786" lon="2.80208">
        <ele>1406</ele>
        <time>2015-04-14T08:36:57.926Z</time>
      </trkpt>
      <trkpt lat="45.61785" lon="2.80196">
        <ele>1407</ele>
        <time>2015-04-14T08:37:05.174Z</time>
      </trkpt>
      <trkpt lat="45.61785" lon="2.80195">
        <ele>1408</ele>
        <time>2015-04-14T08:37:05.777Z</time>
      </trkpt>
      <trkpt lat="45.61784" lon="2.80182">
        <ele>1407</ele>
        <time>2015-04-14T08:37:12.339Z</time>
      </trkpt>
      <trkpt lat="45.61784" lon="2.8018">
        <ele>1407</ele>
        <time>2015-04-14T08:37:13.231Z</time>
      </trkpt>
      <trkpt lat="45.61783" lon="2.80168">
        <ele>1407</ele>
        <time>2015-04-14T08:37:20.223Z</time>
      </trkpt>
      <trkpt lat="45.61783" lon="2.80166">
        <ele>1407</ele>
        <time>2015-04-14T08:37:21.261Z</time>
      </trkpt>
      <trkpt lat="45.61783" lon="2.80154">
        <ele>1408</ele>
        <time>2015-04-14T08:37:27.374Z</time>
      </trkpt>
      <trkpt lat="45.61783" lon="2.80152">
        <ele>1408</ele>
        <time>2015-04-14T08:37:28.162Z</time>
      </trkpt>
      <trkpt lat="45.61781" lon="2.8014">
        <ele>1407</ele>
        <time>2015-04-14T08:37:35.360Z</time>
      </trkpt>
      <trkpt lat="45.61781" lon="2.80138">
        <ele>1407</ele>
        <time>2015-04-14T08:37:36.249Z</time>
      </trkpt>
      <trkpt lat="45.61781" lon="2.80127">
        <ele>1407</ele>
        <time>2015-04-14T08:37:42.344Z</time>
      </trkpt>
      <trkpt lat="45.61781" lon="2.80125">
        <ele>1407</ele>
        <time>2015-04-14T08:37:43.403Z</time>
      </trkpt>
      <trkpt lat="45.61778" lon="2.80113">
        <ele>1407</ele>
        <time>2015-04-14T08:37:50.320Z</time>
      </trkpt>
      <trkpt lat="45.61778" lon="2.80112">
        <ele>1408</ele>
        <time>2015-04-14T08:37:51.323Z</time>
      </trkpt>
      <trkpt lat="45.61777" lon="2.801">
        <ele>1408</ele>
        <time>2015-04-14T08:37:57.130Z</time>
      </trkpt>
      <trkpt lat="45.61777" lon="2.80098">
        <ele>1408</ele>
        <time>2015-04-14T08:37:58.432Z</time>
      </trkpt>
      <trkpt lat="45.61777" lon="2.80087">
        <ele>1409</ele>
        <time>2015-04-14T08:38:05.230Z</time>
      </trkpt>
      <trkpt lat="45.61776" lon="2.80085">
        <ele>1408</ele>
        <time>2015-04-14T08:38:06.268Z</time>
      </trkpt>
      <trkpt lat="45.61775" lon="2.80074">
        <ele>1407</ele>
        <time>2015-04-14T08:38:13.327Z</time>
      </trkpt>
      <trkpt lat="45.61775" lon="2.80072">
        <ele>1407</ele>
        <time>2015-04-14T08:38:14.200Z</time>
      </trkpt>
      <trkpt lat="45.61775" lon="2.8006">
        <ele>1408</ele>
        <time>2015-04-14T08:38:21.425Z</time>
      </trkpt>
      <trkpt lat="45.61774" lon="2.80059">
        <ele>1408</ele>
        <time>2015-04-14T08:38:22.426Z</time>
      </trkpt>
      <trkpt lat="45.61773" lon="2.80047">
        <ele>1410</ele>
        <time>2015-04-14T08:38:31.317Z</time>
      </trkpt>
      <trkpt lat="45.61774" lon="2.80046">
        <ele>1411</ele>
        <time>2015-04-14T08:38:32.492Z</time>
      </trkpt>
      <trkpt lat="45.61774" lon="2.80033">
        <ele>1409</ele>
        <time>2015-04-14T08:38:39.262Z</time>
      </trkpt>
      <trkpt lat="45.61774" lon="2.80032">
        <ele>1409</ele>
        <time>2015-04-14T08:38:40.357Z</time>
      </trkpt>
      <trkpt lat="45.61773" lon="2.80019">
        <ele>1410</ele>
        <time>2015-04-14T08:38:47.192Z</time>
      </trkpt>
      <trkpt lat="45.61773" lon="2.80017">
        <ele>1409</ele>
        <time>2015-04-14T08:38:48.327Z</time>
      </trkpt>
      <trkpt lat="45.61773" lon="2.80005">
        <ele>1411</ele>
        <time>2015-04-14T08:38:58.323Z</time>
      </trkpt>
      <trkpt lat="45.61773" lon="2.80004">
        <ele>1411</ele>
        <time>2015-04-14T08:38:59.223Z</time>
      </trkpt>
      <trkpt lat="45.61771" lon="2.79991">
        <ele>1411</ele>
        <time>2015-04-14T08:39:06.397Z</time>
      </trkpt>
      <trkpt lat="45.61771" lon="2.79989">
        <ele>1411</ele>
        <time>2015-04-14T08:39:07.123Z</time>
      </trkpt>
      <trkpt lat="45.61769" lon="2.79978">
        <ele>1410</ele>
        <time>2015-04-14T08:39:13.238Z</time>
      </trkpt>
      <trkpt lat="45.61769" lon="2.79976">
        <ele>1410</ele>
        <time>2015-04-14T08:39:14.436Z</time>
      </trkpt>
      <trkpt lat="45.61768" lon="2.79963">
        <ele>1411</ele>
        <time>2015-04-14T08:39:21.303Z</time>
      </trkpt>
      <trkpt lat="45.61768" lon="2.79962">
        <ele>1410</ele>
        <time>2015-04-14T08:39:22.210Z</time>
      </trkpt>
      <trkpt lat="45.61766" lon="2.79949">
        <ele>1411</ele>
        <time>2015-04-14T08:39:29.131Z</time>
      </trkpt>
      <trkpt lat="45.61766" lon="2.79947">
        <ele>1411</ele>
        <time>2015-04-14T08:39:30.122Z</time>
      </trkpt>
      <trkpt lat="45.61765" lon="2.79935">
        <ele>1412</ele>
        <time>2015-04-14T08:39:36.974Z</time>
      </trkpt>
      <trkpt lat="45.61764" lon="2.79933">
        <ele>1412</ele>
        <time>2015-04-14T08:39:38.139Z</time>
      </trkpt>
      <trkpt lat="45.61763" lon="2.79921">
        <ele>1413</ele>
        <time>2015-04-14T08:39:44.993Z</time>
      </trkpt>
      <trkpt lat="45.61763" lon="2.79919">
        <ele>1413</ele>
        <time>2015-04-14T08:39:45.945Z</time>
      </trkpt>
      <trkpt lat="45.61762" lon="2.79907">
        <ele>1413</ele>
        <time>2015-04-14T08:39:53.139Z</time>
      </trkpt>
      <trkpt lat="45.61762" lon="2.79905">
        <ele>1413</ele>
        <time>2015-04-14T08:39:54.018Z</time>
      </trkpt>
      <trkpt lat="45.61761" lon="2.79893">
        <ele>1413</ele>
        <time>2015-04-14T08:40:00.643Z</time>
      </trkpt>
      <trkpt lat="45.61761" lon="2.79892">
        <ele>1413</ele>
        <time>2015-04-14T08:40:00.945Z</time>
      </trkpt>
      <trkpt lat="45.61761" lon="2.79879">
        <ele>1413</ele>
        <time>2015-04-14T08:40:08.019Z</time>
      </trkpt>
      <trkpt lat="45.61761" lon="2.79877">
        <ele>1413</ele>
        <time>2015-04-14T08:40:09.137Z</time>
      </trkpt>
      <trkpt lat="45.61761" lon="2.79865">
        <ele>1413</ele>
        <time>2015-04-14T08:40:16.162Z</time>
      </trkpt>
      <trkpt lat="45.61761" lon="2.79863">
        <ele>1414</ele>
        <time>2015-04-14T08:40:17.080Z</time>
      </trkpt>
      <trkpt lat="45.61759" lon="2.79851">
        <ele>1413</ele>
        <time>2015-04-14T08:40:24.174Z</time>
      </trkpt>
      <trkpt lat="45.61759" lon="2.7985">
        <ele>1413</ele>
        <time>2015-04-14T08:40:24.958Z</time>
      </trkpt>
      <trkpt lat="45.61759" lon="2.79837">
        <ele>1413</ele>
        <time>2015-04-14T08:40:32.190Z</time>
      </trkpt>
      <trkpt lat="45.61759" lon="2.79835">
        <ele>1413</ele>
        <time>2015-04-14T08:40:33.010Z</time>
      </trkpt>
      <trkpt lat="45.61758" lon="2.79823">
        <ele>1414</ele>
        <time>2015-04-14T08:40:40.254Z</time>
      </trkpt>
      <trkpt lat="45.61758" lon="2.79821">
        <ele>1414</ele>
        <time>2015-04-14T08:40:40.956Z</time>
      </trkpt>
      <trkpt lat="45.61758" lon="2.79809">
        <ele>1415</ele>
        <time>2015-04-14T08:40:46.944Z</time>
      </trkpt>
      <trkpt lat="45.61758" lon="2.79808">
        <ele>1415</ele>
        <time>2015-04-14T08:40:47.943Z</time>
      </trkpt>
      <trkpt lat="45.61757" lon="2.79797">
        <ele>1415</ele>
        <time>2015-04-14T08:40:54.650Z</time>
      </trkpt>
      <trkpt lat="45.61757" lon="2.79795">
        <ele>1415</ele>
        <time>2015-04-14T08:40:55.652Z</time>
      </trkpt>
      <trkpt lat="45.61756" lon="2.79783">
        <ele>1415</ele>
        <time>2015-04-14T08:41:02.660Z</time>
      </trkpt>
      <trkpt lat="45.61756" lon="2.79781">
        <ele>1415</ele>
        <time>2015-04-14T08:41:04.374Z</time>
      </trkpt>
      <trkpt lat="45.61755" lon="2.79769">
        <ele>1414</ele>
        <time>2015-04-14T08:41:10.768Z</time>
      </trkpt>
      <trkpt lat="45.61755" lon="2.79767">
        <ele>1414</ele>
        <time>2015-04-14T08:41:11.959Z</time>
      </trkpt>
      <trkpt lat="45.61753" lon="2.79754">
        <ele>1413</ele>
        <time>2015-04-14T08:41:18.600Z</time>
      </trkpt>
      <trkpt lat="45.61753" lon="2.79753">
        <ele>1413</ele>
        <time>2015-04-14T08:41:19.847Z</time>
      </trkpt>
      <trkpt lat="45.61752" lon="2.7974">
        <ele>1413</ele>
        <time>2015-04-14T08:41:26.739Z</time>
      </trkpt>
      <trkpt lat="45.61752" lon="2.79738">
        <ele>1413</ele>
        <time>2015-04-14T08:41:27.693Z</time>
      </trkpt>
      <trkpt lat="45.61752" lon="2.79726">
        <ele>1414</ele>
        <time>2015-04-14T08:41:37.678Z</time>
      </trkpt>
      <trkpt lat="45.61752" lon="2.79725">
        <ele>1414</ele>
        <time>2015-04-14T08:41:38.840Z</time>
      </trkpt>
      <trkpt lat="45.61751" lon="2.79713">
        <ele>1415</ele>
        <time>2015-04-14T08:41:45.603Z</time>
      </trkpt>
      <trkpt lat="45.61751" lon="2.7971">
        <ele>1415</ele>
        <time>2015-04-14T08:41:46.837Z</time>
      </trkpt>
      <trkpt lat="45.61751" lon="2.79699">
        <ele>1416</ele>
        <time>2015-04-14T08:41:52.679Z</time>
      </trkpt>
      <trkpt lat="45.61751" lon="2.79697">
        <ele>1416</ele>
        <time>2015-04-14T08:41:53.819Z</time>
      </trkpt>
      <trkpt lat="45.6175" lon="2.79685">
        <ele>1415</ele>
        <time>2015-04-14T08:42:01.845Z</time>
      </trkpt>
      <trkpt lat="45.6175" lon="2.79683">
        <ele>1415</ele>
        <time>2015-04-14T08:42:02.671Z</time>
      </trkpt>
      <trkpt lat="45.6175" lon="2.79671">
        <ele>1418</ele>
        <time>2015-04-14T08:42:09.867Z</time>
      </trkpt>
      <trkpt lat="45.6175" lon="2.79669">
        <ele>1418</ele>
        <time>2015-04-14T08:42:10.639Z</time>
      </trkpt>
      <trkpt lat="45.61749" lon="2.79658">
        <ele>1419</ele>
        <time>2015-04-14T08:42:16.760Z</time>
      </trkpt>
      <trkpt lat="45.61749" lon="2.79656">
        <ele>1419</ele>
        <time>2015-04-14T08:42:17.671Z</time>
      </trkpt>
      <trkpt lat="45.61748" lon="2.79644">
        <ele>1420</ele>
        <time>2015-04-14T08:42:24.769Z</time>
      </trkpt>
      <trkpt lat="45.61748" lon="2.79642">
        <ele>1420</ele>
        <time>2015-04-14T08:42:25.839Z</time>
      </trkpt>
      <trkpt lat="45.61748" lon="2.7963">
        <ele>1421</ele>
        <time>2015-04-14T08:42:38.648Z</time>
      </trkpt>
      <trkpt lat="45.61748" lon="2.79628">
        <ele>1421</ele>
        <time>2015-04-14T08:42:39.886Z</time>
      </trkpt>
      <trkpt lat="45.61747" lon="2.79616">
        <ele>1421</ele>
        <time>2015-04-14T08:42:45.656Z</time>
      </trkpt>
      <trkpt lat="45.61747" lon="2.79614">
        <ele>1421</ele>
        <time>2015-04-14T08:42:46.839Z</time>
      </trkpt>
      <trkpt lat="45.61745" lon="2.79602">
        <ele>1420</ele>
        <time>2015-04-14T08:42:52.839Z</time>
      </trkpt>
      <trkpt lat="45.61745" lon="2.796">
        <ele>1420</ele>
        <time>2015-04-14T08:42:53.661Z</time>
      </trkpt>
      <trkpt lat="45.61743" lon="2.79588">
        <ele>1420</ele>
        <time>2015-04-14T08:43:00.772Z</time>
      </trkpt>
      <trkpt lat="45.61743" lon="2.79586">
        <ele>1419</ele>
        <time>2015-04-14T08:43:01.652Z</time>
      </trkpt>
      <trkpt lat="45.61742" lon="2.79575">
        <ele>1418</ele>
        <time>2015-04-14T08:43:07.601Z</time>
      </trkpt>
      <trkpt lat="45.61742" lon="2.79573">
        <ele>1419</ele>
        <time>2015-04-14T08:43:08.758Z</time>
      </trkpt>
      <trkpt lat="45.61741" lon="2.79562">
        <ele>1421</ele>
        <time>2015-04-14T08:43:14.677Z</time>
      </trkpt>
      <trkpt lat="45.61741" lon="2.7956">
        <ele>1421</ele>
        <time>2015-04-14T08:43:15.819Z</time>
      </trkpt>
      <trkpt lat="45.61741" lon="2.79547">
        <ele>1422</ele>
        <time>2015-04-14T08:43:22.879Z</time>
      </trkpt>
      <trkpt lat="45.61741" lon="2.79545">
        <ele>1422</ele>
        <time>2015-04-14T08:43:23.714Z</time>
      </trkpt>
      <trkpt lat="45.6174" lon="2.79534">
        <ele>1422</ele>
        <time>2015-04-14T08:43:30.889Z</time>
      </trkpt>
      <trkpt lat="45.6174" lon="2.79532">
        <ele>1422</ele>
        <time>2015-04-14T08:43:31.641Z</time>
      </trkpt>
      <trkpt lat="45.61741" lon="2.79521">
        <ele>1422</ele>
        <time>2015-04-14T08:43:38.668Z</time>
      </trkpt>
      <trkpt lat="45.6174" lon="2.79519">
        <ele>1421</ele>
        <time>2015-04-14T08:43:39.809Z</time>
      </trkpt>
      <trkpt lat="45.6174" lon="2.79506">
        <ele>1421</ele>
        <time>2015-04-14T08:43:46.822Z</time>
      </trkpt>
      <trkpt lat="45.6174" lon="2.79505">
        <ele>1421</ele>
        <time>2015-04-14T08:43:47.866Z</time>
      </trkpt>
      <trkpt lat="45.6174" lon="2.79494">
        <ele>1422</ele>
        <time>2015-04-14T08:43:53.651Z</time>
      </trkpt>
      <trkpt lat="45.6174" lon="2.79492">
        <ele>1422</ele>
        <time>2015-04-14T08:43:54.881Z</time>
      </trkpt>
      <trkpt lat="45.6174" lon="2.79481">
        <ele>1422</ele>
        <time>2015-04-14T08:44:00.744Z</time>
      </trkpt>
      <trkpt lat="45.6174" lon="2.79479">
        <ele>1422</ele>
        <time>2015-04-14T08:44:01.682Z</time>
      </trkpt>
      <trkpt lat="45.61741" lon="2.79466">
        <ele>1423</ele>
        <time>2015-04-14T08:44:08.815Z</time>
      </trkpt>
      <trkpt lat="45.61741" lon="2.79465">
        <ele>1423</ele>
        <time>2015-04-14T08:44:09.836Z</time>
      </trkpt>
      <trkpt lat="45.6174" lon="2.79452">
        <ele>1424</ele>
        <time>2015-04-14T08:44:22.821Z</time>
      </trkpt>
      <trkpt lat="45.6174" lon="2.79451">
        <ele>1425</ele>
        <time>2015-04-14T08:44:23.665Z</time>
      </trkpt>
      <trkpt lat="45.6174" lon="2.79439">
        <ele>1424</ele>
        <time>2015-04-14T08:44:30.785Z</time>
      </trkpt>
      <trkpt lat="45.6174" lon="2.79437">
        <ele>1424</ele>
        <time>2015-04-14T08:44:31.604Z</time>
      </trkpt>
      <trkpt lat="45.61739" lon="2.79425">
        <ele>1424</ele>
        <time>2015-04-14T08:44:38.891Z</time>
      </trkpt>
      <trkpt lat="45.61739" lon="2.79423">
        <ele>1424</ele>
        <time>2015-04-14T08:44:39.659Z</time>
      </trkpt>
      <trkpt lat="45.6174" lon="2.79411">
        <ele>1424</ele>
        <time>2015-04-14T08:44:46.847Z</time>
      </trkpt>
      <trkpt lat="45.6174" lon="2.79409">
        <ele>1425</ele>
        <time>2015-04-14T08:44:47.671Z</time>
      </trkpt>
      <trkpt lat="45.61741" lon="2.79397">
        <ele>1426</ele>
        <time>2015-04-14T08:44:54.872Z</time>
      </trkpt>
      <trkpt lat="45.61741" lon="2.79395">
        <ele>1426</ele>
        <time>2015-04-14T08:44:55.651Z</time>
      </trkpt>
      <trkpt lat="45.61742" lon="2.79383">
        <ele>1428</ele>
        <time>2015-04-14T08:45:02.871Z</time>
      </trkpt>
      <trkpt lat="45.61742" lon="2.79381">
        <ele>1428</ele>
        <time>2015-04-14T08:45:03.622Z</time>
      </trkpt>
      <trkpt lat="45.61744" lon="2.79369">
        <ele>1428</ele>
        <time>2015-04-14T08:45:19.712Z</time>
      </trkpt>
      <trkpt lat="45.61744" lon="2.79368">
        <ele>1427</ele>
        <time>2015-04-14T08:45:20.854Z</time>
      </trkpt>
      <trkpt lat="45.61743" lon="2.79355">
        <ele>1427</ele>
        <time>2015-04-14T08:45:27.827Z</time>
      </trkpt>
      <trkpt lat="45.61743" lon="2.79353">
        <ele>1428</ele>
        <time>2015-04-14T08:45:28.671Z</time>
      </trkpt>
      <trkpt lat="45.61745" lon="2.79342">
        <ele>1429</ele>
        <time>2015-04-14T08:45:35.716Z</time>
      </trkpt>
      <trkpt lat="45.61745" lon="2.79341">
        <ele>1429</ele>
        <time>2015-04-14T08:45:36.848Z</time>
      </trkpt>
      <trkpt lat="45.61747" lon="2.79329">
        <ele>1432</ele>
        <time>2015-04-14T08:45:43.605Z</time>
      </trkpt>
      <trkpt lat="45.61747" lon="2.79328">
        <ele>1432</ele>
        <time>2015-04-14T08:45:44.611Z</time>
      </trkpt>
      <trkpt lat="45.61748" lon="2.79317">
        <ele>1432</ele>
        <time>2015-04-14T08:45:50.652Z</time>
      </trkpt>
      <trkpt lat="45.61748" lon="2.79315">
        <ele>1432</ele>
        <time>2015-04-14T08:45:51.832Z</time>
      </trkpt>
      <trkpt lat="45.61749" lon="2.79303">
        <ele>1433</ele>
        <time>2015-04-14T08:45:58.925Z</time>
      </trkpt>
      <trkpt lat="45.61749" lon="2.79301">
        <ele>1433</ele>
        <time>2015-04-14T08:45:59.613Z</time>
      </trkpt>
      <trkpt lat="45.61751" lon="2.7929">
        <ele>1433</ele>
        <time>2015-04-14T08:46:06.737Z</time>
      </trkpt>
      <trkpt lat="45.61751" lon="2.79288">
        <ele>1434</ele>
        <time>2015-04-14T08:46:07.663Z</time>
      </trkpt>
      <trkpt lat="45.61751" lon="2.79276">
        <ele>1433</ele>
        <time>2015-04-14T08:46:14.777Z</time>
      </trkpt>
      <trkpt lat="45.61751" lon="2.79274">
        <ele>1433</ele>
        <time>2015-04-14T08:46:15.667Z</time>
      </trkpt>
      <trkpt lat="45.61748" lon="2.79262">
        <ele>1432</ele>
        <time>2015-04-14T08:46:22.723Z</time>
      </trkpt>
      <trkpt lat="45.61748" lon="2.7926">
        <ele>1432</ele>
        <time>2015-04-14T08:46:23.717Z</time>
      </trkpt>
      <trkpt lat="45.61746" lon="2.79249">
        <ele>1430</ele>
        <time>2015-04-14T08:46:30.848Z</time>
      </trkpt>
      <trkpt lat="45.61746" lon="2.79247">
        <ele>1430</ele>
        <time>2015-04-14T08:46:31.688Z</time>
      </trkpt>
      <trkpt lat="45.61741" lon="2.79236">
        <ele>1432</ele>
        <time>2015-04-14T08:46:38.690Z</time>
      </trkpt>
      <trkpt lat="45.61741" lon="2.79235">
        <ele>1433</ele>
        <time>2015-04-14T08:46:39.668Z</time>
      </trkpt>
      <trkpt lat="45.61738" lon="2.79223">
        <ele>1433</ele>
        <time>2015-04-14T08:46:46.662Z</time>
      </trkpt>
      <trkpt lat="45.61737" lon="2.79222">
        <ele>1433</ele>
        <time>2015-04-14T08:46:47.825Z</time>
      </trkpt>
      <trkpt lat="45.61735" lon="2.7921">
        <ele>1435</ele>
        <time>2015-04-14T08:46:54.626Z</time>
      </trkpt>
      <trkpt lat="45.61735" lon="2.79209">
        <ele>1435</ele>
        <time>2015-04-14T08:46:55.859Z</time>
      </trkpt>
      <trkpt lat="45.6173" lon="2.79198">
        <ele>1435</ele>
        <time>2015-04-14T08:47:02.895Z</time>
      </trkpt>
      <trkpt lat="45.6173" lon="2.79196">
        <ele>1436</ele>
        <time>2015-04-14T08:47:03.751Z</time>
      </trkpt>
      <trkpt lat="45.61727" lon="2.79186">
        <ele>1436</ele>
        <time>2015-04-14T08:47:10.867Z</time>
      </trkpt>
      <trkpt lat="45.61726" lon="2.79184">
        <ele>1437</ele>
        <time>2015-04-14T08:47:11.793Z</time>
      </trkpt>
      <trkpt lat="45.61722" lon="2.79174">
        <ele>1436</ele>
        <time>2015-04-14T08:47:18.776Z</time>
      </trkpt>
      <trkpt lat="45.61722" lon="2.79173">
        <ele>1436</ele>
        <time>2015-04-14T08:47:19.858Z</time>
      </trkpt>
      <trkpt lat="45.61718" lon="2.79162">
        <ele>1437</ele>
        <time>2015-04-14T08:47:28.705Z</time>
      </trkpt>
      <trkpt lat="45.61717" lon="2.79161">
        <ele>1437</ele>
        <time>2015-04-14T08:47:29.997Z</time>
      </trkpt>
      <trkpt lat="45.61715" lon="2.79149">
        <ele>1438</ele>
        <time>2015-04-14T08:47:37.887Z</time>
      </trkpt>
      <trkpt lat="45.61715" lon="2.79147">
        <ele>1438</ele>
        <time>2015-04-14T08:47:38.707Z</time>
      </trkpt>
      <trkpt lat="45.61713" lon="2.79136">
        <ele>1440</ele>
        <time>2015-04-14T08:47:45.784Z</time>
      </trkpt>
      <trkpt lat="45.61712" lon="2.79134">
        <ele>1440</ele>
        <time>2015-04-14T08:47:46.689Z</time>
      </trkpt>
      <trkpt lat="45.6171" lon="2.79123">
        <ele>1440</ele>
        <time>2015-04-14T08:47:53.905Z</time>
      </trkpt>
      <trkpt lat="45.61709" lon="2.79122">
        <ele>1439</ele>
        <time>2015-04-14T08:47:54.716Z</time>
      </trkpt>
      <trkpt lat="45.61706" lon="2.79111">
        <ele>1441</ele>
        <time>2015-04-14T08:48:01.650Z</time>
      </trkpt>
      <trkpt lat="45.61705" lon="2.79109">
        <ele>1441</ele>
        <time>2015-04-14T08:48:02.701Z</time>
      </trkpt>
      <trkpt lat="45.61703" lon="2.79098">
        <ele>1441</ele>
        <time>2015-04-14T08:48:09.671Z</time>
      </trkpt>
      <trkpt lat="45.61703" lon="2.79096">
        <ele>1441</ele>
        <time>2015-04-14T08:48:10.802Z</time>
      </trkpt>
      <trkpt lat="45.61701" lon="2.79085">
        <ele>1442</ele>
        <time>2015-04-14T08:48:17.638Z</time>
      </trkpt>
      <trkpt lat="45.617" lon="2.79084">
        <ele>1442</ele>
        <time>2015-04-14T08:48:18.816Z</time>
      </trkpt>
      <trkpt lat="45.61698" lon="2.79072">
        <ele>1443</ele>
        <time>2015-04-14T08:48:25.857Z</time>
      </trkpt>
      <trkpt lat="45.61697" lon="2.79071">
        <ele>1443</ele>
        <time>2015-04-14T08:48:26.620Z</time>
      </trkpt>
      <trkpt lat="45.61693" lon="2.7906">
        <ele>1443</ele>
        <time>2015-04-14T08:48:33.766Z</time>
      </trkpt>
      <trkpt lat="45.61692" lon="2.79059">
        <ele>1443</ele>
        <time>2015-04-14T08:48:34.613Z</time>
      </trkpt>
      <trkpt lat="45.61687" lon="2.7905">
        <ele>1443</ele>
        <time>2015-04-14T08:48:41.833Z</time>
      </trkpt>
      <trkpt lat="45.61686" lon="2.79048">
        <ele>1443</ele>
        <time>2015-04-14T08:48:42.687Z</time>
      </trkpt>
      <trkpt lat="45.61681" lon="2.79039">
        <ele>1443</ele>
        <time>2015-04-14T08:50:33.833Z</time>
      </trkpt>
      <trkpt lat="45.6168" lon="2.79038">
        <ele>1443</ele>
        <time>2015-04-14T08:50:34.824Z</time>
      </trkpt>
      <trkpt lat="45.61674" lon="2.79031">
        <ele>1442</ele>
        <time>2015-04-14T08:50:40.665Z</time>
      </trkpt>
      <trkpt lat="45.61673" lon="2.7903">
        <ele>1442</ele>
        <time>2015-04-14T08:50:41.826Z</time>
      </trkpt>
      <trkpt lat="45.61668" lon="2.79021">
        <ele>1443</ele>
        <time>2015-04-14T08:50:47.644Z</time>
      </trkpt>
      <trkpt lat="45.61667" lon="2.79019">
        <ele>1443</ele>
        <time>2015-04-14T08:50:48.815Z</time>
      </trkpt>
      <trkpt lat="45.61663" lon="2.79008">
        <ele>1443</ele>
        <time>2015-04-14T08:50:54.896Z</time>
      </trkpt>
      <trkpt lat="45.61662" lon="2.79006">
        <ele>1443</ele>
        <time>2015-04-14T08:50:55.671Z</time>
      </trkpt>
      <trkpt lat="45.61658" lon="2.78996">
        <ele>1443</ele>
        <time>2015-04-14T08:51:02.811Z</time>
      </trkpt>
      <trkpt lat="45.61657" lon="2.78994">
        <ele>1443</ele>
        <time>2015-04-14T08:51:03.690Z</time>
      </trkpt>
      <trkpt lat="45.61653" lon="2.78983">
        <ele>1445</ele>
        <time>2015-04-14T08:51:10.661Z</time>
      </trkpt>
      <trkpt lat="45.61653" lon="2.78982">
        <ele>1445</ele>
        <time>2015-04-14T08:51:11.954Z</time>
      </trkpt>
      <trkpt lat="45.61649" lon="2.78971">
        <ele>1447</ele>
        <time>2015-04-14T08:51:18.644Z</time>
      </trkpt>
      <trkpt lat="45.61649" lon="2.7897">
        <ele>1447</ele>
        <time>2015-04-14T08:51:19.955Z</time>
      </trkpt>
      <trkpt lat="45.61645" lon="2.78959">
        <ele>1448</ele>
        <time>2015-04-14T08:51:27.942Z</time>
      </trkpt>
      <trkpt lat="45.61645" lon="2.78958">
        <ele>1448</ele>
        <time>2015-04-14T08:51:28.596Z</time>
      </trkpt>
      <trkpt lat="45.61641" lon="2.78948">
        <ele>1449</ele>
        <time>2015-04-14T08:51:36.683Z</time>
      </trkpt>
      <trkpt lat="45.6164" lon="2.78946">
        <ele>1448</ele>
        <time>2015-04-14T08:51:37.726Z</time>
      </trkpt>
      <trkpt lat="45.61637" lon="2.78934">
        <ele>1449</ele>
        <time>2015-04-14T08:51:45.840Z</time>
      </trkpt>
      <trkpt lat="45.61637" lon="2.78933">
        <ele>1449</ele>
        <time>2015-04-14T08:51:46.679Z</time>
      </trkpt>
      <trkpt lat="45.61633" lon="2.78923">
        <ele>1449</ele>
        <time>2015-04-14T08:51:53.699Z</time>
      </trkpt>
      <trkpt lat="45.61632" lon="2.78922">
        <ele>1450</ele>
        <time>2015-04-14T08:51:54.670Z</time>
      </trkpt>
      <trkpt lat="45.61633" lon="2.7891">
        <ele>1452</ele>
        <time>2015-04-14T08:52:02.653Z</time>
      </trkpt>
      <trkpt lat="45.61633" lon="2.78908">
        <ele>1452</ele>
        <time>2015-04-14T08:52:03.696Z</time>
      </trkpt>
      <trkpt lat="45.61636" lon="2.78897">
        <ele>1455</ele>
        <time>2015-04-14T08:52:13.631Z</time>
      </trkpt>
      <trkpt lat="45.61637" lon="2.78896">
        <ele>1455</ele>
        <time>2015-04-14T08:52:14.763Z</time>
      </trkpt>
      <trkpt lat="45.61637" lon="2.78884">
        <ele>1454</ele>
        <time>2015-04-14T08:52:22.833Z</time>
      </trkpt>
      <trkpt lat="45.61636" lon="2.78883">
        <ele>1454</ele>
        <time>2015-04-14T08:52:23.649Z</time>
      </trkpt>
      <trkpt lat="45.61631" lon="2.78872">
        <ele>1453</ele>
        <time>2015-04-14T08:52:31.704Z</time>
      </trkpt>
      <trkpt lat="45.61631" lon="2.78871">
        <ele>1453</ele>
        <time>2015-04-14T08:52:32.638Z</time>
      </trkpt>
      <trkpt lat="45.61625" lon="2.78863">
        <ele>1452</ele>
        <time>2015-04-14T08:52:39.780Z</time>
      </trkpt>
      <trkpt lat="45.61624" lon="2.78862">
        <ele>1452</ele>
        <time>2015-04-14T08:52:40.740Z</time>
      </trkpt>
      <trkpt lat="45.61617" lon="2.78854">
        <ele>1452</ele>
        <time>2015-04-14T08:52:47.678Z</time>
      </trkpt>
      <trkpt lat="45.61616" lon="2.78852">
        <ele>1452</ele>
        <time>2015-04-14T08:52:48.807Z</time>
      </trkpt>
      <trkpt lat="45.6161" lon="2.78843">
        <ele>1451</ele>
        <time>2015-04-14T08:52:55.275Z</time>
      </trkpt>
      <trkpt lat="45.61609" lon="2.78842">
        <ele>1451</ele>
        <time>2015-04-14T08:52:56.876Z</time>
      </trkpt>
      <trkpt lat="45.61604" lon="2.78832">
        <ele>1450</ele>
        <time>2015-04-14T08:53:03.369Z</time>
      </trkpt>
      <trkpt lat="45.61603" lon="2.78831">
        <ele>1451</ele>
        <time>2015-04-14T08:53:04.448Z</time>
      </trkpt>
      <trkpt lat="45.61598" lon="2.78822">
        <ele>1450</ele>
        <time>2015-04-14T08:53:10.488Z</time>
      </trkpt>
      <trkpt lat="45.61597" lon="2.78821">
        <ele>1450</ele>
        <time>2015-04-14T08:53:11.291Z</time>
      </trkpt>
      <trkpt lat="45.61591" lon="2.78812">
        <ele>1450</ele>
        <time>2015-04-14T08:53:19.264Z</time>
      </trkpt>
      <trkpt lat="45.61591" lon="2.7881">
        <ele>1450</ele>
        <time>2015-04-14T08:53:20.363Z</time>
      </trkpt>
      <trkpt lat="45.61585" lon="2.78801">
        <ele>1449</ele>
        <time>2015-04-14T08:53:27.387Z</time>
      </trkpt>
      <trkpt lat="45.61584" lon="2.788">
        <ele>1450</ele>
        <time>2015-04-14T08:53:28.481Z</time>
      </trkpt>
      <trkpt lat="45.61578" lon="2.78791">
        <ele>1452</ele>
        <time>2015-04-14T08:53:37.513Z</time>
      </trkpt>
      <trkpt lat="45.61578" lon="2.78789">
        <ele>1453</ele>
        <time>2015-04-14T08:53:38.384Z</time>
      </trkpt>
      <trkpt lat="45.61576" lon="2.78777">
        <ele>1456</ele>
        <time>2015-04-14T08:53:47.518Z</time>
      </trkpt>
      <trkpt lat="45.61576" lon="2.78776">
        <ele>1456</ele>
        <time>2015-04-14T08:53:48.288Z</time>
      </trkpt>
      <trkpt lat="45.61575" lon="2.78765">
        <ele>1457</ele>
        <time>2015-04-14T08:53:57.230Z</time>
      </trkpt>
      <trkpt lat="45.61574" lon="2.78763">
        <ele>1457</ele>
        <time>2015-04-14T08:53:58.219Z</time>
      </trkpt>
      <trkpt lat="45.61571" lon="2.78751">
        <ele>1457</ele>
        <time>2015-04-14T08:54:06.238Z</time>
      </trkpt>
      <trkpt lat="45.6157" lon="2.7875">
        <ele>1457</ele>
        <time>2015-04-14T08:54:07.579Z</time>
      </trkpt>
      <trkpt lat="45.61568" lon="2.78739">
        <ele>1457</ele>
        <time>2015-04-14T08:54:14.243Z</time>
      </trkpt>
      <trkpt lat="45.61568" lon="2.78737">
        <ele>1458</ele>
        <time>2015-04-14T08:54:15.495Z</time>
      </trkpt>
      <trkpt lat="45.61565" lon="2.78725">
        <ele>1459</ele>
        <time>2015-04-14T08:54:23.118Z</time>
      </trkpt>
      <trkpt lat="45.61564" lon="2.78724">
        <ele>1459</ele>
        <time>2015-04-14T08:54:24.094Z</time>
      </trkpt>
      <trkpt lat="45.61562" lon="2.78712">
        <ele>1460</ele>
        <time>2015-04-14T08:54:31.096Z</time>
      </trkpt>
      <trkpt lat="45.61562" lon="2.78711">
        <ele>1460</ele>
        <time>2015-04-14T08:54:32.312Z</time>
      </trkpt>
      <trkpt lat="45.61559" lon="2.78699">
        <ele>1460</ele>
        <time>2015-04-14T08:54:40.350Z</time>
      </trkpt>
      <trkpt lat="45.61558" lon="2.78698">
        <ele>1460</ele>
        <time>2015-04-14T08:54:41.143Z</time>
      </trkpt>
      <trkpt lat="45.61555" lon="2.78686">
        <ele>1463</ele>
        <time>2015-04-14T08:54:48.134Z</time>
      </trkpt>
      <trkpt lat="45.61555" lon="2.78685">
        <ele>1463</ele>
        <time>2015-04-14T08:54:49.218Z</time>
      </trkpt>
      <trkpt lat="45.61552" lon="2.78674">
        <ele>1464</ele>
        <time>2015-04-14T08:54:57.591Z</time>
      </trkpt>
      <trkpt lat="45.61551" lon="2.78672">
        <ele>1464</ele>
        <time>2015-04-14T08:54:58.155Z</time>
      </trkpt>
      <trkpt lat="45.61546" lon="2.78662">
        <ele>1463</ele>
        <time>2015-04-14T08:55:16.183Z</time>
      </trkpt>
      <trkpt lat="45.61545" lon="2.78661">
        <ele>1463</ele>
        <time>2015-04-14T08:55:17.164Z</time>
      </trkpt>
      <trkpt lat="45.6154" lon="2.78652">
        <ele>1462</ele>
        <time>2015-04-14T08:55:24.126Z</time>
      </trkpt>
      <trkpt lat="45.61539" lon="2.7865">
        <ele>1462</ele>
        <time>2015-04-14T08:55:25.252Z</time>
      </trkpt>
      <trkpt lat="45.61534" lon="2.78641">
        <ele>1462</ele>
        <time>2015-04-14T08:55:32.153Z</time>
      </trkpt>
      <trkpt lat="45.61533" lon="2.7864">
        <ele>1462</ele>
        <time>2015-04-14T08:55:33.507Z</time>
      </trkpt>
      <trkpt lat="45.61527" lon="2.78632">
        <ele>1463</ele>
        <time>2015-04-14T08:55:40.174Z</time>
      </trkpt>
      <trkpt lat="45.61526" lon="2.78631">
        <ele>1463</ele>
        <time>2015-04-14T08:55:41.365Z</time>
      </trkpt>
      <trkpt lat="45.61518" lon="2.78625">
        <ele>1463</ele>
        <time>2015-04-14T08:55:49.239Z</time>
      </trkpt>
      <trkpt lat="45.61517" lon="2.78624">
        <ele>1463</ele>
        <time>2015-04-14T08:55:50.302Z</time>
      </trkpt>
      <trkpt lat="45.6151" lon="2.78619">
        <ele>1463</ele>
        <time>2015-04-14T08:55:58.303Z</time>
      </trkpt>
      <trkpt lat="45.61509" lon="2.78618">
        <ele>1463</ele>
        <time>2015-04-14T08:55:59.204Z</time>
      </trkpt>
      <trkpt lat="45.61501" lon="2.78616">
        <ele>1462</ele>
        <time>2015-04-14T08:56:07.349Z</time>
      </trkpt>
      <trkpt lat="45.615" lon="2.78616">
        <ele>1462</ele>
        <time>2015-04-14T08:56:08.105Z</time>
      </trkpt>
      <trkpt lat="45.61492" lon="2.78612">
        <ele>1462</ele>
        <time>2015-04-14T08:56:16.175Z</time>
      </trkpt>
      <trkpt lat="45.61491" lon="2.78612">
        <ele>1462</ele>
        <time>2015-04-14T08:56:17.366Z</time>
      </trkpt>
      <trkpt lat="45.61484" lon="2.78604">
        <ele>1463</ele>
        <time>2015-04-14T08:56:29.369Z</time>
      </trkpt>
      <trkpt lat="45.61484" lon="2.78603">
        <ele>1463</ele>
        <time>2015-04-14T08:56:30.225Z</time>
      </trkpt>
      <trkpt lat="45.61476" lon="2.78598">
        <ele>1464</ele>
        <time>2015-04-14T08:56:37.297Z</time>
      </trkpt>
      <trkpt lat="45.61475" lon="2.78597">
        <ele>1463</ele>
        <time>2015-04-14T08:56:38.082Z</time>
      </trkpt>
      <trkpt lat="45.61467" lon="2.78591">
        <ele>1463</ele>
        <time>2015-04-14T08:56:45.362Z</time>
      </trkpt>
      <trkpt lat="45.61466" lon="2.78591">
        <ele>1463</ele>
        <time>2015-04-14T08:56:46.144Z</time>
      </trkpt>
      <trkpt lat="45.61458" lon="2.78585">
        <ele>1463</ele>
        <time>2015-04-14T08:56:54.127Z</time>
      </trkpt>
      <trkpt lat="45.61457" lon="2.78584">
        <ele>1464</ele>
        <time>2015-04-14T08:56:55.266Z</time>
      </trkpt>
      <trkpt lat="45.6145" lon="2.7858">
        <ele>1464</ele>
        <time>2015-04-14T08:57:03.315Z</time>
      </trkpt>
      <trkpt lat="45.61449" lon="2.78579">
        <ele>1464</ele>
        <time>2015-04-14T08:57:04.210Z</time>
      </trkpt>
      <trkpt lat="45.6144" lon="2.78577">
        <ele>1464</ele>
        <time>2015-04-14T08:57:12.437Z</time>
      </trkpt>
      <trkpt lat="45.61439" lon="2.78577">
        <ele>1465</ele>
        <time>2015-04-14T08:57:13.099Z</time>
      </trkpt>
      <trkpt lat="45.61431" lon="2.78575">
        <ele>1466</ele>
        <time>2015-04-14T08:57:20.224Z</time>
      </trkpt>
      <trkpt lat="45.6143" lon="2.78575">
        <ele>1466</ele>
        <time>2015-04-14T08:57:21.451Z</time>
      </trkpt>
      <trkpt lat="45.61422" lon="2.78572">
        <ele>1467</ele>
        <time>2015-04-14T08:57:28.207Z</time>
      </trkpt>
      <trkpt lat="45.61421" lon="2.78571">
        <ele>1467</ele>
        <time>2015-04-14T08:57:29.268Z</time>
      </trkpt>
      <trkpt lat="45.61413" lon="2.78567">
        <ele>1468</ele>
        <time>2015-04-14T08:57:35.380Z</time>
      </trkpt>
      <trkpt lat="45.61412" lon="2.78567">
        <ele>1468</ele>
        <time>2015-04-14T08:57:36.160Z</time>
      </trkpt>
      <trkpt lat="45.61404" lon="2.78563">
        <ele>1468</ele>
        <time>2015-04-14T08:57:43.180Z</time>
      </trkpt>
      <trkpt lat="45.61403" lon="2.78563">
        <ele>1468</ele>
        <time>2015-04-14T08:57:44.100Z</time>
      </trkpt>
      <trkpt lat="45.61395" lon="2.78558">
        <ele>1467</ele>
        <time>2015-04-14T08:57:51.123Z</time>
      </trkpt>
      <trkpt lat="45.61394" lon="2.78557">
        <ele>1468</ele>
        <time>2015-04-14T08:57:52.300Z</time>
      </trkpt>
      <trkpt lat="45.61387" lon="2.7855">
        <ele>1468</ele>
        <time>2015-04-14T08:57:59.159Z</time>
      </trkpt>
      <trkpt lat="45.61386" lon="2.78549">
        <ele>1468</ele>
        <time>2015-04-14T08:58:00.455Z</time>
      </trkpt>
      <trkpt lat="45.61379" lon="2.78543">
        <ele>1470</ele>
        <time>2015-04-14T08:58:07.228Z</time>
      </trkpt>
      <trkpt lat="45.61378" lon="2.78542">
        <ele>1470</ele>
        <time>2015-04-14T08:58:08.272Z</time>
      </trkpt>
      <trkpt lat="45.61371" lon="2.78535">
        <ele>1470</ele>
        <time>2015-04-14T08:58:14.458Z</time>
      </trkpt>
      <trkpt lat="45.6137" lon="2.78534">
        <ele>1470</ele>
        <time>2015-04-14T08:58:15.145Z</time>
      </trkpt>
      <trkpt lat="45.61363" lon="2.78527">
        <ele>1470</ele>
        <time>2015-04-14T08:58:22.086Z</time>
      </trkpt>
      <trkpt lat="45.61362" lon="2.78526">
        <ele>1470</ele>
        <time>2015-04-14T08:58:23.345Z</time>
      </trkpt>
      <trkpt lat="45.61355" lon="2.78521">
        <ele>1470</ele>
        <time>2015-04-14T08:58:29.165Z</time>
      </trkpt>
      <trkpt lat="45.61354" lon="2.7852">
        <ele>1471</ele>
        <time>2015-04-14T08:58:30.167Z</time>
      </trkpt>
      <trkpt lat="45.61346" lon="2.78514">
        <ele>1469</ele>
        <time>2015-04-14T08:58:37.282Z</time>
      </trkpt>
      <trkpt lat="45.61345" lon="2.78514">
        <ele>1468</ele>
        <time>2015-04-14T08:58:38.254Z</time>
      </trkpt>
      <trkpt lat="45.61338" lon="2.78508">
        <ele>1469</ele>
        <time>2015-04-14T08:58:45.255Z</time>
      </trkpt>
      <trkpt lat="45.61338" lon="2.78507">
        <ele>1469</ele>
        <time>2015-04-14T08:58:46.366Z</time>
      </trkpt>
      <trkpt lat="45.61331" lon="2.78501">
        <ele>1469</ele>
        <time>2015-04-14T08:58:53.874Z</time>
      </trkpt>
      <trkpt lat="45.6133" lon="2.785">
        <ele>1468</ele>
        <time>2015-04-14T08:58:54.144Z</time>
      </trkpt>
      <trkpt lat="45.61322" lon="2.78494">
        <ele>1468</ele>
        <time>2015-04-14T08:59:01.146Z</time>
      </trkpt>
      <trkpt lat="45.61321" lon="2.78493">
        <ele>1468</ele>
        <time>2015-04-14T08:59:02.363Z</time>
      </trkpt>
      <trkpt lat="45.61315" lon="2.78486">
        <ele>1469</ele>
        <time>2015-04-14T08:59:09.260Z</time>
      </trkpt>
      <trkpt lat="45.61314" lon="2.78484">
        <ele>1470</ele>
        <time>2015-04-14T08:59:10.220Z</time>
      </trkpt>
      <trkpt lat="45.61308" lon="2.78476">
        <ele>1470</ele>
        <time>2015-04-14T08:59:17.296Z</time>
      </trkpt>
      <trkpt lat="45.61308" lon="2.78475">
        <ele>1470</ele>
        <time>2015-04-14T08:59:18.319Z</time>
      </trkpt>
      <trkpt lat="45.61303" lon="2.78465">
        <ele>1470</ele>
        <time>2015-04-14T08:59:25.275Z</time>
      </trkpt>
      <trkpt lat="45.61302" lon="2.78464">
        <ele>1470</ele>
        <time>2015-04-14T08:59:26.162Z</time>
      </trkpt>
      <trkpt lat="45.61296" lon="2.78456">
        <ele>1471</ele>
        <time>2015-04-14T08:59:33.303Z</time>
      </trkpt>
      <trkpt lat="45.61295" lon="2.78455">
        <ele>1471</ele>
        <time>2015-04-14T08:59:34.151Z</time>
      </trkpt>
      <trkpt lat="45.6129" lon="2.78446">
        <ele>1470</ele>
        <time>2015-04-14T08:59:41.420Z</time>
      </trkpt>
      <trkpt lat="45.61289" lon="2.78445">
        <ele>1470</ele>
        <time>2015-04-14T08:59:42.386Z</time>
      </trkpt>
      <trkpt lat="45.61282" lon="2.78437">
        <ele>1470</ele>
        <time>2015-04-14T08:59:50.163Z</time>
      </trkpt>
      <trkpt lat="45.61281" lon="2.78436">
        <ele>1470</ele>
        <time>2015-04-14T08:59:51.140Z</time>
      </trkpt>
      <trkpt lat="45.61275" lon="2.78427">
        <ele>1469</ele>
        <time>2015-04-14T08:59:59.119Z</time>
      </trkpt>
      <trkpt lat="45.61274" lon="2.78426">
        <ele>1469</ele>
        <time>2015-04-14T09:00:00.115Z</time>
      </trkpt>
      <trkpt lat="45.61269" lon="2.78417">
        <ele>1468</ele>
        <time>2015-04-14T09:00:07.339Z</time>
      </trkpt>
      <trkpt lat="45.61268" lon="2.78416">
        <ele>1467</ele>
        <time>2015-04-14T09:00:08.121Z</time>
      </trkpt>
      <trkpt lat="45.61262" lon="2.78408">
        <ele>1468</ele>
        <time>2015-04-14T09:00:15.214Z</time>
      </trkpt>
      <trkpt lat="45.61262" lon="2.78407">
        <ele>1468</ele>
        <time>2015-04-14T09:00:16.299Z</time>
      </trkpt>
      <trkpt lat="45.61256" lon="2.78397">
        <ele>1470</ele>
        <time>2015-04-14T09:00:23.125Z</time>
      </trkpt>
      <trkpt lat="45.61255" lon="2.78395">
        <ele>1470</ele>
        <time>2015-04-14T09:00:24.291Z</time>
      </trkpt>
      <trkpt lat="45.6125" lon="2.78386">
        <ele>1471</ele>
        <time>2015-04-14T09:00:31.338Z</time>
      </trkpt>
      <trkpt lat="45.61249" lon="2.78384">
        <ele>1471</ele>
        <time>2015-04-14T09:00:32.270Z</time>
      </trkpt>
      <trkpt lat="45.61244" lon="2.78376">
        <ele>1472</ele>
        <time>2015-04-14T09:00:40.157Z</time>
      </trkpt>
      <trkpt lat="45.61243" lon="2.78374">
        <ele>1472</ele>
        <time>2015-04-14T09:00:41.175Z</time>
      </trkpt>
      <trkpt lat="45.61238" lon="2.78365">
        <ele>1473</ele>
        <time>2015-04-14T09:00:49.138Z</time>
      </trkpt>
      <trkpt lat="45.61238" lon="2.78364">
        <ele>1473</ele>
        <time>2015-04-14T09:00:50.233Z</time>
      </trkpt>
      <trkpt lat="45.61234" lon="2.78353">
        <ele>1473</ele>
        <time>2015-04-14T09:00:58.147Z</time>
      </trkpt>
      <trkpt lat="45.61234" lon="2.78351">
        <ele>1473</ele>
        <time>2015-04-14T09:00:59.141Z</time>
      </trkpt>
      <trkpt lat="45.6123" lon="2.78341">
        <ele>1473</ele>
        <time>2015-04-14T09:01:09.160Z</time>
      </trkpt>
      <trkpt lat="45.6123" lon="2.7834">
        <ele>1473</ele>
        <time>2015-04-14T09:01:10.154Z</time>
      </trkpt>
      <trkpt lat="45.61226" lon="2.78329">
        <ele>1475</ele>
        <time>2015-04-14T09:01:18.130Z</time>
      </trkpt>
      <trkpt lat="45.61226" lon="2.78328">
        <ele>1475</ele>
        <time>2015-04-14T09:01:19.292Z</time>
      </trkpt>
      <trkpt lat="45.61221" lon="2.78317">
        <ele>1476</ele>
        <time>2015-04-14T09:01:28.192Z</time>
      </trkpt>
      <trkpt lat="45.61221" lon="2.78316">
        <ele>1476</ele>
        <time>2015-04-14T09:01:29.120Z</time>
      </trkpt>
      <trkpt lat="45.61217" lon="2.78306">
        <ele>1477</ele>
        <time>2015-04-14T09:01:37.133Z</time>
      </trkpt>
      <trkpt lat="45.61216" lon="2.78305">
        <ele>1477</ele>
        <time>2015-04-14T09:01:38.345Z</time>
      </trkpt>
      <trkpt lat="45.61212" lon="2.78294">
        <ele>1479</ele>
        <time>2015-04-14T09:01:46.360Z</time>
      </trkpt>
      <trkpt lat="45.61212" lon="2.78292">
        <ele>1479</ele>
        <time>2015-04-14T09:01:47.149Z</time>
      </trkpt>
      <trkpt lat="45.61208" lon="2.78281">
        <ele>1479</ele>
        <time>2015-04-14T09:01:56.363Z</time>
      </trkpt>
      <trkpt lat="45.61207" lon="2.7828">
        <ele>1479</ele>
        <time>2015-04-14T09:01:57.106Z</time>
      </trkpt>
      <trkpt lat="45.61204" lon="2.78268">
        <ele>1481</ele>
        <time>2015-04-14T09:02:06.388Z</time>
      </trkpt>
      <trkpt lat="45.61204" lon="2.78267">
        <ele>1481</ele>
        <time>2015-04-14T09:02:07.155Z</time>
      </trkpt>
      <trkpt lat="45.612" lon="2.78256">
        <ele>1481</ele>
        <time>2015-04-14T09:02:15.306Z</time>
      </trkpt>
      <trkpt lat="45.61199" lon="2.78255">
        <ele>1481</ele>
        <time>2015-04-14T09:02:16.191Z</time>
      </trkpt>
      <trkpt lat="45.61195" lon="2.78244">
        <ele>1482</ele>
        <time>2015-04-14T09:02:25.156Z</time>
      </trkpt>
      <trkpt lat="45.61195" lon="2.78242">
        <ele>1482</ele>
        <time>2015-04-14T09:02:26.499Z</time>
      </trkpt>
      <trkpt lat="45.61191" lon="2.78232">
        <ele>1484</ele>
        <time>2015-04-14T09:02:34.249Z</time>
      </trkpt>
      <trkpt lat="45.61191" lon="2.7823">
        <ele>1484</ele>
        <time>2015-04-14T09:02:35.130Z</time>
      </trkpt>
      <trkpt lat="45.61187" lon="2.78219">
        <ele>1484</ele>
        <time>2015-04-14T09:02:44.252Z</time>
      </trkpt>
      <trkpt lat="45.61187" lon="2.78218">
        <ele>1484</ele>
        <time>2015-04-14T09:02:45.091Z</time>
      </trkpt>
      <trkpt lat="45.61184" lon="2.78206">
        <ele>1484</ele>
        <time>2015-04-14T09:02:53.137Z</time>
      </trkpt>
      <trkpt lat="45.61184" lon="2.78205">
        <ele>1485</ele>
        <time>2015-04-14T09:02:54.433Z</time>
      </trkpt>
      <trkpt lat="45.6118" lon="2.78193">
        <ele>1486</ele>
        <time>2015-04-14T09:03:03.139Z</time>
      </trkpt>
      <trkpt lat="45.6118" lon="2.78192">
        <ele>1486</ele>
        <time>2015-04-14T09:03:04.394Z</time>
      </trkpt>
      <trkpt lat="45.61177" lon="2.78181">
        <ele>1487</ele>
        <time>2015-04-14T09:03:12.367Z</time>
      </trkpt>
      <trkpt lat="45.61177" lon="2.78179">
        <ele>1487</ele>
        <time>2015-04-14T09:03:13.114Z</time>
      </trkpt>
      <trkpt lat="45.61174" lon="2.78168">
        <ele>1488</ele>
        <time>2015-04-14T09:03:21.360Z</time>
      </trkpt>
      <trkpt lat="45.61174" lon="2.78167">
        <ele>1488</ele>
        <time>2015-04-14T09:03:22.224Z</time>
      </trkpt>
      <trkpt lat="45.61171" lon="2.78156">
        <ele>1488</ele>
        <time>2015-04-14T09:03:30.175Z</time>
      </trkpt>
      <trkpt lat="45.61171" lon="2.78154">
        <ele>1488</ele>
        <time>2015-04-14T09:03:31.320Z</time>
      </trkpt>
      <trkpt lat="45.61168" lon="2.78143">
        <ele>1488</ele>
        <time>2015-04-14T09:03:38.169Z</time>
      </trkpt>
      <trkpt lat="45.61168" lon="2.78142">
        <ele>1489</ele>
        <time>2015-04-14T09:03:39.229Z</time>
      </trkpt>
      <trkpt lat="45.61165" lon="2.78131">
        <ele>1489</ele>
        <time>2015-04-14T09:03:47.308Z</time>
      </trkpt>
      <trkpt lat="45.61165" lon="2.78129">
        <ele>1489</ele>
        <time>2015-04-14T09:03:48.190Z</time>
      </trkpt>
      <trkpt lat="45.61162" lon="2.78117">
        <ele>1489</ele>
        <time>2015-04-14T09:03:56.134Z</time>
      </trkpt>
      <trkpt lat="45.61161" lon="2.78116">
        <ele>1489</ele>
        <time>2015-04-14T09:03:57.343Z</time>
      </trkpt>
      <trkpt lat="45.61159" lon="2.78105">
        <ele>1491</ele>
        <time>2015-04-14T09:04:04.410Z</time>
      </trkpt>
      <trkpt lat="45.61158" lon="2.78103">
        <ele>1491</ele>
        <time>2015-04-14T09:04:05.141Z</time>
      </trkpt>
      <trkpt lat="45.61157" lon="2.78091">
        <ele>1492</ele>
        <time>2015-04-14T09:04:13.386Z</time>
      </trkpt>
      <trkpt lat="45.61157" lon="2.7809">
        <ele>1491</ele>
        <time>2015-04-14T09:04:14.362Z</time>
      </trkpt>
      <trkpt lat="45.61158" lon="2.78078">
        <ele>1492</ele>
        <time>2015-04-14T09:04:22.073Z</time>
      </trkpt>
      <trkpt lat="45.61158" lon="2.78076">
        <ele>1491</ele>
        <time>2015-04-14T09:04:23.130Z</time>
      </trkpt>
      <trkpt lat="45.61161" lon="2.78065">
        <ele>1492</ele>
        <time>2015-04-14T09:04:31.142Z</time>
      </trkpt>
      <trkpt lat="45.61161" lon="2.78063">
        <ele>1493</ele>
        <time>2015-04-14T09:04:32.176Z</time>
      </trkpt>
      <trkpt lat="45.61164" lon="2.78052">
        <ele>1493</ele>
        <time>2015-04-14T09:04:40.155Z</time>
      </trkpt>
      <trkpt lat="45.61164" lon="2.78051">
        <ele>1494</ele>
        <time>2015-04-14T09:04:41.202Z</time>
      </trkpt>
      <trkpt lat="45.61167" lon="2.7804">
        <ele>1495</ele>
        <time>2015-04-14T09:04:49.389Z</time>
      </trkpt>
      <trkpt lat="45.61167" lon="2.78038">
        <ele>1495</ele>
        <time>2015-04-14T09:04:50.275Z</time>
      </trkpt>
      <trkpt lat="45.6117" lon="2.78027">
        <ele>1496</ele>
        <time>2015-04-14T09:04:58.386Z</time>
      </trkpt>
      <trkpt lat="45.61171" lon="2.78026">
        <ele>1496</ele>
        <time>2015-04-14T09:04:59.145Z</time>
      </trkpt>
      <trkpt lat="45.61174" lon="2.78015">
        <ele>1496</ele>
        <time>2015-04-14T09:05:07.258Z</time>
      </trkpt>
      <trkpt lat="45.61174" lon="2.78013">
        <ele>1496</ele>
        <time>2015-04-14T09:05:08.373Z</time>
      </trkpt>
      <trkpt lat="45.61179" lon="2.78004">
        <ele>1495</ele>
        <time>2015-04-14T09:05:15.105Z</time>
      </trkpt>
      <trkpt lat="45.61179" lon="2.78002">
        <ele>1494</ele>
        <time>2015-04-14T09:05:16.405Z</time>
      </trkpt>
      <trkpt lat="45.61183" lon="2.7799">
        <ele>1495</ele>
        <time>2015-04-14T09:05:23.190Z</time>
      </trkpt>
      <trkpt lat="45.61183" lon="2.77989">
        <ele>1496</ele>
        <time>2015-04-14T09:05:24.138Z</time>
      </trkpt>
      <trkpt lat="45.61186" lon="2.77977">
        <ele>1497</ele>
        <time>2015-04-14T09:05:32.318Z</time>
      </trkpt>
      <trkpt lat="45.61186" lon="2.77976">
        <ele>1496</ele>
        <time>2015-04-14T09:05:33.215Z</time>
      </trkpt>
      <trkpt lat="45.61189" lon="2.77964">
        <ele>1496</ele>
        <time>2015-04-14T09:05:40.195Z</time>
      </trkpt>
      <trkpt lat="45.61189" lon="2.77963">
        <ele>1496</ele>
        <time>2015-04-14T09:05:41.391Z</time>
      </trkpt>
      <trkpt lat="45.61192" lon="2.77952">
        <ele>1497</ele>
        <time>2015-04-14T09:05:48.088Z</time>
      </trkpt>
      <trkpt lat="45.61193" lon="2.77951">
        <ele>1497</ele>
        <time>2015-04-14T09:05:49.231Z</time>
      </trkpt>
      <trkpt lat="45.61197" lon="2.77941">
        <ele>1496</ele>
        <time>2015-04-14T09:05:56.277Z</time>
      </trkpt>
      <trkpt lat="45.61198" lon="2.77939">
        <ele>1497</ele>
        <time>2015-04-14T09:05:57.298Z</time>
      </trkpt>
      <trkpt lat="45.61201" lon="2.77928">
        <ele>1498</ele>
        <time>2015-04-14T09:06:05.329Z</time>
      </trkpt>
      <trkpt lat="45.61201" lon="2.77926">
        <ele>1497</ele>
        <time>2015-04-14T09:06:06.082Z</time>
      </trkpt>
      <trkpt lat="45.61206" lon="2.77916">
        <ele>1498</ele>
        <time>2015-04-14T09:06:15.280Z</time>
      </trkpt>
      <trkpt lat="45.61207" lon="2.77915">
        <ele>1498</ele>
        <time>2015-04-14T09:06:16.304Z</time>
      </trkpt>
      <trkpt lat="45.61211" lon="2.77904">
        <ele>1498</ele>
        <time>2015-04-14T09:06:24.160Z</time>
      </trkpt>
      <trkpt lat="45.61211" lon="2.77902">
        <ele>1498</ele>
        <time>2015-04-14T09:06:25.309Z</time>
      </trkpt>
      <trkpt lat="45.61216" lon="2.77893">
        <ele>1499</ele>
        <time>2015-04-14T09:06:33.348Z</time>
      </trkpt>
      <trkpt lat="45.61217" lon="2.77892">
        <ele>1499</ele>
        <time>2015-04-14T09:06:34.215Z</time>
      </trkpt>
      <trkpt lat="45.6122" lon="2.7788">
        <ele>1499</ele>
        <time>2015-04-14T09:06:43.361Z</time>
      </trkpt>
      <trkpt lat="45.61221" lon="2.77879">
        <ele>1499</ele>
        <time>2015-04-14T09:06:44.105Z</time>
      </trkpt>
      <trkpt lat="45.61225" lon="2.77869">
        <ele>1501</ele>
        <time>2015-04-14T09:06:53.239Z</time>
      </trkpt>
      <trkpt lat="45.61226" lon="2.77868">
        <ele>1502</ele>
        <time>2015-04-14T09:06:54.084Z</time>
      </trkpt>
      <trkpt lat="45.6123" lon="2.77858">
        <ele>1502</ele>
        <time>2015-04-14T09:07:01.095Z</time>
      </trkpt>
      <trkpt lat="45.61231" lon="2.77857">
        <ele>1502</ele>
        <time>2015-04-14T09:07:02.279Z</time>
      </trkpt>
      <trkpt lat="45.61235" lon="2.77846">
        <ele>1503</ele>
        <time>2015-04-14T09:07:09.141Z</time>
      </trkpt>
      <trkpt lat="45.61236" lon="2.77844">
        <ele>1503</ele>
        <time>2015-04-14T09:07:10.356Z</time>
      </trkpt>
      <trkpt lat="45.6124" lon="2.77834">
        <ele>1503</ele>
        <time>2015-04-14T09:07:17.094Z</time>
      </trkpt>
      <trkpt lat="45.6124" lon="2.77832">
        <ele>1504</ele>
        <time>2015-04-14T09:07:18.310Z</time>
      </trkpt>
      <trkpt lat="45.61244" lon="2.77822">
        <ele>1504</ele>
        <time>2015-04-14T09:07:25.100Z</time>
      </trkpt>
      <trkpt lat="45.61245" lon="2.77821">
        <ele>1504</ele>
        <time>2015-04-14T09:07:26.189Z</time>
      </trkpt>
      <trkpt lat="45.6125" lon="2.77811">
        <ele>1504</ele>
        <time>2015-04-14T09:07:33.193Z</time>
      </trkpt>
      <trkpt lat="45.6125" lon="2.77809">
        <ele>1504</ele>
        <time>2015-04-14T09:07:34.289Z</time>
      </trkpt>
      <trkpt lat="45.61255" lon="2.77799">
        <ele>1503</ele>
        <time>2015-04-14T09:07:41.191Z</time>
      </trkpt>
      <trkpt lat="45.61255" lon="2.77797">
        <ele>1503</ele>
        <time>2015-04-14T09:07:42.331Z</time>
      </trkpt>
      <trkpt lat="45.61259" lon="2.77787">
        <ele>1502</ele>
        <time>2015-04-14T09:07:49.480Z</time>
      </trkpt>
      <trkpt lat="45.6126" lon="2.77785">
        <ele>1502</ele>
        <time>2015-04-14T09:07:50.132Z</time>
      </trkpt>
      <trkpt lat="45.61265" lon="2.77775">
        <ele>1502</ele>
        <time>2015-04-14T09:07:57.238Z</time>
      </trkpt>
      <trkpt lat="45.61265" lon="2.77773">
        <ele>1502</ele>
        <time>2015-04-14T09:07:58.200Z</time>
      </trkpt>
      <trkpt lat="45.6127" lon="2.77763">
        <ele>1502</ele>
        <time>2015-04-14T09:08:05.357Z</time>
      </trkpt>
      <trkpt lat="45.61271" lon="2.77762">
        <ele>1502</ele>
        <time>2015-04-14T09:08:06.138Z</time>
      </trkpt>
      <trkpt lat="45.61276" lon="2.77752">
        <ele>1503</ele>
        <time>2015-04-14T09:08:13.310Z</time>
      </trkpt>
      <trkpt lat="45.61276" lon="2.7775">
        <ele>1503</ele>
        <time>2015-04-14T09:08:14.152Z</time>
      </trkpt>
      <trkpt lat="45.61281" lon="2.7774">
        <ele>1505</ele>
        <time>2015-04-14T09:08:22.452Z</time>
      </trkpt>
      <trkpt lat="45.61282" lon="2.77739">
        <ele>1505</ele>
        <time>2015-04-14T09:08:23.141Z</time>
      </trkpt>
      <trkpt lat="45.61288" lon="2.7773">
        <ele>1505</ele>
        <time>2015-04-14T09:08:31.169Z</time>
      </trkpt>
      <trkpt lat="45.61288" lon="2.77729">
        <ele>1504</ele>
        <time>2015-04-14T09:08:32.290Z</time>
      </trkpt>
      <trkpt lat="45.61296" lon="2.77723">
        <ele>1504</ele>
        <time>2015-04-14T09:08:41.120Z</time>
      </trkpt>
      <trkpt lat="45.61296" lon="2.77722">
        <ele>1504</ele>
        <time>2015-04-14T09:08:42.270Z</time>
      </trkpt>
      <trkpt lat="45.61303" lon="2.77714">
        <ele>1506</ele>
        <time>2015-04-14T09:08:50.260Z</time>
      </trkpt>
      <trkpt lat="45.61303" lon="2.77713">
        <ele>1505</ele>
        <time>2015-04-14T09:08:51.163Z</time>
      </trkpt>
      <trkpt lat="45.61302" lon="2.77701">
        <ele>1505</ele>
        <time>2015-04-14T09:08:58.289Z</time>
      </trkpt>
      <trkpt lat="45.61302" lon="2.77699">
        <ele>1506</ele>
        <time>2015-04-14T09:08:59.111Z</time>
      </trkpt>
      <trkpt lat="45.61298" lon="2.77689">
        <ele>1506</ele>
        <time>2015-04-14T09:09:06.159Z</time>
      </trkpt>
      <trkpt lat="45.61298" lon="2.77687">
        <ele>1506</ele>
        <time>2015-04-14T09:09:07.337Z</time>
      </trkpt>
      <trkpt lat="45.61294" lon="2.77677">
        <ele>1507</ele>
        <time>2015-04-14T09:09:14.223Z</time>
      </trkpt>
      <trkpt lat="45.61294" lon="2.77676">
        <ele>1508</ele>
        <time>2015-04-14T09:09:15.376Z</time>
      </trkpt>
      <trkpt lat="45.61292" lon="2.77664">
        <ele>1509</ele>
        <time>2015-04-14T09:09:23.117Z</time>
      </trkpt>
      <trkpt lat="45.61291" lon="2.77662">
        <ele>1510</ele>
        <time>2015-04-14T09:09:24.223Z</time>
      </trkpt>
      <trkpt lat="45.61289" lon="2.77651">
        <ele>1511</ele>
        <time>2015-04-14T09:09:32.414Z</time>
      </trkpt>
      <trkpt lat="45.61289" lon="2.7765">
        <ele>1511</ele>
        <time>2015-04-14T09:09:33.127Z</time>
      </trkpt>
      <trkpt lat="45.61283" lon="2.77641">
        <ele>1511</ele>
        <time>2015-04-14T09:09:44.356Z</time>
      </trkpt>
      <trkpt lat="45.61283" lon="2.7764">
        <ele>1512</ele>
        <time>2015-04-14T09:09:45.075Z</time>
      </trkpt>
      <trkpt lat="45.61274" lon="2.77637">
        <ele>1511</ele>
        <time>2015-04-14T09:09:55.075Z</time>
      </trkpt>
      <trkpt lat="45.61274" lon="2.77637">
        <ele>1511</ele>
        <time>2015-04-14T09:09:56.329Z</time>
      </trkpt>
      <trkpt lat="45.61271" lon="2.77626">
        <ele>1511</ele>
        <time>2015-04-14T09:11:16.147Z</time>
      </trkpt>
      <trkpt lat="45.6127" lon="2.77625">
        <ele>1511</ele>
        <time>2015-04-14T09:11:17.244Z</time>
      </trkpt>
      <trkpt lat="45.61267" lon="2.77613">
        <ele>1508</ele>
        <time>2015-04-14T09:11:27.313Z</time>
      </trkpt>
      <trkpt lat="45.61266" lon="2.77612">
        <ele>1508</ele>
        <time>2015-04-14T09:11:28.182Z</time>
      </trkpt>
      <trkpt lat="45.61263" lon="2.77601">
        <ele>1508</ele>
        <time>2015-04-14T09:11:35.138Z</time>
      </trkpt>
      <trkpt lat="45.61262" lon="2.77599">
        <ele>1508</ele>
        <time>2015-04-14T09:11:36.307Z</time>
      </trkpt>
      <trkpt lat="45.61257" lon="2.77589">
        <ele>1509</ele>
        <time>2015-04-14T09:11:43.143Z</time>
      </trkpt>
      <trkpt lat="45.61257" lon="2.77587">
        <ele>1508</ele>
        <time>2015-04-14T09:11:44.369Z</time>
      </trkpt>
      <trkpt lat="45.61254" lon="2.77576">
        <ele>1509</ele>
        <time>2015-04-14T09:11:51.149Z</time>
      </trkpt>
      <trkpt lat="45.61253" lon="2.77574">
        <ele>1509</ele>
        <time>2015-04-14T09:11:52.344Z</time>
      </trkpt>
      <trkpt lat="45.61248" lon="2.77565">
        <ele>1508</ele>
        <time>2015-04-14T09:11:59.176Z</time>
      </trkpt>
      <trkpt lat="45.61248" lon="2.77564">
        <ele>1508</ele>
        <time>2015-04-14T09:12:00.624Z</time>
      </trkpt>
      <trkpt lat="45.61245" lon="2.77553">
        <ele>1509</ele>
        <time>2015-04-14T09:12:07.344Z</time>
      </trkpt>
      <trkpt lat="45.61244" lon="2.77551">
        <ele>1509</ele>
        <time>2015-04-14T09:12:08.288Z</time>
      </trkpt>
      <trkpt lat="45.61243" lon="2.77539">
        <ele>1508</ele>
        <time>2015-04-14T09:12:15.260Z</time>
      </trkpt>
      <trkpt lat="45.61242" lon="2.77537">
        <ele>1508</ele>
        <time>2015-04-14T09:12:16.250Z</time>
      </trkpt>
      <trkpt lat="45.61241" lon="2.77525">
        <ele>1510</ele>
        <time>2015-04-14T09:12:23.262Z</time>
      </trkpt>
      <trkpt lat="45.6124" lon="2.77524">
        <ele>1510</ele>
        <time>2015-04-14T09:12:24.201Z</time>
      </trkpt>
      <trkpt lat="45.61238" lon="2.77512">
        <ele>1512</ele>
        <time>2015-04-14T09:12:31.370Z</time>
      </trkpt>
      <trkpt lat="45.61238" lon="2.77511">
        <ele>1512</ele>
        <time>2015-04-14T09:12:32.111Z</time>
      </trkpt>
      <trkpt lat="45.61235" lon="2.77499">
        <ele>1513</ele>
        <time>2015-04-14T09:12:39.305Z</time>
      </trkpt>
      <trkpt lat="45.61235" lon="2.77498">
        <ele>1513</ele>
        <time>2015-04-14T09:12:40.126Z</time>
      </trkpt>
      <trkpt lat="45.61232" lon="2.77486">
        <ele>1514</ele>
        <time>2015-04-14T09:12:47.077Z</time>
      </trkpt>
      <trkpt lat="45.61232" lon="2.77485">
        <ele>1514</ele>
        <time>2015-04-14T09:12:48.297Z</time>
      </trkpt>
      <trkpt lat="45.61231" lon="2.77473">
        <ele>1515</ele>
        <time>2015-04-14T09:12:55.160Z</time>
      </trkpt>
      <trkpt lat="45.61231" lon="2.77472">
        <ele>1515</ele>
        <time>2015-04-14T09:12:56.382Z</time>
      </trkpt>
      <trkpt lat="45.61229" lon="2.7746">
        <ele>1514</ele>
        <time>2015-04-14T09:13:04.437Z</time>
      </trkpt>
      <trkpt lat="45.61229" lon="2.77459">
        <ele>1515</ele>
        <time>2015-04-14T09:13:05.302Z</time>
      </trkpt>
      <trkpt lat="45.61226" lon="2.77447">
        <ele>1515</ele>
        <time>2015-04-14T09:13:13.298Z</time>
      </trkpt>
      <trkpt lat="45.61225" lon="2.77445">
        <ele>1515</ele>
        <time>2015-04-14T09:13:14.074Z</time>
      </trkpt>
      <trkpt lat="45.61222" lon="2.77434">
        <ele>1517</ele>
        <time>2015-04-14T09:13:22.146Z</time>
      </trkpt>
      <trkpt lat="45.61221" lon="2.77433">
        <ele>1518</ele>
        <time>2015-04-14T09:13:23.296Z</time>
      </trkpt>
      <trkpt lat="45.61218" lon="2.77421">
        <ele>1520</ele>
        <time>2015-04-14T09:13:32.272Z</time>
      </trkpt>
      <trkpt lat="45.61218" lon="2.77419">
        <ele>1520</ele>
        <time>2015-04-14T09:13:33.072Z</time>
      </trkpt>
      <trkpt lat="45.61216" lon="2.77407">
        <ele>1519</ele>
        <time>2015-04-14T09:13:42.202Z</time>
      </trkpt>
      <trkpt lat="45.61216" lon="2.77406">
        <ele>1519</ele>
        <time>2015-04-14T09:13:43.344Z</time>
      </trkpt>
      <trkpt lat="45.61214" lon="2.77394">
        <ele>1520</ele>
        <time>2015-04-14T09:13:52.086Z</time>
      </trkpt>
      <trkpt lat="45.61214" lon="2.77393">
        <ele>1520</ele>
        <time>2015-04-14T09:13:53.345Z</time>
      </trkpt>
      <trkpt lat="45.61212" lon="2.77381">
        <ele>1521</ele>
        <time>2015-04-14T09:14:02.170Z</time>
      </trkpt>
      <trkpt lat="45.61212" lon="2.77379">
        <ele>1521</ele>
        <time>2015-04-14T09:14:03.338Z</time>
      </trkpt>
      <trkpt lat="45.61211" lon="2.77368">
        <ele>1523</ele>
        <time>2015-04-14T09:14:12.409Z</time>
      </trkpt>
      <trkpt lat="45.61212" lon="2.77366">
        <ele>1524</ele>
        <time>2015-04-14T09:14:13.172Z</time>
      </trkpt>
      <trkpt lat="45.61212" lon="2.77354">
        <ele>1522</ele>
        <time>2015-04-14T09:14:22.753Z</time>
      </trkpt>
      <trkpt lat="45.61212" lon="2.77352">
        <ele>1521</ele>
        <time>2015-04-14T09:14:23.070Z</time>
      </trkpt>
      <trkpt lat="45.61212" lon="2.7734">
        <ele>1524</ele>
        <time>2015-04-14T09:14:34.313Z</time>
      </trkpt>
      <trkpt lat="45.61211" lon="2.77338">
        <ele>1524</ele>
        <time>2015-04-14T09:14:35.283Z</time>
      </trkpt>
      <trkpt lat="45.61207" lon="2.77328">
        <ele>1523</ele>
        <time>2015-04-14T09:14:47.376Z</time>
      </trkpt>
      <trkpt lat="45.61207" lon="2.77327">
        <ele>1523</ele>
        <time>2015-04-14T09:14:48.126Z</time>
      </trkpt>
      <trkpt lat="45.61205" lon="2.77314">
        <ele>1523</ele>
        <time>2015-04-14T09:15:00.342Z</time>
      </trkpt>
      <trkpt lat="45.61205" lon="2.77313">
        <ele>1523</ele>
        <time>2015-04-14T09:15:01.070Z</time>
      </trkpt>
      <trkpt lat="45.61202" lon="2.77301">
        <ele>1524</ele>
        <time>2015-04-14T09:15:12.165Z</time>
      </trkpt>
      <trkpt lat="45.61202" lon="2.773">
        <ele>1524</ele>
        <time>2015-04-14T09:15:13.174Z</time>
      </trkpt>
      <trkpt lat="45.612" lon="2.77288">
        <ele>1524</ele>
        <time>2015-04-14T09:15:23.271Z</time>
      </trkpt>
      <trkpt lat="45.61199" lon="2.77287">
        <ele>1525</ele>
        <time>2015-04-14T09:15:24.261Z</time>
      </trkpt>
      <trkpt lat="45.61196" lon="2.77276">
        <ele>1528</ele>
        <time>2015-04-14T09:15:36.068Z</time>
      </trkpt>
      <trkpt lat="45.61196" lon="2.77275">
        <ele>1528</ele>
        <time>2015-04-14T09:15:37.069Z</time>
      </trkpt>
      <trkpt lat="45.61192" lon="2.77264">
        <ele>1528</ele>
        <time>2015-04-14T09:15:56.139Z</time>
      </trkpt>
      <trkpt lat="45.61191" lon="2.77263">
        <ele>1528</ele>
        <time>2015-04-14T09:15:57.252Z</time>
      </trkpt>
      <trkpt lat="45.6119" lon="2.7725">
        <ele>1525</ele>
        <time>2015-04-14T09:16:05.436Z</time>
      </trkpt>
      <trkpt lat="45.6119" lon="2.77248">
        <ele>1526</ele>
        <time>2015-04-14T09:16:06.127Z</time>
      </trkpt>
      <trkpt lat="45.61191" lon="2.77236">
        <ele>1528</ele>
        <time>2015-04-14T09:16:14.147Z</time>
      </trkpt>
      <trkpt lat="45.61191" lon="2.77235">
        <ele>1528</ele>
        <time>2015-04-14T09:16:15.147Z</time>
      </trkpt>
      <trkpt lat="45.6119" lon="2.77222">
        <ele>1528</ele>
        <time>2015-04-14T09:16:24.178Z</time>
      </trkpt>
      <trkpt lat="45.6119" lon="2.77221">
        <ele>1528</ele>
        <time>2015-04-14T09:16:25.201Z</time>
      </trkpt>
      <trkpt lat="45.61188" lon="2.77209">
        <ele>1528</ele>
        <time>2015-04-14T09:16:36.248Z</time>
      </trkpt>
      <trkpt lat="45.61188" lon="2.77208">
        <ele>1526</ele>
        <time>2015-04-14T09:16:37.269Z</time>
      </trkpt>
      <trkpt lat="45.61185" lon="2.77196">
        <ele>1525</ele>
        <time>2015-04-14T09:16:47.274Z</time>
      </trkpt>
      <trkpt lat="45.61185" lon="2.77194">
        <ele>1525</ele>
        <time>2015-04-14T09:16:48.460Z</time>
      </trkpt>
      <trkpt lat="45.6118" lon="2.77184">
        <ele>1527</ele>
        <time>2015-04-14T09:16:56.470Z</time>
      </trkpt>
      <trkpt lat="45.6118" lon="2.77183">
        <ele>1528</ele>
        <time>2015-04-14T09:16:57.204Z</time>
      </trkpt>
      <trkpt lat="45.61176" lon="2.77172">
        <ele>1528</ele>
        <time>2015-04-14T09:17:05.303Z</time>
      </trkpt>
      <trkpt lat="45.61176" lon="2.77171">
        <ele>1528</ele>
        <time>2015-04-14T09:17:06.183Z</time>
      </trkpt>
      <trkpt lat="45.61172" lon="2.7716">
        <ele>1524</ele>
        <time>2015-04-14T09:17:17.245Z</time>
      </trkpt>
      <trkpt lat="45.61171" lon="2.77159">
        <ele>1524</ele>
        <time>2015-04-14T09:17:18.347Z</time>
      </trkpt>
      <trkpt lat="45.61164" lon="2.77152">
        <ele>1523</ele>
        <time>2015-04-14T09:17:30.212Z</time>
      </trkpt>
      <trkpt lat="45.61164" lon="2.77151">
        <ele>1523</ele>
        <time>2015-04-14T09:17:31.362Z</time>
      </trkpt>
      <trkpt lat="45.61156" lon="2.77145">
        <ele>1523</ele>
        <time>2015-04-14T09:17:41.265Z</time>
      </trkpt>
      <trkpt lat="45.61155" lon="2.77145">
        <ele>1524</ele>
        <time>2015-04-14T09:17:42.412Z</time>
      </trkpt>
      <trkpt lat="45.61156" lon="2.77157">
        <ele>1525</ele>
        <time>2015-04-14T09:18:23.458Z</time>
      </trkpt>
      <trkpt lat="45.61156" lon="2.77158">
        <ele>1525</ele>
        <time>2015-04-14T09:18:24.237Z</time>
      </trkpt>
      <trkpt lat="45.61158" lon="2.7717">
        <ele>1526</ele>
        <time>2015-04-14T09:18:36.258Z</time>
      </trkpt>
      <trkpt lat="45.61159" lon="2.7717">
        <ele>1528</ele>
        <time>2015-04-14T09:18:37.469Z</time>
      </trkpt>
      <trkpt lat="45.61161" lon="2.77182">
        <ele>1535</ele>
        <time>2015-04-14T09:18:56.455Z</time>
      </trkpt>
      <trkpt lat="45.61161" lon="2.77183">
        <ele>1536</ele>
        <time>2015-04-14T09:18:57.243Z</time>
      </trkpt>
      <trkpt lat="45.61161" lon="2.77195">
        <ele>1539</ele>
        <time>2015-04-14T09:19:10.365Z</time>
      </trkpt>
      <trkpt lat="45.61161" lon="2.77196">
        <ele>1539</ele>
        <time>2015-04-14T09:19:11.190Z</time>
      </trkpt>
      <trkpt lat="45.61163" lon="2.77208">
        <ele>1542</ele>
        <time>2015-04-14T09:19:25.359Z</time>
      </trkpt>
      <trkpt lat="45.61163" lon="2.77209">
        <ele>1542</ele>
        <time>2015-04-14T09:19:26.405Z</time>
      </trkpt>
      <trkpt lat="45.61156" lon="2.77201">
        <ele>1540</ele>
        <time>2015-04-14T09:20:11.351Z</time>
      </trkpt>
      <trkpt lat="45.61155" lon="2.772">
        <ele>1540</ele>
        <time>2015-04-14T09:20:12.214Z</time>
      </trkpt>
      <trkpt lat="45.61147" lon="2.77196">
        <ele>1545</ele>
        <time>2015-04-14T09:20:24.529Z</time>
      </trkpt>
      <trkpt lat="45.61147" lon="2.77196">
        <ele>1543</ele>
        <time>2015-04-14T09:20:25.212Z</time>
      </trkpt>
      <trkpt lat="45.61138" lon="2.77191">
        <ele>1545</ele>
        <time>2015-04-14T09:20:39.418Z</time>
      </trkpt>
      <trkpt lat="45.61138" lon="2.7719">
        <ele>1545</ele>
        <time>2015-04-14T09:20:40.147Z</time>
      </trkpt>
      <trkpt lat="45.61129" lon="2.77187">
        <ele>1548</ele>
        <time>2015-04-14T09:20:55.572Z</time>
      </trkpt>
      <trkpt lat="45.61128" lon="2.77188">
        <ele>1548</ele>
        <time>2015-04-14T09:20:56.146Z</time>
      </trkpt>
      <trkpt lat="45.61122" lon="2.77195">
        <ele>1550</ele>
        <time>2015-04-14T09:21:06.360Z</time>
      </trkpt>
      <trkpt lat="45.61121" lon="2.77196">
        <ele>1550</ele>
        <time>2015-04-14T09:21:07.276Z</time>
      </trkpt>
      <trkpt lat="45.6112" lon="2.77208">
        <ele>1554</ele>
        <time>2015-04-14T09:21:18.146Z</time>
      </trkpt>
      <trkpt lat="45.6112" lon="2.7721">
        <ele>1554</ele>
        <time>2015-04-14T09:21:19.850Z</time>
      </trkpt>
      <trkpt lat="45.6112" lon="2.77222">
        <ele>1557</ele>
        <time>2015-04-14T09:21:28.148Z</time>
      </trkpt>
      <trkpt lat="45.61121" lon="2.77223">
        <ele>1557</ele>
        <time>2015-04-14T09:21:29.430Z</time>
      </trkpt>
      <trkpt lat="45.61123" lon="2.77235">
        <ele>1559</ele>
        <time>2015-04-14T09:21:37.381Z</time>
      </trkpt>
      <trkpt lat="45.61123" lon="2.77236">
        <ele>1559</ele>
        <time>2015-04-14T09:21:38.233Z</time>
      </trkpt>
      <trkpt lat="45.61125" lon="2.77248">
        <ele>1560</ele>
        <time>2015-04-14T09:21:48.320Z</time>
      </trkpt>
      <trkpt lat="45.61125" lon="2.77249">
        <ele>1560</ele>
        <time>2015-04-14T09:21:49.271Z</time>
      </trkpt>
      <trkpt lat="45.61119" lon="2.77258">
        <ele>1562</ele>
        <time>2015-04-14T09:22:08.332Z</time>
      </trkpt>
      <trkpt lat="45.61118" lon="2.77258">
        <ele>1562</ele>
        <time>2015-04-14T09:22:09.271Z</time>
      </trkpt>
      <trkpt lat="45.61126" lon="2.77252">
        <ele>1558</ele>
        <time>2015-04-14T09:29:41.681Z</time>
      </trkpt>
      <trkpt lat="45.61126" lon="2.77252">
        <ele>1558</ele>
        <time>2015-04-14T09:29:42.330Z</time>
      </trkpt>
      <trkpt lat="45.61124" lon="2.7724">
        <ele>1559</ele>
        <time>2015-04-14T09:30:34.498Z</time>
      </trkpt>
      <trkpt lat="45.61124" lon="2.77239">
        <ele>1559</ele>
        <time>2015-04-14T09:30:35.566Z</time>
      </trkpt>
      <trkpt lat="45.61122" lon="2.77228">
        <ele>1561</ele>
        <time>2015-04-14T09:30:46.653Z</time>
      </trkpt>
      <trkpt lat="45.61121" lon="2.77226">
        <ele>1561</ele>
        <time>2015-04-14T09:30:47.485Z</time>
      </trkpt>
      <trkpt lat="45.6112" lon="2.77214">
        <ele>1558</ele>
        <time>2015-04-14T09:31:04.639Z</time>
      </trkpt>
      <trkpt lat="45.6112" lon="2.77213">
        <ele>1558</ele>
        <time>2015-04-14T09:31:05.447Z</time>
      </trkpt>
      <trkpt lat="45.6112" lon="2.77201">
        <ele>1556</ele>
        <time>2015-04-14T09:31:53.439Z</time>
      </trkpt>
      <trkpt lat="45.6112" lon="2.772">
        <ele>1556</ele>
        <time>2015-04-14T09:31:54.635Z</time>
      </trkpt>
      <trkpt lat="45.61125" lon="2.77189">
        <ele>1555</ele>
        <time>2015-04-14T09:32:07.575Z</time>
      </trkpt>
      <trkpt lat="45.61125" lon="2.77189">
        <ele>1555</ele>
        <time>2015-04-14T09:32:08.415Z</time>
      </trkpt>
      <trkpt lat="45.61133" lon="2.77183">
        <ele>1555</ele>
        <time>2015-04-14T09:32:22.378Z</time>
      </trkpt>
      <trkpt lat="45.61134" lon="2.77183">
        <ele>1555</ele>
        <time>2015-04-14T09:32:23.713Z</time>
      </trkpt>
      <trkpt lat="45.61141" lon="2.77189">
        <ele>1555</ele>
        <time>2015-04-14T09:32:32.421Z</time>
      </trkpt>
      <trkpt lat="45.61142" lon="2.77189">
        <ele>1555</ele>
        <time>2015-04-14T09:32:33.591Z</time>
      </trkpt>
      <trkpt lat="45.61149" lon="2.77197">
        <ele>1555</ele>
        <time>2015-04-14T09:32:42.546Z</time>
      </trkpt>
      <trkpt lat="45.6115" lon="2.77197">
        <ele>1555</ele>
        <time>2015-04-14T09:32:43.396Z</time>
      </trkpt>
      <trkpt lat="45.61156" lon="2.77205">
        <ele>1553</ele>
        <time>2015-04-14T09:32:52.629Z</time>
      </trkpt>
      <trkpt lat="45.61157" lon="2.77205">
        <ele>1552</ele>
        <time>2015-04-14T09:32:53.412Z</time>
      </trkpt>
      <trkpt lat="45.61163" lon="2.77214">
        <ele>1550</ele>
        <time>2015-04-14T09:33:04.470Z</time>
      </trkpt>
      <trkpt lat="45.61164" lon="2.77215">
        <ele>1550</ele>
        <time>2015-04-14T09:33:05.702Z</time>
      </trkpt>
      <trkpt lat="45.61164" lon="2.77202">
        <ele>1547</ele>
        <time>2015-04-14T09:33:16.594Z</time>
      </trkpt>
      <trkpt lat="45.61163" lon="2.77201">
        <ele>1547</ele>
        <time>2015-04-14T09:33:17.683Z</time>
      </trkpt>
      <trkpt lat="45.61164" lon="2.77189">
        <ele>1543</ele>
        <time>2015-04-14T09:33:29.551Z</time>
      </trkpt>
      <trkpt lat="45.61164" lon="2.77188">
        <ele>1543</ele>
        <time>2015-04-14T09:33:30.548Z</time>
      </trkpt>
      <trkpt lat="45.61162" lon="2.77175">
        <ele>1539</ele>
        <time>2015-04-14T09:33:40.562Z</time>
      </trkpt>
      <trkpt lat="45.61162" lon="2.77174">
        <ele>1539</ele>
        <time>2015-04-14T09:33:41.429Z</time>
      </trkpt>
      <trkpt lat="45.61158" lon="2.77163">
        <ele>1537</ele>
        <time>2015-04-14T09:33:52.617Z</time>
      </trkpt>
      <trkpt lat="45.61158" lon="2.77162">
        <ele>1536</ele>
        <time>2015-04-14T09:33:53.469Z</time>
      </trkpt>
      <trkpt lat="45.61153" lon="2.77151">
        <ele>1535</ele>
        <time>2015-04-14T09:34:02.520Z</time>
      </trkpt>
      <trkpt lat="45.61152" lon="2.7715">
        <ele>1535</ele>
        <time>2015-04-14T09:34:03.473Z</time>
      </trkpt>
      <trkpt lat="45.6116" lon="2.77147">
        <ele>1533</ele>
        <time>2015-04-14T09:34:27.565Z</time>
      </trkpt>
      <trkpt lat="45.61161" lon="2.77148">
        <ele>1532</ele>
        <time>2015-04-14T09:34:28.404Z</time>
      </trkpt>
      <trkpt lat="45.61169" lon="2.77152">
        <ele>1535</ele>
        <time>2015-04-14T09:34:38.559Z</time>
      </trkpt>
      <trkpt lat="45.6117" lon="2.77153">
        <ele>1535</ele>
        <time>2015-04-14T09:34:39.427Z</time>
      </trkpt>
      <trkpt lat="45.61175" lon="2.77162">
        <ele>1535</ele>
        <time>2015-04-14T09:34:49.590Z</time>
      </trkpt>
      <trkpt lat="45.61176" lon="2.77164">
        <ele>1536</ele>
        <time>2015-04-14T09:34:50.611Z</time>
      </trkpt>
      <trkpt lat="45.61178" lon="2.77175">
        <ele>1534</ele>
        <time>2015-04-14T09:34:58.451Z</time>
      </trkpt>
      <trkpt lat="45.61179" lon="2.77176">
        <ele>1534</ele>
        <time>2015-04-14T09:34:59.467Z</time>
      </trkpt>
      <trkpt lat="45.61181" lon="2.77187">
        <ele>1534</ele>
        <time>2015-04-14T09:35:06.548Z</time>
      </trkpt>
      <trkpt lat="45.61182" lon="2.77189">
        <ele>1535</ele>
        <time>2015-04-14T09:35:07.536Z</time>
      </trkpt>
      <trkpt lat="45.61186" lon="2.77199">
        <ele>1533</ele>
        <time>2015-04-14T09:35:15.626Z</time>
      </trkpt>
      <trkpt lat="45.61186" lon="2.772">
        <ele>1533</ele>
        <time>2015-04-14T09:35:16.638Z</time>
      </trkpt>
      <trkpt lat="45.61187" lon="2.77212">
        <ele>1533</ele>
        <time>2015-04-14T09:35:24.529Z</time>
      </trkpt>
      <trkpt lat="45.61187" lon="2.77214">
        <ele>1533</ele>
        <time>2015-04-14T09:35:25.448Z</time>
      </trkpt>
      <trkpt lat="45.61189" lon="2.77226">
        <ele>1535</ele>
        <time>2015-04-14T09:35:33.407Z</time>
      </trkpt>
      <trkpt lat="45.61189" lon="2.77227">
        <ele>1535</ele>
        <time>2015-04-14T09:35:34.544Z</time>
      </trkpt>
      <trkpt lat="45.61189" lon="2.77239">
        <ele>1534</ele>
        <time>2015-04-14T09:35:43.437Z</time>
      </trkpt>
      <trkpt lat="45.61189" lon="2.7724">
        <ele>1535</ele>
        <time>2015-04-14T09:35:44.442Z</time>
      </trkpt>
      <trkpt lat="45.61189" lon="2.77252">
        <ele>1533</ele>
        <time>2015-04-14T09:35:53.609Z</time>
      </trkpt>
      <trkpt lat="45.61189" lon="2.77254">
        <ele>1533</ele>
        <time>2015-04-14T09:35:54.444Z</time>
      </trkpt>
      <trkpt lat="45.61192" lon="2.77265">
        <ele>1534</ele>
        <time>2015-04-14T09:36:02.432Z</time>
      </trkpt>
      <trkpt lat="45.61192" lon="2.77267">
        <ele>1533</ele>
        <time>2015-04-14T09:36:03.580Z</time>
      </trkpt>
      <trkpt lat="45.61194" lon="2.77279">
        <ele>1533</ele>
        <time>2015-04-14T09:36:13.682Z</time>
      </trkpt>
      <trkpt lat="45.61195" lon="2.7728">
        <ele>1533</ele>
        <time>2015-04-14T09:36:14.419Z</time>
      </trkpt>
      <trkpt lat="45.61197" lon="2.77292">
        <ele>1530</ele>
        <time>2015-04-14T09:36:26.583Z</time>
      </trkpt>
      <trkpt lat="45.61198" lon="2.77293">
        <ele>1530</ele>
        <time>2015-04-14T09:36:27.420Z</time>
      </trkpt>
      <trkpt lat="45.61202" lon="2.77304">
        <ele>1528</ele>
        <time>2015-04-14T09:36:37.464Z</time>
      </trkpt>
      <trkpt lat="45.61202" lon="2.77305">
        <ele>1528</ele>
        <time>2015-04-14T09:36:38.345Z</time>
      </trkpt>
      <trkpt lat="45.61204" lon="2.77317">
        <ele>1526</ele>
        <time>2015-04-14T09:36:48.568Z</time>
      </trkpt>
      <trkpt lat="45.61204" lon="2.77318">
        <ele>1526</ele>
        <time>2015-04-14T09:36:49.454Z</time>
      </trkpt>
      <trkpt lat="45.6121" lon="2.77327">
        <ele>1524</ele>
        <time>2015-04-14T09:36:59.531Z</time>
      </trkpt>
      <trkpt lat="45.61211" lon="2.77328">
        <ele>1524</ele>
        <time>2015-04-14T09:37:00.502Z</time>
      </trkpt>
      <trkpt lat="45.61214" lon="2.77339">
        <ele>1523</ele>
        <time>2015-04-14T09:37:08.468Z</time>
      </trkpt>
      <trkpt lat="45.61214" lon="2.77341">
        <ele>1522</ele>
        <time>2015-04-14T09:37:09.536Z</time>
      </trkpt>
      <trkpt lat="45.61213" lon="2.77353">
        <ele>1521</ele>
        <time>2015-04-14T09:37:20.572Z</time>
      </trkpt>
      <trkpt lat="45.61213" lon="2.77355">
        <ele>1521</ele>
        <time>2015-04-14T09:37:21.393Z</time>
      </trkpt>
      <trkpt lat="45.61213" lon="2.77367">
        <ele>1520</ele>
        <time>2015-04-14T09:37:30.485Z</time>
      </trkpt>
      <trkpt lat="45.61214" lon="2.77368">
        <ele>1520</ele>
        <time>2015-04-14T09:37:31.533Z</time>
      </trkpt>
      <trkpt lat="45.61215" lon="2.7738">
        <ele>1519</ele>
        <time>2015-04-14T09:37:39.648Z</time>
      </trkpt>
      <trkpt lat="45.61215" lon="2.77381">
        <ele>1519</ele>
        <time>2015-04-14T09:37:40.455Z</time>
      </trkpt>
      <trkpt lat="45.61218" lon="2.77392">
        <ele>1519</ele>
        <time>2015-04-14T09:37:47.451Z</time>
      </trkpt>
      <trkpt lat="45.61219" lon="2.77394">
        <ele>1519</ele>
        <time>2015-04-14T09:37:48.479Z</time>
      </trkpt>
      <trkpt lat="45.61221" lon="2.77405">
        <ele>1516</ele>
        <time>2015-04-14T09:37:56.465Z</time>
      </trkpt>
      <trkpt lat="45.61222" lon="2.77406">
        <ele>1516</ele>
        <time>2015-04-14T09:37:57.425Z</time>
      </trkpt>
      <trkpt lat="45.61221" lon="2.77418">
        <ele>1514</ele>
        <time>2015-04-14T09:38:05.649Z</time>
      </trkpt>
      <trkpt lat="45.61221" lon="2.77419">
        <ele>1514</ele>
        <time>2015-04-14T09:38:06.370Z</time>
      </trkpt>
      <trkpt lat="45.61225" lon="2.7743">
        <ele>1514</ele>
        <time>2015-04-14T09:38:13.562Z</time>
      </trkpt>
      <trkpt lat="45.61226" lon="2.77431">
        <ele>1513</ele>
        <time>2015-04-14T09:38:14.366Z</time>
      </trkpt>
      <trkpt lat="45.61228" lon="2.77442">
        <ele>1512</ele>
        <time>2015-04-14T09:38:21.684Z</time>
      </trkpt>
      <trkpt lat="45.61228" lon="2.77444">
        <ele>1513</ele>
        <time>2015-04-14T09:38:22.390Z</time>
      </trkpt>
      <trkpt lat="45.61231" lon="2.77454">
        <ele>1511</ele>
        <time>2015-04-14T09:38:29.558Z</time>
      </trkpt>
      <trkpt lat="45.61231" lon="2.77456">
        <ele>1511</ele>
        <time>2015-04-14T09:38:30.447Z</time>
      </trkpt>
      <trkpt lat="45.61234" lon="2.77467">
        <ele>1510</ele>
        <time>2015-04-14T09:38:37.479Z</time>
      </trkpt>
      <trkpt lat="45.61234" lon="2.77469">
        <ele>1510</ele>
        <time>2015-04-14T09:38:38.575Z</time>
      </trkpt>
      <trkpt lat="45.61237" lon="2.77481">
        <ele>1509</ele>
        <time>2015-04-14T09:38:46.639Z</time>
      </trkpt>
      <trkpt lat="45.61238" lon="2.77482">
        <ele>1509</ele>
        <time>2015-04-14T09:38:47.547Z</time>
      </trkpt>
      <trkpt lat="45.6124" lon="2.77494">
        <ele>1508</ele>
        <time>2015-04-14T09:38:54.547Z</time>
      </trkpt>
      <trkpt lat="45.61241" lon="2.77496">
        <ele>1508</ele>
        <time>2015-04-14T09:38:55.391Z</time>
      </trkpt>
      <trkpt lat="45.6124" lon="2.77508">
        <ele>1507</ele>
        <time>2015-04-14T09:39:02.410Z</time>
      </trkpt>
      <trkpt lat="45.6124" lon="2.77509">
        <ele>1507</ele>
        <time>2015-04-14T09:39:03.421Z</time>
      </trkpt>
      <trkpt lat="45.61242" lon="2.77521">
        <ele>1506</ele>
        <time>2015-04-14T09:39:10.487Z</time>
      </trkpt>
      <trkpt lat="45.61243" lon="2.77522">
        <ele>1505</ele>
        <time>2015-04-14T09:39:11.658Z</time>
      </trkpt>
      <trkpt lat="45.61245" lon="2.77534">
        <ele>1504</ele>
        <time>2015-04-14T09:39:19.564Z</time>
      </trkpt>
      <trkpt lat="45.61245" lon="2.77536">
        <ele>1504</ele>
        <time>2015-04-14T09:39:20.471Z</time>
      </trkpt>
      <trkpt lat="45.61247" lon="2.77548">
        <ele>1504</ele>
        <time>2015-04-14T09:39:28.633Z</time>
      </trkpt>
      <trkpt lat="45.61247" lon="2.77549">
        <ele>1503</ele>
        <time>2015-04-14T09:39:29.523Z</time>
      </trkpt>
      <trkpt lat="45.61249" lon="2.77562">
        <ele>1504</ele>
        <time>2015-04-14T09:39:37.636Z</time>
      </trkpt>
      <trkpt lat="45.61249" lon="2.77563">
        <ele>1504</ele>
        <time>2015-04-14T09:39:38.482Z</time>
      </trkpt>
      <trkpt lat="45.61248" lon="2.77576">
        <ele>1503</ele>
        <time>2015-04-14T09:39:48.429Z</time>
      </trkpt>
      <trkpt lat="45.61248" lon="2.77577">
        <ele>1503</ele>
        <time>2015-04-14T09:39:49.685Z</time>
      </trkpt>
      <trkpt lat="45.61248" lon="2.77589">
        <ele>1503</ele>
        <time>2015-04-14T09:39:58.755Z</time>
      </trkpt>
      <trkpt lat="45.61248" lon="2.7759">
        <ele>1503</ele>
        <time>2015-04-14T09:39:59.389Z</time>
      </trkpt>
      <trkpt lat="45.61248" lon="2.77602">
        <ele>1502</ele>
        <time>2015-04-14T09:40:08.572Z</time>
      </trkpt>
      <trkpt lat="45.61249" lon="2.77603">
        <ele>1502</ele>
        <time>2015-04-14T09:40:09.450Z</time>
      </trkpt>
      <trkpt lat="45.6125" lon="2.77615">
        <ele>1503</ele>
        <time>2015-04-14T09:40:17.535Z</time>
      </trkpt>
      <trkpt lat="45.61251" lon="2.77616">
        <ele>1502</ele>
        <time>2015-04-14T09:40:18.455Z</time>
      </trkpt>
      <trkpt lat="45.61252" lon="2.77627">
        <ele>1500</ele>
        <time>2015-04-14T09:40:28.556Z</time>
      </trkpt>
      <trkpt lat="45.61252" lon="2.77628">
        <ele>1500</ele>
        <time>2015-04-14T09:40:29.348Z</time>
      </trkpt>
      <trkpt lat="45.61251" lon="2.7764">
        <ele>1498</ele>
        <time>2015-04-14T09:40:41.069Z</time>
      </trkpt>
      <trkpt lat="45.61251" lon="2.77641">
        <ele>1498</ele>
        <time>2015-04-14T09:40:41.333Z</time>
      </trkpt>
      <trkpt lat="45.61249" lon="2.77653">
        <ele>1498</ele>
        <time>2015-04-14T09:40:48.336Z</time>
      </trkpt>
      <trkpt lat="45.61249" lon="2.77654">
        <ele>1497</ele>
        <time>2015-04-14T09:40:49.367Z</time>
      </trkpt>
      <trkpt lat="45.61246" lon="2.77665">
        <ele>1497</ele>
        <time>2015-04-14T09:40:58.399Z</time>
      </trkpt>
      <trkpt lat="45.61245" lon="2.77667">
        <ele>1496</ele>
        <time>2015-04-14T09:40:59.338Z</time>
      </trkpt>
      <trkpt lat="45.61238" lon="2.77674">
        <ele>1494</ele>
        <time>2015-04-14T09:42:47.715Z</time>
      </trkpt>
      <trkpt lat="45.61238" lon="2.77674">
        <ele>1494</ele>
        <time>2015-04-14T09:42:48.532Z</time>
      </trkpt>
      <trkpt lat="45.61229" lon="2.77674">
        <ele>1490</ele>
        <time>2015-04-14T09:43:05.712Z</time>
      </trkpt>
      <trkpt lat="45.61228" lon="2.77674">
        <ele>1490</ele>
        <time>2015-04-14T09:43:06.595Z</time>
      </trkpt>
      <trkpt lat="45.61219" lon="2.77671">
        <ele>1487</ele>
        <time>2015-04-14T09:43:25.757Z</time>
      </trkpt>
      <trkpt lat="45.61219" lon="2.77671">
        <ele>1486</ele>
        <time>2015-04-14T09:43:26.744Z</time>
      </trkpt>
      <trkpt lat="45.6121" lon="2.77667">
        <ele>1483</ele>
        <time>2015-04-14T09:43:38.629Z</time>
      </trkpt>
      <trkpt lat="45.61209" lon="2.77666">
        <ele>1483</ele>
        <time>2015-04-14T09:43:39.897Z</time>
      </trkpt>
      <trkpt lat="45.61201" lon="2.77663">
        <ele>1480</ele>
        <time>2015-04-14T09:43:49.746Z</time>
      </trkpt>
      <trkpt lat="45.612" lon="2.77663">
        <ele>1480</ele>
        <time>2015-04-14T09:43:50.644Z</time>
      </trkpt>
      <trkpt lat="45.61192" lon="2.77661">
        <ele>1478</ele>
        <time>2015-04-14T09:44:01.597Z</time>
      </trkpt>
      <trkpt lat="45.61191" lon="2.7766">
        <ele>1478</ele>
        <time>2015-04-14T09:44:02.576Z</time>
      </trkpt>
      <trkpt lat="45.61182" lon="2.7766">
        <ele>1474</ele>
        <time>2015-04-14T09:44:17.612Z</time>
      </trkpt>
      <trkpt lat="45.61182" lon="2.7766">
        <ele>1474</ele>
        <time>2015-04-14T09:44:18.746Z</time>
      </trkpt>
      <trkpt lat="45.61173" lon="2.77656">
        <ele>1472</ele>
        <time>2015-04-14T09:44:34.810Z</time>
      </trkpt>
      <trkpt lat="45.61173" lon="2.77656">
        <ele>1471</ele>
        <time>2015-04-14T09:44:35.627Z</time>
      </trkpt>
      <trkpt lat="45.61164" lon="2.77655">
        <ele>1467</ele>
        <time>2015-04-14T09:44:54.753Z</time>
      </trkpt>
      <trkpt lat="45.61163" lon="2.77655">
        <ele>1467</ele>
        <time>2015-04-14T09:44:55.584Z</time>
      </trkpt>
      <trkpt lat="45.61155" lon="2.7765">
        <ele>1464</ele>
        <time>2015-04-14T09:45:12.602Z</time>
      </trkpt>
      <trkpt lat="45.61155" lon="2.77649">
        <ele>1463</ele>
        <time>2015-04-14T09:45:13.740Z</time>
      </trkpt>
      <trkpt lat="45.61146" lon="2.77648">
        <ele>1461</ele>
        <time>2015-04-14T09:45:23.801Z</time>
      </trkpt>
      <trkpt lat="45.61145" lon="2.77648">
        <ele>1461</ele>
        <time>2015-04-14T09:45:24.645Z</time>
      </trkpt>
      <trkpt lat="45.61137" lon="2.77645">
        <ele>1459</ele>
        <time>2015-04-14T09:45:34.575Z</time>
      </trkpt>
      <trkpt lat="45.61136" lon="2.77645">
        <ele>1457</ele>
        <time>2015-04-14T09:45:35.806Z</time>
      </trkpt>
      <trkpt lat="45.61128" lon="2.77643">
        <ele>1455</ele>
        <time>2015-04-14T09:45:46.614Z</time>
      </trkpt>
      <trkpt lat="45.61127" lon="2.77643">
        <ele>1456</ele>
        <time>2015-04-14T09:45:47.765Z</time>
      </trkpt>
      <trkpt lat="45.61119" lon="2.77641">
        <ele>1453</ele>
        <time>2015-04-14T09:45:57.670Z</time>
      </trkpt>
      <trkpt lat="45.61118" lon="2.77641">
        <ele>1453</ele>
        <time>2015-04-14T09:45:58.966Z</time>
      </trkpt>
      <trkpt lat="45.6111" lon="2.77636">
        <ele>1451</ele>
        <time>2015-04-14T09:46:10.784Z</time>
      </trkpt>
      <trkpt lat="45.61109" lon="2.77636">
        <ele>1451</ele>
        <time>2015-04-14T09:46:11.776Z</time>
      </trkpt>
      <trkpt lat="45.611" lon="2.77635">
        <ele>1448</ele>
        <time>2015-04-14T09:46:23.605Z</time>
      </trkpt>
      <trkpt lat="45.611" lon="2.77635">
        <ele>1447</ele>
        <time>2015-04-14T09:46:24.720Z</time>
      </trkpt>
      <trkpt lat="45.61092" lon="2.7764">
        <ele>1445</ele>
        <time>2015-04-14T09:46:41.796Z</time>
      </trkpt>
      <trkpt lat="45.61091" lon="2.77641">
        <ele>1445</ele>
        <time>2015-04-14T09:46:42.634Z</time>
      </trkpt>
      <trkpt lat="45.61084" lon="2.77649">
        <ele>1444</ele>
        <time>2015-04-14T09:46:51.830Z</time>
      </trkpt>
      <trkpt lat="45.61083" lon="2.77649">
        <ele>1444</ele>
        <time>2015-04-14T09:46:52.581Z</time>
      </trkpt>
      <trkpt lat="45.61076" lon="2.77656">
        <ele>1442</ele>
        <time>2015-04-14T09:47:01.746Z</time>
      </trkpt>
      <trkpt lat="45.61076" lon="2.77657">
        <ele>1442</ele>
        <time>2015-04-14T09:47:02.739Z</time>
      </trkpt>
      <trkpt lat="45.61069" lon="2.77664">
        <ele>1439</ele>
        <time>2015-04-14T09:47:11.564Z</time>
      </trkpt>
      <trkpt lat="45.61068" lon="2.77665">
        <ele>1439</ele>
        <time>2015-04-14T09:47:12.826Z</time>
      </trkpt>
      <trkpt lat="45.61062" lon="2.77672">
        <ele>1437</ele>
        <time>2015-04-14T09:47:21.761Z</time>
      </trkpt>
      <trkpt lat="45.61061" lon="2.77673">
        <ele>1437</ele>
        <time>2015-04-14T09:47:22.783Z</time>
      </trkpt>
      <trkpt lat="45.61054" lon="2.77681">
        <ele>1435</ele>
        <time>2015-04-14T09:47:33.685Z</time>
      </trkpt>
      <trkpt lat="45.61054" lon="2.77681">
        <ele>1435</ele>
        <time>2015-04-14T09:47:34.832Z</time>
      </trkpt>
      <trkpt lat="45.61048" lon="2.7769">
        <ele>1431</ele>
        <time>2015-04-14T09:47:47.734Z</time>
      </trkpt>
      <trkpt lat="45.61047" lon="2.7769">
        <ele>1432</ele>
        <time>2015-04-14T09:47:48.917Z</time>
      </trkpt>
      <trkpt lat="45.61042" lon="2.77701">
        <ele>1428</ele>
        <time>2015-04-14T09:48:12.674Z</time>
      </trkpt>
      <trkpt lat="45.61042" lon="2.77701">
        <ele>1428</ele>
        <time>2015-04-14T09:48:13.886Z</time>
      </trkpt>
      <trkpt lat="45.61035" lon="2.7771">
        <ele>1426</ele>
        <time>2015-04-14T09:48:24.587Z</time>
      </trkpt>
      <trkpt lat="45.61034" lon="2.7771">
        <ele>1426</ele>
        <time>2015-04-14T09:48:25.858Z</time>
      </trkpt>
      <trkpt lat="45.61028" lon="2.77719">
        <ele>1427</ele>
        <time>2015-04-14T09:48:40.645Z</time>
      </trkpt>
      <trkpt lat="45.61027" lon="2.7772">
        <ele>1427</ele>
        <time>2015-04-14T09:48:41.802Z</time>
      </trkpt>
      <trkpt lat="45.61022" lon="2.77727">
        <ele>1426</ele>
        <time>2015-04-14T09:48:47.661Z</time>
      </trkpt>
      <trkpt lat="45.61021" lon="2.77728">
        <ele>1426</ele>
        <time>2015-04-14T09:48:48.593Z</time>
      </trkpt>
      <trkpt lat="45.61014" lon="2.77735">
        <ele>1426</ele>
        <time>2015-04-14T09:48:57.636Z</time>
      </trkpt>
      <trkpt lat="45.61013" lon="2.77736">
        <ele>1426</ele>
        <time>2015-04-14T09:48:58.752Z</time>
      </trkpt>
      <trkpt lat="45.61005" lon="2.77742">
        <ele>1426</ele>
        <time>2015-04-14T09:49:05.610Z</time>
      </trkpt>
      <trkpt lat="45.61004" lon="2.77743">
        <ele>1426</ele>
        <time>2015-04-14T09:49:06.778Z</time>
      </trkpt>
      <trkpt lat="45.60997" lon="2.77751">
        <ele>1426</ele>
        <time>2015-04-14T09:49:13.652Z</time>
      </trkpt>
      <trkpt lat="45.60996" lon="2.77753">
        <ele>1427</ele>
        <time>2015-04-14T09:49:14.721Z</time>
      </trkpt>
      <trkpt lat="45.60989" lon="2.77759">
        <ele>1427</ele>
        <time>2015-04-14T09:49:21.741Z</time>
      </trkpt>
      <trkpt lat="45.60988" lon="2.77759">
        <ele>1427</ele>
        <time>2015-04-14T09:49:23.465Z</time>
      </trkpt>
      <trkpt lat="45.60982" lon="2.77769">
        <ele>1427</ele>
        <time>2015-04-14T09:49:31.576Z</time>
      </trkpt>
      <trkpt lat="45.60982" lon="2.7777">
        <ele>1427</ele>
        <time>2015-04-14T09:49:32.745Z</time>
      </trkpt>
      <trkpt lat="45.60975" lon="2.77778">
        <ele>1427</ele>
        <time>2015-04-14T09:49:40.647Z</time>
      </trkpt>
      <trkpt lat="45.60974" lon="2.77779">
        <ele>1427</ele>
        <time>2015-04-14T09:49:41.587Z</time>
      </trkpt>
      <trkpt lat="45.60967" lon="2.77787">
        <ele>1428</ele>
        <time>2015-04-14T09:50:29.814Z</time>
      </trkpt>
      <trkpt lat="45.60966" lon="2.77788">
        <ele>1427</ele>
        <time>2015-04-14T09:50:30.849Z</time>
      </trkpt>
      <trkpt lat="45.6096" lon="2.77795">
        <ele>1428</ele>
        <time>2015-04-14T09:50:38.786Z</time>
      </trkpt>
      <trkpt lat="45.60959" lon="2.77796">
        <ele>1429</ele>
        <time>2015-04-14T09:50:39.576Z</time>
      </trkpt>
      <trkpt lat="45.60951" lon="2.77802">
        <ele>1430</ele>
        <time>2015-04-14T09:50:48.590Z</time>
      </trkpt>
      <trkpt lat="45.6095" lon="2.77803">
        <ele>1430</ele>
        <time>2015-04-14T09:50:49.893Z</time>
      </trkpt>
      <trkpt lat="45.60944" lon="2.77812">
        <ele>1431</ele>
        <time>2015-04-14T09:50:59.763Z</time>
      </trkpt>
      <trkpt lat="45.60944" lon="2.77813">
        <ele>1431</ele>
        <time>2015-04-14T09:51:00.558Z</time>
      </trkpt>
      <trkpt lat="45.60937" lon="2.7782">
        <ele>1432</ele>
        <time>2015-04-14T09:51:09.732Z</time>
      </trkpt>
      <trkpt lat="45.60936" lon="2.77821">
        <ele>1432</ele>
        <time>2015-04-14T09:51:10.644Z</time>
      </trkpt>
      <trkpt lat="45.6093" lon="2.77829">
        <ele>1434</ele>
        <time>2015-04-14T09:51:18.752Z</time>
      </trkpt>
      <trkpt lat="45.60929" lon="2.7783">
        <ele>1434</ele>
        <time>2015-04-14T09:51:19.689Z</time>
      </trkpt>
      <trkpt lat="45.60922" lon="2.77838">
        <ele>1434</ele>
        <time>2015-04-14T09:51:27.797Z</time>
      </trkpt>
      <trkpt lat="45.60921" lon="2.77839">
        <ele>1434</ele>
        <time>2015-04-14T09:51:28.595Z</time>
      </trkpt>
      <trkpt lat="45.60915" lon="2.77846">
        <ele>1435</ele>
        <time>2015-04-14T09:51:44.758Z</time>
      </trkpt>
      <trkpt lat="45.60914" lon="2.77847">
        <ele>1435</ele>
        <time>2015-04-14T09:51:45.605Z</time>
      </trkpt>
      <trkpt lat="45.60907" lon="2.77854">
        <ele>1434</ele>
        <time>2015-04-14T09:51:52.722Z</time>
      </trkpt>
      <trkpt lat="45.60906" lon="2.77855">
        <ele>1434</ele>
        <time>2015-04-14T09:51:53.739Z</time>
      </trkpt>
      <trkpt lat="45.60899" lon="2.77862">
        <ele>1434</ele>
        <time>2015-04-14T09:52:00.533Z</time>
      </trkpt>
      <trkpt lat="45.60899" lon="2.77864">
        <ele>1435</ele>
        <time>2015-04-14T09:52:01.618Z</time>
      </trkpt>
      <trkpt lat="45.60892" lon="2.77873">
        <ele>1435</ele>
        <time>2015-04-14T09:52:09.668Z</time>
      </trkpt>
      <trkpt lat="45.60892" lon="2.77874">
        <ele>1435</ele>
        <time>2015-04-14T09:52:10.741Z</time>
      </trkpt>
      <trkpt lat="45.60885" lon="2.77883">
        <ele>1435</ele>
        <time>2015-04-14T09:52:18.861Z</time>
      </trkpt>
      <trkpt lat="45.60884" lon="2.77884">
        <ele>1435</ele>
        <time>2015-04-14T09:52:19.533Z</time>
      </trkpt>
      <trkpt lat="45.60877" lon="2.77891">
        <ele>1435</ele>
        <time>2015-04-14T09:52:27.763Z</time>
      </trkpt>
      <trkpt lat="45.60876" lon="2.77892">
        <ele>1435</ele>
        <time>2015-04-14T09:52:28.615Z</time>
      </trkpt>
      <trkpt lat="45.6087" lon="2.779">
        <ele>1436</ele>
        <time>2015-04-14T09:52:35.753Z</time>
      </trkpt>
      <trkpt lat="45.60869" lon="2.779">
        <ele>1436</ele>
        <time>2015-04-14T09:52:36.743Z</time>
      </trkpt>
      <trkpt lat="45.60862" lon="2.77907">
        <ele>1436</ele>
        <time>2015-04-14T09:52:43.759Z</time>
      </trkpt>
      <trkpt lat="45.60861" lon="2.77908">
        <ele>1437</ele>
        <time>2015-04-14T09:52:44.802Z</time>
      </trkpt>
      <trkpt lat="45.60854" lon="2.77914">
        <ele>1437</ele>
        <time>2015-04-14T09:52:51.744Z</time>
      </trkpt>
      <trkpt lat="45.60854" lon="2.77915">
        <ele>1437</ele>
        <time>2015-04-14T09:52:52.737Z</time>
      </trkpt>
      <trkpt lat="45.60846" lon="2.77923">
        <ele>1437</ele>
        <time>2015-04-14T09:53:00.585Z</time>
      </trkpt>
      <trkpt lat="45.60846" lon="2.77924">
        <ele>1437</ele>
        <time>2015-04-14T09:53:01.848Z</time>
      </trkpt>
      <trkpt lat="45.60839" lon="2.77932">
        <ele>1439</ele>
        <time>2015-04-14T09:53:09.733Z</time>
      </trkpt>
      <trkpt lat="45.60839" lon="2.77932">
        <ele>1439</ele>
        <time>2015-04-14T09:53:10.777Z</time>
      </trkpt>
      <trkpt lat="45.60831" lon="2.7794">
        <ele>1441</ele>
        <time>2015-04-14T09:53:20.635Z</time>
      </trkpt>
      <trkpt lat="45.60831" lon="2.7794">
        <ele>1441</ele>
        <time>2015-04-14T09:53:21.693Z</time>
      </trkpt>
      <trkpt lat="45.60824" lon="2.77948">
        <ele>1443</ele>
        <time>2015-04-14T09:53:31.760Z</time>
      </trkpt>
      <trkpt lat="45.60823" lon="2.77948">
        <ele>1443</ele>
        <time>2015-04-14T09:53:32.645Z</time>
      </trkpt>
      <trkpt lat="45.60816" lon="2.77956">
        <ele>1445</ele>
        <time>2015-04-14T09:53:47.567Z</time>
      </trkpt>
      <trkpt lat="45.60816" lon="2.77957">
        <ele>1446</ele>
        <time>2015-04-14T09:53:48.807Z</time>
      </trkpt>
      <trkpt lat="45.60809" lon="2.77964">
        <ele>1448</ele>
        <time>2015-04-14T09:54:03.594Z</time>
      </trkpt>
      <trkpt lat="45.60809" lon="2.77965">
        <ele>1448</ele>
        <time>2015-04-14T09:54:04.701Z</time>
      </trkpt>
      <trkpt lat="45.60803" lon="2.77974">
        <ele>1450</ele>
        <time>2015-04-14T09:54:15.542Z</time>
      </trkpt>
      <trkpt lat="45.60802" lon="2.77975">
        <ele>1451</ele>
        <time>2015-04-14T09:54:16.803Z</time>
      </trkpt>
      <trkpt lat="45.60796" lon="2.77983">
        <ele>1452</ele>
        <time>2015-04-14T09:54:27.642Z</time>
      </trkpt>
      <trkpt lat="45.60795" lon="2.77984">
        <ele>1452</ele>
        <time>2015-04-14T09:54:28.760Z</time>
      </trkpt>
      <trkpt lat="45.60787" lon="2.7799">
        <ele>1455</ele>
        <time>2015-04-14T09:54:37.768Z</time>
      </trkpt>
      <trkpt lat="45.60786" lon="2.7799">
        <ele>1455</ele>
        <time>2015-04-14T09:54:38.726Z</time>
      </trkpt>
      <trkpt lat="45.60779" lon="2.77995">
        <ele>1457</ele>
        <time>2015-04-14T09:54:48.744Z</time>
      </trkpt>
      <trkpt lat="45.60778" lon="2.77996">
        <ele>1457</ele>
        <time>2015-04-14T09:54:49.742Z</time>
      </trkpt>
      <trkpt lat="45.60771" lon="2.77989">
        <ele>1461</ele>
        <time>2015-04-14T09:56:13.695Z</time>
      </trkpt>
      <trkpt lat="45.6077" lon="2.77988">
        <ele>1461</ele>
        <time>2015-04-14T09:56:14.712Z</time>
      </trkpt>
      <trkpt lat="45.60763" lon="2.77984">
        <ele>1462</ele>
        <time>2015-04-14T09:56:22.715Z</time>
      </trkpt>
      <trkpt lat="45.60762" lon="2.77983">
        <ele>1463</ele>
        <time>2015-04-14T09:56:23.765Z</time>
      </trkpt>
      <trkpt lat="45.60754" lon="2.77977">
        <ele>1465</ele>
        <time>2015-04-14T09:56:32.660Z</time>
      </trkpt>
      <trkpt lat="45.60753" lon="2.77977">
        <ele>1465</ele>
        <time>2015-04-14T09:56:33.840Z</time>
      </trkpt>
      <trkpt lat="45.60746" lon="2.77971">
        <ele>1467</ele>
        <time>2015-04-14T09:56:41.678Z</time>
      </trkpt>
      <trkpt lat="45.60745" lon="2.77971">
        <ele>1467</ele>
        <time>2015-04-14T09:56:42.799Z</time>
      </trkpt>
      <trkpt lat="45.60737" lon="2.77966">
        <ele>1469</ele>
        <time>2015-04-14T09:56:50.559Z</time>
      </trkpt>
      <trkpt lat="45.60736" lon="2.77965">
        <ele>1469</ele>
        <time>2015-04-14T09:56:51.700Z</time>
      </trkpt>
      <trkpt lat="45.60729" lon="2.7796">
        <ele>1469</ele>
        <time>2015-04-14T09:56:58.592Z</time>
      </trkpt>
      <trkpt lat="45.60728" lon="2.7796">
        <ele>1469</ele>
        <time>2015-04-14T09:56:59.706Z</time>
      </trkpt>
      <trkpt lat="45.6072" lon="2.77953">
        <ele>1469</ele>
        <time>2015-04-14T09:57:06.686Z</time>
      </trkpt>
      <trkpt lat="45.60719" lon="2.77952">
        <ele>1469</ele>
        <time>2015-04-14T09:57:07.683Z</time>
      </trkpt>
      <trkpt lat="45.60712" lon="2.77947">
        <ele>1469</ele>
        <time>2015-04-14T09:57:14.733Z</time>
      </trkpt>
      <trkpt lat="45.6071" lon="2.77946">
        <ele>1469</ele>
        <time>2015-04-14T09:57:15.901Z</time>
      </trkpt>
      <trkpt lat="45.60702" lon="2.77943">
        <ele>1470</ele>
        <time>2015-04-14T09:57:23.997Z</time>
      </trkpt>
      <trkpt lat="45.60701" lon="2.77943">
        <ele>1470</ele>
        <time>2015-04-14T09:57:24.933Z</time>
      </trkpt>
      <trkpt lat="45.60692" lon="2.77941">
        <ele>1470</ele>
        <time>2015-04-14T09:57:34.088Z</time>
      </trkpt>
      <trkpt lat="45.60691" lon="2.77942">
        <ele>1470</ele>
        <time>2015-04-14T09:57:34.778Z</time>
      </trkpt>
      <trkpt lat="45.60683" lon="2.77945">
        <ele>1469</ele>
        <time>2015-04-14T09:57:44.094Z</time>
      </trkpt>
      <trkpt lat="45.60682" lon="2.77945">
        <ele>1469</ele>
        <time>2015-04-14T09:57:44.749Z</time>
      </trkpt>
      <trkpt lat="45.60675" lon="2.77937">
        <ele>1468</ele>
        <time>2015-04-14T09:57:56.009Z</time>
      </trkpt>
      <trkpt lat="45.60674" lon="2.77937">
        <ele>1467</ele>
        <time>2015-04-14T09:57:56.936Z</time>
      </trkpt>
      <trkpt lat="45.60668" lon="2.77929">
        <ele>1466</ele>
        <time>2015-04-14T09:58:07.893Z</time>
      </trkpt>
      <trkpt lat="45.60667" lon="2.77928">
        <ele>1466</ele>
        <time>2015-04-14T09:58:09.020Z</time>
      </trkpt>
      <trkpt lat="45.60661" lon="2.7792">
        <ele>1463</ele>
        <time>2015-04-14T09:58:22.902Z</time>
      </trkpt>
      <trkpt lat="45.6066" lon="2.77919">
        <ele>1463</ele>
        <time>2015-04-14T09:58:24.190Z</time>
      </trkpt>
      <trkpt lat="45.60655" lon="2.77909">
        <ele>1462</ele>
        <time>2015-04-14T09:58:33.010Z</time>
      </trkpt>
      <trkpt lat="45.60655" lon="2.77908">
        <ele>1462</ele>
        <time>2015-04-14T09:58:34.114Z</time>
      </trkpt>
      <trkpt lat="45.60649" lon="2.77899">
        <ele>1459</ele>
        <time>2015-04-14T09:58:42.958Z</time>
      </trkpt>
      <trkpt lat="45.60648" lon="2.77899">
        <ele>1459</ele>
        <time>2015-04-14T09:58:44.209Z</time>
      </trkpt>
      <trkpt lat="45.60642" lon="2.7789">
        <ele>1458</ele>
        <time>2015-04-14T09:58:53.077Z</time>
      </trkpt>
      <trkpt lat="45.60641" lon="2.77889">
        <ele>1458</ele>
        <time>2015-04-14T09:58:54.065Z</time>
      </trkpt>
      <trkpt lat="45.60635" lon="2.77881">
        <ele>1457</ele>
        <time>2015-04-14T09:59:03.901Z</time>
      </trkpt>
      <trkpt lat="45.60634" lon="2.77881">
        <ele>1457</ele>
        <time>2015-04-14T09:59:05.030Z</time>
      </trkpt>
      <trkpt lat="45.60627" lon="2.77873">
        <ele>1453</ele>
        <time>2015-04-14T09:59:14.993Z</time>
      </trkpt>
      <trkpt lat="45.60626" lon="2.77873">
        <ele>1452</ele>
        <time>2015-04-14T09:59:15.982Z</time>
      </trkpt>
      <trkpt lat="45.6062" lon="2.77865">
        <ele>1450</ele>
        <time>2015-04-14T09:59:25.090Z</time>
      </trkpt>
      <trkpt lat="45.60619" lon="2.77863">
        <ele>1450</ele>
        <time>2015-04-14T09:59:25.948Z</time>
      </trkpt>
      <trkpt lat="45.60614" lon="2.77853">
        <ele>1450</ele>
        <time>2015-04-14T09:59:33.053Z</time>
      </trkpt>
      <trkpt lat="45.60613" lon="2.77852">
        <ele>1450</ele>
        <time>2015-04-14T09:59:34.024Z</time>
      </trkpt>
      <trkpt lat="45.60608" lon="2.77842">
        <ele>1449</ele>
        <time>2015-04-14T09:59:43.121Z</time>
      </trkpt>
      <trkpt lat="45.60607" lon="2.77841">
        <ele>1449</ele>
        <time>2015-04-14T09:59:44.075Z</time>
      </trkpt>
      <trkpt lat="45.606" lon="2.77838">
        <ele>1448</ele>
        <time>2015-04-14T09:59:51.057Z</time>
      </trkpt>
      <trkpt lat="45.60599" lon="2.77837">
        <ele>1448</ele>
        <time>2015-04-14T09:59:52.130Z</time>
      </trkpt>
      <trkpt lat="45.6059" lon="2.77836">
        <ele>1448</ele>
        <time>2015-04-14T10:00:07.094Z</time>
      </trkpt>
      <trkpt lat="45.6059" lon="2.77835">
        <ele>1447</ele>
        <time>2015-04-14T10:00:07.970Z</time>
      </trkpt>
      <trkpt lat="45.60583" lon="2.77843">
        <ele>1446</ele>
        <time>2015-04-14T10:00:23.034Z</time>
      </trkpt>
      <trkpt lat="45.60582" lon="2.77844">
        <ele>1446</ele>
        <time>2015-04-14T10:00:24.015Z</time>
      </trkpt>
      <trkpt lat="45.60575" lon="2.77851">
        <ele>1443</ele>
        <time>2015-04-14T10:00:36.113Z</time>
      </trkpt>
      <trkpt lat="45.60575" lon="2.77852">
        <ele>1443</ele>
        <time>2015-04-14T10:00:37.068Z</time>
      </trkpt>
      <trkpt lat="45.60566" lon="2.77855">
        <ele>1440</ele>
        <time>2015-04-14T10:00:49.095Z</time>
      </trkpt>
      <trkpt lat="45.60566" lon="2.77855">
        <ele>1440</ele>
        <time>2015-04-14T10:00:49.988Z</time>
      </trkpt>
      <trkpt lat="45.60557" lon="2.77858">
        <ele>1438</ele>
        <time>2015-04-14T10:00:59.895Z</time>
      </trkpt>
      <trkpt lat="45.60556" lon="2.77858">
        <ele>1438</ele>
        <time>2015-04-14T10:01:00.893Z</time>
      </trkpt>
      <trkpt lat="45.60548" lon="2.77862">
        <ele>1435</ele>
        <time>2015-04-14T10:01:13.102Z</time>
      </trkpt>
      <trkpt lat="45.60547" lon="2.77862">
        <ele>1435</ele>
        <time>2015-04-14T10:01:14.107Z</time>
      </trkpt>
      <trkpt lat="45.60539" lon="2.77866">
        <ele>1432</ele>
        <time>2015-04-14T10:01:27.335Z</time>
      </trkpt>
      <trkpt lat="45.60538" lon="2.77866">
        <ele>1432</ele>
        <time>2015-04-14T10:01:27.925Z</time>
      </trkpt>
      <trkpt lat="45.6053" lon="2.77869">
        <ele>1430</ele>
        <time>2015-04-14T10:01:37.951Z</time>
      </trkpt>
      <trkpt lat="45.60529" lon="2.77869">
        <ele>1430</ele>
        <time>2015-04-14T10:01:39.062Z</time>
      </trkpt>
      <trkpt lat="45.6052" lon="2.77871">
        <ele>1427</ele>
        <time>2015-04-14T10:01:51.989Z</time>
      </trkpt>
      <trkpt lat="45.6052" lon="2.77871">
        <ele>1428</ele>
        <time>2015-04-14T10:01:52.998Z</time>
      </trkpt>
      <trkpt lat="45.60511" lon="2.7787">
        <ele>1425</ele>
        <time>2015-04-14T10:03:50.167Z</time>
      </trkpt>
      <trkpt lat="45.6051" lon="2.77871">
        <ele>1425</ele>
        <time>2015-04-14T10:03:51.009Z</time>
      </trkpt>
      <trkpt lat="45.60502" lon="2.77875">
        <ele>1423</ele>
        <time>2015-04-14T10:04:14.993Z</time>
      </trkpt>
      <trkpt lat="45.60502" lon="2.77876">
        <ele>1423</ele>
        <time>2015-04-14T10:04:15.969Z</time>
      </trkpt>
      <trkpt lat="45.60494" lon="2.7787">
        <ele>1420</ele>
        <time>2015-04-14T10:05:12.024Z</time>
      </trkpt>
      <trkpt lat="45.60494" lon="2.7787">
        <ele>1419</ele>
        <time>2015-04-14T10:05:12.999Z</time>
      </trkpt>
      <trkpt lat="45.60489" lon="2.77859">
        <ele>1419</ele>
        <time>2015-04-14T10:05:26.148Z</time>
      </trkpt>
      <trkpt lat="45.60489" lon="2.77858">
        <ele>1419</ele>
        <time>2015-04-14T10:05:26.966Z</time>
      </trkpt>
      <trkpt lat="45.60481" lon="2.77853">
        <ele>1416</ele>
        <time>2015-04-14T10:05:41.125Z</time>
      </trkpt>
      <trkpt lat="45.6048" lon="2.77852">
        <ele>1416</ele>
        <time>2015-04-14T10:05:42.145Z</time>
      </trkpt>
      <trkpt lat="45.60472" lon="2.7785">
        <ele>1413</ele>
        <time>2015-04-14T10:05:56.104Z</time>
      </trkpt>
      <trkpt lat="45.60471" lon="2.77849">
        <ele>1413</ele>
        <time>2015-04-14T10:05:56.986Z</time>
      </trkpt>
      <trkpt lat="45.60463" lon="2.77854">
        <ele>1409</ele>
        <time>2015-04-14T10:06:17.948Z</time>
      </trkpt>
      <trkpt lat="45.60462" lon="2.77854">
        <ele>1409</ele>
        <time>2015-04-14T10:06:19.199Z</time>
      </trkpt>
      <trkpt lat="45.60454" lon="2.77859">
        <ele>1406</ele>
        <time>2015-04-14T10:06:34.960Z</time>
      </trkpt>
      <trkpt lat="45.60453" lon="2.7786">
        <ele>1406</ele>
        <time>2015-04-14T10:06:36.137Z</time>
      </trkpt>
      <trkpt lat="45.60449" lon="2.77871">
        <ele>1403</ele>
        <time>2015-04-14T10:06:51.186Z</time>
      </trkpt>
      <trkpt lat="45.60449" lon="2.77871">
        <ele>1403</ele>
        <time>2015-04-14T10:06:51.991Z</time>
      </trkpt>
      <trkpt lat="45.60446" lon="2.77883">
        <ele>1398</ele>
        <time>2015-04-14T10:07:08.989Z</time>
      </trkpt>
      <trkpt lat="45.60446" lon="2.77884">
        <ele>1398</ele>
        <time>2015-04-14T10:07:10.008Z</time>
      </trkpt>
      <trkpt lat="45.60443" lon="2.77895">
        <ele>1395</ele>
        <time>2015-04-14T10:07:20.928Z</time>
      </trkpt>
      <trkpt lat="45.60443" lon="2.77896">
        <ele>1395</ele>
        <time>2015-04-14T10:07:21.962Z</time>
      </trkpt>
      <trkpt lat="45.60444" lon="2.77908">
        <ele>1396</ele>
        <time>2015-04-14T10:08:07.042Z</time>
      </trkpt>
      <trkpt lat="45.60445" lon="2.7791">
        <ele>1397</ele>
        <time>2015-04-14T10:08:08.031Z</time>
      </trkpt>
      <trkpt lat="45.60448" lon="2.77921">
        <ele>1397</ele>
        <time>2015-04-14T10:08:14.080Z</time>
      </trkpt>
      <trkpt lat="45.60449" lon="2.77923">
        <ele>1397</ele>
        <time>2015-04-14T10:08:14.919Z</time>
      </trkpt>
      <trkpt lat="45.60452" lon="2.77934">
        <ele>1399</ele>
        <time>2015-04-14T10:08:20.848Z</time>
      </trkpt>
      <trkpt lat="45.60452" lon="2.77935">
        <ele>1400</ele>
        <time>2015-04-14T10:08:22.460Z</time>
      </trkpt>
      <trkpt lat="45.60456" lon="2.77945">
        <ele>1402</ele>
        <time>2015-04-14T10:08:29.078Z</time>
      </trkpt>
      <trkpt lat="45.60457" lon="2.77947">
        <ele>1402</ele>
        <time>2015-04-14T10:08:30.151Z</time>
      </trkpt>
      <trkpt lat="45.60461" lon="2.77956">
        <ele>1403</ele>
        <time>2015-04-14T10:08:36.960Z</time>
      </trkpt>
      <trkpt lat="45.60461" lon="2.77958">
        <ele>1403</ele>
        <time>2015-04-14T10:08:37.934Z</time>
      </trkpt>
      <trkpt lat="45.60465" lon="2.77968">
        <ele>1403</ele>
        <time>2015-04-14T10:08:45.095Z</time>
      </trkpt>
      <trkpt lat="45.60465" lon="2.7797">
        <ele>1403</ele>
        <time>2015-04-14T10:08:45.933Z</time>
      </trkpt>
      <trkpt lat="45.60469" lon="2.7798">
        <ele>1403</ele>
        <time>2015-04-14T10:08:52.961Z</time>
      </trkpt>
      <trkpt lat="45.6047" lon="2.77982">
        <ele>1403</ele>
        <time>2015-04-14T10:08:54.007Z</time>
      </trkpt>
      <trkpt lat="45.60472" lon="2.77993">
        <ele>1404</ele>
        <time>2015-04-14T10:09:00.846Z</time>
      </trkpt>
      <trkpt lat="45.60473" lon="2.77994">
        <ele>1404</ele>
        <time>2015-04-14T10:09:02.055Z</time>
      </trkpt>
      <trkpt lat="45.60475" lon="2.78005">
        <ele>1405</ele>
        <time>2015-04-14T10:09:08.946Z</time>
      </trkpt>
      <trkpt lat="45.60475" lon="2.78007">
        <ele>1406</ele>
        <time>2015-04-14T10:09:10.152Z</time>
      </trkpt>
      <trkpt lat="45.60477" lon="2.78019">
        <ele>1405</ele>
        <time>2015-04-14T10:09:17.076Z</time>
      </trkpt>
      <trkpt lat="45.60478" lon="2.78021">
        <ele>1406</ele>
        <time>2015-04-14T10:09:17.864Z</time>
      </trkpt>
      <trkpt lat="45.60479" lon="2.78033">
        <ele>1406</ele>
        <time>2015-04-14T10:09:25.101Z</time>
      </trkpt>
      <trkpt lat="45.6048" lon="2.78034">
        <ele>1406</ele>
        <time>2015-04-14T10:09:26.030Z</time>
      </trkpt>
      <trkpt lat="45.60482" lon="2.78046">
        <ele>1408</ele>
        <time>2015-04-14T10:09:32.897Z</time>
      </trkpt>
      <trkpt lat="45.60482" lon="2.78048">
        <ele>1408</ele>
        <time>2015-04-14T10:09:33.966Z</time>
      </trkpt>
      <trkpt lat="45.60483" lon="2.7806">
        <ele>1408</ele>
        <time>2015-04-14T10:09:42.092Z</time>
      </trkpt>
      <trkpt lat="45.60483" lon="2.78061">
        <ele>1409</ele>
        <time>2015-04-14T10:09:43.073Z</time>
      </trkpt>
      <trkpt lat="45.60484" lon="2.78073">
        <ele>1411</ele>
        <time>2015-04-14T10:09:52.910Z</time>
      </trkpt>
      <trkpt lat="45.60484" lon="2.78074">
        <ele>1411</ele>
        <time>2015-04-14T10:09:54.088Z</time>
      </trkpt>
      <trkpt lat="45.60485" lon="2.78086">
        <ele>1410</ele>
        <time>2015-04-14T10:10:09.969Z</time>
      </trkpt>
      <trkpt lat="45.60485" lon="2.78087">
        <ele>1411</ele>
        <time>2015-04-14T10:10:11.057Z</time>
      </trkpt>
      <trkpt lat="45.60484" lon="2.781">
        <ele>1412</ele>
        <time>2015-04-14T10:10:22.093Z</time>
      </trkpt>
      <trkpt lat="45.60484" lon="2.78101">
        <ele>1412</ele>
        <time>2015-04-14T10:10:23.057Z</time>
      </trkpt>
      <trkpt lat="45.60485" lon="2.78114">
        <ele>1413</ele>
        <time>2015-04-14T10:10:32.943Z</time>
      </trkpt>
      <trkpt lat="45.60484" lon="2.78116">
        <ele>1413</ele>
        <time>2015-04-14T10:10:34.127Z</time>
      </trkpt>
      <trkpt lat="45.60483" lon="2.78127">
        <ele>1413</ele>
        <time>2015-04-14T10:10:42.112Z</time>
      </trkpt>
      <trkpt lat="45.60483" lon="2.78129">
        <ele>1414</ele>
        <time>2015-04-14T10:10:43.201Z</time>
      </trkpt>
      <trkpt lat="45.60482" lon="2.78141">
        <ele>1415</ele>
        <time>2015-04-14T10:10:51.916Z</time>
      </trkpt>
      <trkpt lat="45.60482" lon="2.78143">
        <ele>1415</ele>
        <time>2015-04-14T10:10:53.124Z</time>
      </trkpt>
      <trkpt lat="45.60483" lon="2.78155">
        <ele>1416</ele>
        <time>2015-04-14T10:11:02.052Z</time>
      </trkpt>
      <trkpt lat="45.60483" lon="2.78156">
        <ele>1416</ele>
        <time>2015-04-14T10:11:03.068Z</time>
      </trkpt>
      <trkpt lat="45.60486" lon="2.78169">
        <ele>1416</ele>
        <time>2015-04-14T10:11:13.058Z</time>
      </trkpt>
      <trkpt lat="45.60486" lon="2.7817">
        <ele>1415</ele>
        <time>2015-04-14T10:11:14.080Z</time>
      </trkpt>
      <trkpt lat="45.60489" lon="2.78181">
        <ele>1414</ele>
        <time>2015-04-14T10:11:21.933Z</time>
      </trkpt>
      <trkpt lat="45.60489" lon="2.78182">
        <ele>1415</ele>
        <time>2015-04-14T10:11:23.056Z</time>
      </trkpt>
      <trkpt lat="45.60492" lon="2.78193">
        <ele>1415</ele>
        <time>2015-04-14T10:11:31.955Z</time>
      </trkpt>
      <trkpt lat="45.60493" lon="2.78194">
        <ele>1415</ele>
        <time>2015-04-14T10:11:33.055Z</time>
      </trkpt>
      <trkpt lat="45.60497" lon="2.78205">
        <ele>1416</ele>
        <time>2015-04-14T10:11:44.101Z</time>
      </trkpt>
      <trkpt lat="45.60497" lon="2.78206">
        <ele>1416</ele>
        <time>2015-04-14T10:11:44.965Z</time>
      </trkpt>
      <trkpt lat="45.60501" lon="2.78216">
        <ele>1417</ele>
        <time>2015-04-14T10:11:54.042Z</time>
      </trkpt>
      <trkpt lat="45.60502" lon="2.78217">
        <ele>1417</ele>
        <time>2015-04-14T10:11:55.076Z</time>
      </trkpt>
      <trkpt lat="45.60507" lon="2.78227">
        <ele>1419</ele>
        <time>2015-04-14T10:12:04.030Z</time>
      </trkpt>
      <trkpt lat="45.60508" lon="2.78228">
        <ele>1419</ele>
        <time>2015-04-14T10:12:04.962Z</time>
      </trkpt>
      <trkpt lat="45.60512" lon="2.78239">
        <ele>1419</ele>
        <time>2015-04-14T10:12:13.896Z</time>
      </trkpt>
      <trkpt lat="45.60512" lon="2.7824">
        <ele>1419</ele>
        <time>2015-04-14T10:12:14.973Z</time>
      </trkpt>
      <trkpt lat="45.6051" lon="2.78252">
        <ele>1419</ele>
        <time>2015-04-14T10:12:41.077Z</time>
      </trkpt>
      <trkpt lat="45.6051" lon="2.78253">
        <ele>1419</ele>
        <time>2015-04-14T10:12:42.050Z</time>
      </trkpt>
      <trkpt lat="45.60505" lon="2.78263">
        <ele>1419</ele>
        <time>2015-04-14T10:12:52.117Z</time>
      </trkpt>
      <trkpt lat="45.60504" lon="2.78263">
        <ele>1419</ele>
        <time>2015-04-14T10:12:53.009Z</time>
      </trkpt>
      <trkpt lat="45.60496" lon="2.7827">
        <ele>1419</ele>
        <time>2015-04-14T10:13:03.112Z</time>
      </trkpt>
      <trkpt lat="45.60496" lon="2.7827">
        <ele>1420</ele>
        <time>2015-04-14T10:13:03.937Z</time>
      </trkpt>
      <trkpt lat="45.60491" lon="2.78281">
        <ele>1421</ele>
        <time>2015-04-14T10:13:21.189Z</time>
      </trkpt>
      <trkpt lat="45.6049" lon="2.78283">
        <ele>1421</ele>
        <time>2015-04-14T10:13:21.944Z</time>
      </trkpt>
      <trkpt lat="45.60484" lon="2.78292">
        <ele>1420</ele>
        <time>2015-04-14T10:13:28.944Z</time>
      </trkpt>
      <trkpt lat="45.60484" lon="2.78293">
        <ele>1420</ele>
        <time>2015-04-14T10:13:29.961Z</time>
      </trkpt>
      <trkpt lat="45.60478" lon="2.78302">
        <ele>1419</ele>
        <time>2015-04-14T10:13:36.840Z</time>
      </trkpt>
      <trkpt lat="45.60477" lon="2.78303">
        <ele>1419</ele>
        <time>2015-04-14T10:13:37.848Z</time>
      </trkpt>
      <trkpt lat="45.60471" lon="2.78312">
        <ele>1418</ele>
        <time>2015-04-14T10:13:46.044Z</time>
      </trkpt>
      <trkpt lat="45.60471" lon="2.78314">
        <ele>1418</ele>
        <time>2015-04-14T10:13:47.101Z</time>
      </trkpt>
      <trkpt lat="45.60466" lon="2.78325">
        <ele>1418</ele>
        <time>2015-04-14T10:13:54.848Z</time>
      </trkpt>
      <trkpt lat="45.60466" lon="2.78326">
        <ele>1418</ele>
        <time>2015-04-14T10:13:56.055Z</time>
      </trkpt>
      <trkpt lat="45.60462" lon="2.78336">
        <ele>1417</ele>
        <time>2015-04-14T10:14:02.899Z</time>
      </trkpt>
      <trkpt lat="45.60462" lon="2.78338">
        <ele>1418</ele>
        <time>2015-04-14T10:14:04.037Z</time>
      </trkpt>
      <trkpt lat="45.60458" lon="2.78348">
        <ele>1418</ele>
        <time>2015-04-14T10:14:10.841Z</time>
      </trkpt>
      <trkpt lat="45.60458" lon="2.78349">
        <ele>1418</ele>
        <time>2015-04-14T10:14:12.047Z</time>
      </trkpt>
      <trkpt lat="45.60453" lon="2.78359">
        <ele>1417</ele>
        <time>2015-04-14T10:14:19.108Z</time>
      </trkpt>
      <trkpt lat="45.60453" lon="2.7836">
        <ele>1417</ele>
        <time>2015-04-14T10:14:19.950Z</time>
      </trkpt>
      <trkpt lat="45.60449" lon="2.7837">
        <ele>1416</ele>
        <time>2015-04-14T10:14:27.044Z</time>
      </trkpt>
      <trkpt lat="45.60448" lon="2.78372">
        <ele>1416</ele>
        <time>2015-04-14T10:14:28.136Z</time>
      </trkpt>
      <trkpt lat="45.60444" lon="2.78383">
        <ele>1416</ele>
        <time>2015-04-14T10:14:36.038Z</time>
      </trkpt>
      <trkpt lat="45.60444" lon="2.78384">
        <ele>1416</ele>
        <time>2015-04-14T10:14:37.050Z</time>
      </trkpt>
      <trkpt lat="45.6044" lon="2.78395">
        <ele>1416</ele>
        <time>2015-04-14T10:14:46.049Z</time>
      </trkpt>
      <trkpt lat="45.60439" lon="2.78396">
        <ele>1416</ele>
        <time>2015-04-14T10:14:46.946Z</time>
      </trkpt>
      <trkpt lat="45.60434" lon="2.78407">
        <ele>1417</ele>
        <time>2015-04-14T10:14:54.900Z</time>
      </trkpt>
      <trkpt lat="45.60434" lon="2.78408">
        <ele>1417</ele>
        <time>2015-04-14T10:14:56.053Z</time>
      </trkpt>
      <trkpt lat="45.60428" lon="2.78416">
        <ele>1418</ele>
        <time>2015-04-14T10:15:05.922Z</time>
      </trkpt>
      <trkpt lat="45.60427" lon="2.78417">
        <ele>1418</ele>
        <time>2015-04-14T10:15:07.097Z</time>
      </trkpt>
      <trkpt lat="45.60424" lon="2.78429">
        <ele>1419</ele>
        <time>2015-04-14T10:15:17.007Z</time>
      </trkpt>
      <trkpt lat="45.60424" lon="2.7843">
        <ele>1419</ele>
        <time>2015-04-14T10:15:17.848Z</time>
      </trkpt>
      <trkpt lat="45.60423" lon="2.78441">
        <ele>1421</ele>
        <time>2015-04-14T10:15:25.880Z</time>
      </trkpt>
      <trkpt lat="45.60422" lon="2.78443">
        <ele>1421</ele>
        <time>2015-04-14T10:15:27.071Z</time>
      </trkpt>
      <trkpt lat="45.6042" lon="2.78454">
        <ele>1420</ele>
        <time>2015-04-14T10:15:36.039Z</time>
      </trkpt>
      <trkpt lat="45.6042" lon="2.78456">
        <ele>1420</ele>
        <time>2015-04-14T10:15:37.036Z</time>
      </trkpt>
      <trkpt lat="45.60412" lon="2.78462">
        <ele>1419</ele>
        <time>2015-04-14T10:15:48.194Z</time>
      </trkpt>
      <trkpt lat="45.60411" lon="2.78462">
        <ele>1419</ele>
        <time>2015-04-14T10:15:48.883Z</time>
      </trkpt>
      <trkpt lat="45.60403" lon="2.78465">
        <ele>1419</ele>
        <time>2015-04-14T10:16:03.037Z</time>
      </trkpt>
      <trkpt lat="45.60402" lon="2.78465">
        <ele>1420</ele>
        <time>2015-04-14T10:16:03.930Z</time>
      </trkpt>
      <trkpt lat="45.60394" lon="2.78465">
        <ele>1420</ele>
        <time>2015-04-14T10:16:15.105Z</time>
      </trkpt>
      <trkpt lat="45.60393" lon="2.78464">
        <ele>1421</ele>
        <time>2015-04-14T10:16:16.030Z</time>
      </trkpt>
      <trkpt lat="45.60385" lon="2.78462">
        <ele>1422</ele>
        <time>2015-04-14T10:16:26.034Z</time>
      </trkpt>
      <trkpt lat="45.60384" lon="2.78462">
        <ele>1422</ele>
        <time>2015-04-14T10:16:27.011Z</time>
      </trkpt>
      <trkpt lat="45.60376" lon="2.78458">
        <ele>1423</ele>
        <time>2015-04-14T10:16:41.912Z</time>
      </trkpt>
      <trkpt lat="45.60375" lon="2.78457">
        <ele>1423</ele>
        <time>2015-04-14T10:16:43.281Z</time>
      </trkpt>
      <trkpt lat="45.60368" lon="2.7845">
        <ele>1426</ele>
        <time>2015-04-14T10:16:58.949Z</time>
      </trkpt>
      <trkpt lat="45.60368" lon="2.78449">
        <ele>1426</ele>
        <time>2015-04-14T10:17:00.099Z</time>
      </trkpt>
      <trkpt lat="45.60359" lon="2.78448">
        <ele>1429</ele>
        <time>2015-04-14T10:17:15.075Z</time>
      </trkpt>
      <trkpt lat="45.60359" lon="2.78448">
        <ele>1430</ele>
        <time>2015-04-14T10:17:15.925Z</time>
      </trkpt>
      <trkpt lat="45.60351" lon="2.78443">
        <ele>1430</ele>
        <time>2015-04-14T10:17:36.085Z</time>
      </trkpt>
      <trkpt lat="45.6035" lon="2.78443">
        <ele>1430</ele>
        <time>2015-04-14T10:17:36.943Z</time>
      </trkpt>
      <trkpt lat="45.60343" lon="2.78436">
        <ele>1433</ele>
        <time>2015-04-14T10:18:02.956Z</time>
      </trkpt>
      <trkpt lat="45.60342" lon="2.78436">
        <ele>1432</ele>
        <time>2015-04-14T10:18:03.936Z</time>
      </trkpt>
      <trkpt lat="45.60334" lon="2.78431">
        <ele>1436</ele>
        <time>2015-04-14T10:18:29.075Z</time>
      </trkpt>
      <trkpt lat="45.60334" lon="2.78432">
        <ele>1436</ele>
        <time>2015-04-14T10:18:29.886Z</time>
      </trkpt>
      <trkpt lat="45.60327" lon="2.78424">
        <ele>1442</ele>
        <time>2015-04-14T10:19:07.853Z</time>
      </trkpt>
      <trkpt lat="45.60326" lon="2.78424">
        <ele>1442</ele>
        <time>2015-04-14T10:19:09.203Z</time>
      </trkpt>
      <trkpt lat="45.60318" lon="2.78423">
        <ele>1445</ele>
        <time>2015-04-14T10:19:32.947Z</time>
      </trkpt>
      <trkpt lat="45.60317" lon="2.78422">
        <ele>1445</ele>
        <time>2015-04-14T10:19:33.900Z</time>
      </trkpt>
      <trkpt lat="45.60308" lon="2.78421">
        <ele>1446</ele>
        <time>2015-04-14T10:20:22.082Z</time>
      </trkpt>
      <trkpt lat="45.60308" lon="2.78421">
        <ele>1447</ele>
        <time>2015-04-14T10:20:22.982Z</time>
      </trkpt>
      <trkpt lat="45.603" lon="2.78416">
        <ele>1450</ele>
        <time>2015-04-14T10:20:42.034Z</time>
      </trkpt>
      <trkpt lat="45.60299" lon="2.78416">
        <ele>1450</ele>
        <time>2015-04-14T10:20:43.207Z</time>
      </trkpt>
      <trkpt lat="45.60291" lon="2.78419">
        <ele>1453</ele>
        <time>2015-04-14T10:21:07.130Z</time>
      </trkpt>
      <trkpt lat="45.6029" lon="2.78419">
        <ele>1454</ele>
        <time>2015-04-14T10:21:07.946Z</time>
      </trkpt>
      <trkpt lat="45.60283" lon="2.78414">
        <ele>1457</ele>
        <time>2015-04-14T10:21:32.073Z</time>
      </trkpt>
      <trkpt lat="45.60282" lon="2.78413">
        <ele>1458</ele>
        <time>2015-04-14T10:21:33.133Z</time>
      </trkpt>
      <trkpt lat="45.60275" lon="2.78407">
        <ele>1462</ele>
        <time>2015-04-14T10:21:53.933Z</time>
      </trkpt>
      <trkpt lat="45.60274" lon="2.78406">
        <ele>1462</ele>
        <time>2015-04-14T10:21:55.044Z</time>
      </trkpt>
      <trkpt lat="45.60268" lon="2.78397">
        <ele>1464</ele>
        <time>2015-04-14T10:22:10.910Z</time>
      </trkpt>
      <trkpt lat="45.60268" lon="2.78396">
        <ele>1464</ele>
        <time>2015-04-14T10:22:12.044Z</time>
      </trkpt>
      <trkpt lat="45.6026" lon="2.78397">
        <ele>1466</ele>
        <time>2015-04-14T10:22:38.954Z</time>
      </trkpt>
      <trkpt lat="45.60259" lon="2.78397">
        <ele>1467</ele>
        <time>2015-04-14T10:22:40.015Z</time>
      </trkpt>
      <trkpt lat="45.60252" lon="2.78405">
        <ele>1469</ele>
        <time>2015-04-14T10:22:49.965Z</time>
      </trkpt>
      <trkpt lat="45.60251" lon="2.78405">
        <ele>1469</ele>
        <time>2015-04-14T10:22:50.973Z</time>
      </trkpt>
      <trkpt lat="45.60242" lon="2.78406">
        <ele>1470</ele>
        <time>2015-04-14T10:23:02.004Z</time>
      </trkpt>
      <trkpt lat="45.60241" lon="2.78406">
        <ele>1470</ele>
        <time>2015-04-14T10:23:03.039Z</time>
      </trkpt>
      <trkpt lat="45.60233" lon="2.78407">
        <ele>1471</ele>
        <time>2015-04-14T10:23:13.936Z</time>
      </trkpt>
      <trkpt lat="45.60232" lon="2.78407">
        <ele>1471</ele>
        <time>2015-04-14T10:23:14.923Z</time>
      </trkpt>
      <trkpt lat="45.60224" lon="2.78407">
        <ele>1472</ele>
        <time>2015-04-14T10:23:44.840Z</time>
      </trkpt>
      <trkpt lat="45.60223" lon="2.78408">
        <ele>1472</ele>
        <time>2015-04-14T10:23:45.839Z</time>
      </trkpt>
      <trkpt lat="45.60215" lon="2.78406">
        <ele>1473</ele>
        <time>2015-04-14T10:23:57.937Z</time>
      </trkpt>
      <trkpt lat="45.60214" lon="2.78406">
        <ele>1473</ele>
        <time>2015-04-14T10:23:59.374Z</time>
      </trkpt>
      <trkpt lat="45.60206" lon="2.78402">
        <ele>1476</ele>
        <time>2015-04-14T10:24:19.889Z</time>
      </trkpt>
      <trkpt lat="45.60205" lon="2.78402">
        <ele>1476</ele>
        <time>2015-04-14T10:24:21.096Z</time>
      </trkpt>
      <trkpt lat="45.60196" lon="2.784">
        <ele>1479</ele>
        <time>2015-04-14T10:24:42.912Z</time>
      </trkpt>
      <trkpt lat="45.60196" lon="2.784">
        <ele>1479</ele>
        <time>2015-04-14T10:24:44.108Z</time>
      </trkpt>
      <trkpt lat="45.60187" lon="2.78397">
        <ele>1483</ele>
        <time>2015-04-14T10:25:06.080Z</time>
      </trkpt>
      <trkpt lat="45.60187" lon="2.78397">
        <ele>1482</ele>
        <time>2015-04-14T10:25:06.968Z</time>
      </trkpt>
      <trkpt lat="45.6018" lon="2.78389">
        <ele>1483</ele>
        <time>2015-04-14T10:25:34.056Z</time>
      </trkpt>
      <trkpt lat="45.60179" lon="2.78389">
        <ele>1483</ele>
        <time>2015-04-14T10:25:35.029Z</time>
      </trkpt>
      <trkpt lat="45.60171" lon="2.78386">
        <ele>1484</ele>
        <time>2015-04-14T10:25:50.037Z</time>
      </trkpt>
      <trkpt lat="45.6017" lon="2.78386">
        <ele>1484</ele>
        <time>2015-04-14T10:25:51.038Z</time>
      </trkpt>
      <trkpt lat="45.60163" lon="2.7838">
        <ele>1487</ele>
        <time>2015-04-14T10:26:07.977Z</time>
      </trkpt>
      <trkpt lat="45.60162" lon="2.7838">
        <ele>1487</ele>
        <time>2015-04-14T10:26:09.023Z</time>
      </trkpt>
      <trkpt lat="45.60155" lon="2.78373">
        <ele>1490</ele>
        <time>2015-04-14T10:26:26.161Z</time>
      </trkpt>
      <trkpt lat="45.60154" lon="2.78373">
        <ele>1490</ele>
        <time>2015-04-14T10:26:27.108Z</time>
      </trkpt>
      <trkpt lat="45.60146" lon="2.7837">
        <ele>1491</ele>
        <time>2015-04-14T10:26:42.083Z</time>
      </trkpt>
      <trkpt lat="45.60145" lon="2.78369">
        <ele>1491</ele>
        <time>2015-04-14T10:26:43.275Z</time>
      </trkpt>
      <trkpt lat="45.60138" lon="2.78364">
        <ele>1494</ele>
        <time>2015-04-14T10:26:53.165Z</time>
      </trkpt>
      <trkpt lat="45.60137" lon="2.78363">
        <ele>1494</ele>
        <time>2015-04-14T10:26:54.175Z</time>
      </trkpt>
      <trkpt lat="45.60129" lon="2.7836">
        <ele>1496</ele>
        <time>2015-04-14T10:27:03.081Z</time>
      </trkpt>
      <trkpt lat="45.60128" lon="2.78359">
        <ele>1496</ele>
        <time>2015-04-14T10:27:04.111Z</time>
      </trkpt>
      <trkpt lat="45.60121" lon="2.78355">
        <ele>1497</ele>
        <time>2015-04-14T10:27:14.178Z</time>
      </trkpt>
      <trkpt lat="45.6012" lon="2.78354">
        <ele>1497</ele>
        <time>2015-04-14T10:27:15.051Z</time>
      </trkpt>
      <trkpt lat="45.60111" lon="2.7835">
        <ele>1499</ele>
        <time>2015-04-14T10:27:25.277Z</time>
      </trkpt>
      <trkpt lat="45.60111" lon="2.78349">
        <ele>1499</ele>
        <time>2015-04-14T10:27:26.005Z</time>
      </trkpt>
      <trkpt lat="45.60102" lon="2.78348">
        <ele>1500</ele>
        <time>2015-04-14T10:27:37.065Z</time>
      </trkpt>
      <trkpt lat="45.60101" lon="2.78348">
        <ele>1500</ele>
        <time>2015-04-14T10:27:37.973Z</time>
      </trkpt>
      <trkpt lat="45.60093" lon="2.78351">
        <ele>1501</ele>
        <time>2015-04-14T10:27:51.179Z</time>
      </trkpt>
      <trkpt lat="45.60092" lon="2.78351">
        <ele>1502</ele>
        <time>2015-04-14T10:27:52.124Z</time>
      </trkpt>
      <trkpt lat="45.60084" lon="2.78355">
        <ele>1503</ele>
        <time>2015-04-14T10:28:05.113Z</time>
      </trkpt>
      <trkpt lat="45.60083" lon="2.78356">
        <ele>1503</ele>
        <time>2015-04-14T10:28:06.050Z</time>
      </trkpt>
      <trkpt lat="45.60077" lon="2.78365">
        <ele>1504</ele>
        <time>2015-04-14T10:28:27.261Z</time>
      </trkpt>
      <trkpt lat="45.60076" lon="2.78365">
        <ele>1504</ele>
        <time>2015-04-14T10:28:28.036Z</time>
      </trkpt>
      <trkpt lat="45.60069" lon="2.78369">
        <ele>1505</ele>
        <time>2015-04-14T10:28:36.041Z</time>
      </trkpt>
      <trkpt lat="45.60068" lon="2.7837">
        <ele>1505</ele>
        <time>2015-04-14T10:28:37.092Z</time>
      </trkpt>
      <trkpt lat="45.60059" lon="2.78375">
        <ele>1505</ele>
        <time>2015-04-14T10:28:45.230Z</time>
      </trkpt>
      <trkpt lat="45.60058" lon="2.78375">
        <ele>1505</ele>
        <time>2015-04-14T10:28:46.061Z</time>
      </trkpt>
      <trkpt lat="45.60051" lon="2.78379">
        <ele>1505</ele>
        <time>2015-04-14T10:28:53.040Z</time>
      </trkpt>
      <trkpt lat="45.6005" lon="2.7838">
        <ele>1505</ele>
        <time>2015-04-14T10:28:54.257Z</time>
      </trkpt>
      <trkpt lat="45.60042" lon="2.78387">
        <ele>1505</ele>
        <time>2015-04-14T10:29:03.047Z</time>
      </trkpt>
      <trkpt lat="45.60042" lon="2.78388">
        <ele>1505</ele>
        <time>2015-04-14T10:29:04.220Z</time>
      </trkpt>
      <trkpt lat="45.60033" lon="2.78385">
        <ele>1507</ele>
        <time>2015-04-14T10:29:21.013Z</time>
      </trkpt>
      <trkpt lat="45.60033" lon="2.78384">
        <ele>1506</ele>
        <time>2015-04-14T10:29:22.181Z</time>
      </trkpt>
      <trkpt lat="45.60032" lon="2.78381">
        <ele>1504</ele>
        <time>2015-04-14T10:31:01.219Z</time>
      </trkpt>
      <trkpt lat="45.6003" lon="2.78378">
        <ele>1507</ele>
        <time>2015-04-14T11:07:18.612Z</time>
      </trkpt>
      <trkpt lat="45.60036" lon="2.78386">
        <ele>1507</ele>
        <time>2015-04-14T11:08:51.327Z</time>
      </trkpt>
      <trkpt lat="45.60036" lon="2.78388">
        <ele>1507</ele>
        <time>2015-04-14T11:08:52.230Z</time>
      </trkpt>
      <trkpt lat="45.60034" lon="2.784">
        <ele>1504</ele>
        <time>2015-04-14T11:09:02.293Z</time>
      </trkpt>
      <trkpt lat="45.60034" lon="2.78401">
        <ele>1504</ele>
        <time>2015-04-14T11:09:03.162Z</time>
      </trkpt>
      <trkpt lat="45.60027" lon="2.78409">
        <ele>1503</ele>
        <time>2015-04-14T11:09:13.091Z</time>
      </trkpt>
      <trkpt lat="45.60027" lon="2.78409">
        <ele>1503</ele>
        <time>2015-04-14T11:09:14.511Z</time>
      </trkpt>
      <trkpt lat="45.60021" lon="2.78417">
        <ele>1505</ele>
        <time>2015-04-14T11:09:24.158Z</time>
      </trkpt>
      <trkpt lat="45.6002" lon="2.78419">
        <ele>1505</ele>
        <time>2015-04-14T11:09:25.317Z</time>
      </trkpt>
      <trkpt lat="45.60013" lon="2.78425">
        <ele>1506</ele>
        <time>2015-04-14T11:09:33.453Z</time>
      </trkpt>
      <trkpt lat="45.60012" lon="2.78426">
        <ele>1506</ele>
        <time>2015-04-14T11:09:34.215Z</time>
      </trkpt>
      <trkpt lat="45.60006" lon="2.78433">
        <ele>1506</ele>
        <time>2015-04-14T11:09:41.221Z</time>
      </trkpt>
      <trkpt lat="45.60006" lon="2.78434">
        <ele>1506</ele>
        <time>2015-04-14T11:09:42.425Z</time>
      </trkpt>
      <trkpt lat="45.6" lon="2.78444">
        <ele>1506</ele>
        <time>2015-04-14T11:09:51.123Z</time>
      </trkpt>
      <trkpt lat="45.6" lon="2.78446">
        <ele>1507</ele>
        <time>2015-04-14T11:09:52.329Z</time>
      </trkpt>
      <trkpt lat="45.60003" lon="2.78457">
        <ele>1506</ele>
        <time>2015-04-14T11:10:04.285Z</time>
      </trkpt>
      <trkpt lat="45.60003" lon="2.78458">
        <ele>1506</ele>
        <time>2015-04-14T11:10:05.318Z</time>
      </trkpt>
      <trkpt lat="45.60007" lon="2.78469">
        <ele>1507</ele>
        <time>2015-04-14T11:10:13.405Z</time>
      </trkpt>
      <trkpt lat="45.60007" lon="2.7847">
        <ele>1507</ele>
        <time>2015-04-14T11:10:14.219Z</time>
      </trkpt>
      <trkpt lat="45.6001" lon="2.78481">
        <ele>1509</ele>
        <time>2015-04-14T11:10:23.315Z</time>
      </trkpt>
      <trkpt lat="45.60011" lon="2.78483">
        <ele>1509</ele>
        <time>2015-04-14T11:10:24.360Z</time>
      </trkpt>
      <trkpt lat="45.60012" lon="2.78495">
        <ele>1510</ele>
        <time>2015-04-14T11:10:32.425Z</time>
      </trkpt>
      <trkpt lat="45.60012" lon="2.78496">
        <ele>1509</ele>
        <time>2015-04-14T11:10:33.265Z</time>
      </trkpt>
      <trkpt lat="45.60013" lon="2.78507">
        <ele>1509</ele>
        <time>2015-04-14T11:10:41.278Z</time>
      </trkpt>
      <trkpt lat="45.60014" lon="2.78509">
        <ele>1510</ele>
        <time>2015-04-14T11:10:42.427Z</time>
      </trkpt>
      <trkpt lat="45.60015" lon="2.78521">
        <ele>1510</ele>
        <time>2015-04-14T11:10:50.365Z</time>
      </trkpt>
      <trkpt lat="45.60015" lon="2.78523">
        <ele>1510</ele>
        <time>2015-04-14T11:10:51.333Z</time>
      </trkpt>
      <trkpt lat="45.60015" lon="2.78535">
        <ele>1511</ele>
        <time>2015-04-14T11:10:58.191Z</time>
      </trkpt>
      <trkpt lat="45.60015" lon="2.78537">
        <ele>1511</ele>
        <time>2015-04-14T11:10:59.352Z</time>
      </trkpt>
      <trkpt lat="45.60013" lon="2.78548">
        <ele>1512</ele>
        <time>2015-04-14T11:11:06.124Z</time>
      </trkpt>
      <trkpt lat="45.60013" lon="2.78584">
        <ele>1512</ele>
        <time>2015-04-14T11:11:32.211Z</time>
      </trkpt>
      <trkpt lat="45.60011" lon="2.78595">
        <ele>1512</ele>
        <time>2015-04-14T11:11:38.395Z</time>
      </trkpt>
      <trkpt lat="45.60012" lon="2.78597">
        <ele>1512</ele>
        <time>2015-04-14T11:11:39.140Z</time>
      </trkpt>
      <trkpt lat="45.60011" lon="2.78608">
        <ele>1513</ele>
        <time>2015-04-14T11:11:45.131Z</time>
      </trkpt>
      <trkpt lat="45.6001" lon="2.7861">
        <ele>1512</ele>
        <time>2015-04-14T11:11:46.102Z</time>
      </trkpt>
      <trkpt lat="45.60006" lon="2.78621">
        <ele>1512</ele>
        <time>2015-04-14T11:11:54.136Z</time>
      </trkpt>
      <trkpt lat="45.60006" lon="2.78623">
        <ele>1512</ele>
        <time>2015-04-14T11:11:55.143Z</time>
      </trkpt>
      <trkpt lat="45.59998" lon="2.78628">
        <ele>1517</ele>
        <time>2015-04-14T11:12:06.130Z</time>
      </trkpt>
      <trkpt lat="45.59998" lon="2.78629">
        <ele>1516</ele>
        <time>2015-04-14T11:12:07.115Z</time>
      </trkpt>
      <trkpt lat="45.5999" lon="2.78636">
        <ele>1517</ele>
        <time>2015-04-14T11:12:17.134Z</time>
      </trkpt>
      <trkpt lat="45.5999" lon="2.78637">
        <ele>1517</ele>
        <time>2015-04-14T11:12:18.101Z</time>
      </trkpt>
      <trkpt lat="45.59986" lon="2.78648">
        <ele>1519</ele>
        <time>2015-04-14T11:12:27.100Z</time>
      </trkpt>
      <trkpt lat="45.59986" lon="2.78649">
        <ele>1519</ele>
        <time>2015-04-14T11:12:28.101Z</time>
      </trkpt>
      <trkpt lat="45.5998" lon="2.78659">
        <ele>1520</ele>
        <time>2015-04-14T11:12:36.099Z</time>
      </trkpt>
      <trkpt lat="45.59979" lon="2.7866">
        <ele>1520</ele>
        <time>2015-04-14T11:12:37.108Z</time>
      </trkpt>
      <trkpt lat="45.59974" lon="2.7867">
        <ele>1519</ele>
        <time>2015-04-14T11:12:46.108Z</time>
      </trkpt>
      <trkpt lat="45.59974" lon="2.78671">
        <ele>1519</ele>
        <time>2015-04-14T11:12:47.106Z</time>
      </trkpt>
      <trkpt lat="45.59969" lon="2.7868">
        <ele>1519</ele>
        <time>2015-04-14T11:12:55.144Z</time>
      </trkpt>
      <trkpt lat="45.59968" lon="2.78681">
        <ele>1519</ele>
        <time>2015-04-14T11:12:56.132Z</time>
      </trkpt>
      <trkpt lat="45.59963" lon="2.78691">
        <ele>1520</ele>
        <time>2015-04-14T11:13:04.099Z</time>
      </trkpt>
      <trkpt lat="45.59962" lon="2.78692">
        <ele>1520</ele>
        <time>2015-04-14T11:13:05.430Z</time>
      </trkpt>
      <trkpt lat="45.59957" lon="2.78701">
        <ele>1520</ele>
        <time>2015-04-14T11:13:14.097Z</time>
      </trkpt>
      <trkpt lat="45.59956" lon="2.78703">
        <ele>1520</ele>
        <time>2015-04-14T11:13:15.098Z</time>
      </trkpt>
      <trkpt lat="45.59952" lon="2.78713">
        <ele>1522</ele>
        <time>2015-04-14T11:13:23.160Z</time>
      </trkpt>
      <trkpt lat="45.59952" lon="2.78715">
        <ele>1522</ele>
        <time>2015-04-14T11:13:24.200Z</time>
      </trkpt>
      <trkpt lat="45.59947" lon="2.78724">
        <ele>1522</ele>
        <time>2015-04-14T11:13:32.121Z</time>
      </trkpt>
      <trkpt lat="45.59946" lon="2.78725">
        <ele>1523</ele>
        <time>2015-04-14T11:13:33.107Z</time>
      </trkpt>
      <trkpt lat="45.59939" lon="2.78733">
        <ele>1523</ele>
        <time>2015-04-14T11:13:41.170Z</time>
      </trkpt>
      <trkpt lat="45.59938" lon="2.78733">
        <ele>1523</ele>
        <time>2015-04-14T11:13:42.178Z</time>
      </trkpt>
      <trkpt lat="45.59932" lon="2.78742">
        <ele>1523</ele>
        <time>2015-04-14T11:13:49.173Z</time>
      </trkpt>
      <trkpt lat="45.59931" lon="2.78743">
        <ele>1523</ele>
        <time>2015-04-14T11:13:50.177Z</time>
      </trkpt>
      <trkpt lat="45.59927" lon="2.78753">
        <ele>1523</ele>
        <time>2015-04-14T11:13:57.101Z</time>
      </trkpt>
      <trkpt lat="45.59927" lon="2.78754">
        <ele>1523</ele>
        <time>2015-04-14T11:13:58.104Z</time>
      </trkpt>
      <trkpt lat="45.59925" lon="2.78766">
        <ele>1523</ele>
        <time>2015-04-14T11:14:06.155Z</time>
      </trkpt>
      <trkpt lat="45.59925" lon="2.78767">
        <ele>1523</ele>
        <time>2015-04-14T11:14:07.139Z</time>
      </trkpt>
      <trkpt lat="45.59923" lon="2.78779">
        <ele>1523</ele>
        <time>2015-04-14T11:14:15.162Z</time>
      </trkpt>
      <trkpt lat="45.59923" lon="2.78781">
        <ele>1523</ele>
        <time>2015-04-14T11:14:16.160Z</time>
      </trkpt>
      <trkpt lat="45.5992" lon="2.78793">
        <ele>1523</ele>
        <time>2015-04-14T11:14:24.118Z</time>
      </trkpt>
      <trkpt lat="45.5992" lon="2.78794">
        <ele>1523</ele>
        <time>2015-04-14T11:14:25.124Z</time>
      </trkpt>
      <trkpt lat="45.59918" lon="2.78806">
        <ele>1524</ele>
        <time>2015-04-14T11:14:34.244Z</time>
      </trkpt>
      <trkpt lat="45.59918" lon="2.78807">
        <ele>1524</ele>
        <time>2015-04-14T11:14:35.120Z</time>
      </trkpt>
      <trkpt lat="45.59914" lon="2.78817">
        <ele>1526</ele>
        <time>2015-04-14T11:15:02.093Z</time>
      </trkpt>
      <trkpt lat="45.59913" lon="2.78819">
        <ele>1526</ele>
        <time>2015-04-14T11:15:03.111Z</time>
      </trkpt>
      <trkpt lat="45.5991" lon="2.7883">
        <ele>1528</ele>
        <time>2015-04-14T11:15:10.113Z</time>
      </trkpt>
      <trkpt lat="45.5991" lon="2.78831">
        <ele>1527</ele>
        <time>2015-04-14T11:15:11.190Z</time>
      </trkpt>
      <trkpt lat="45.59905" lon="2.78841">
        <ele>1529</ele>
        <time>2015-04-14T11:15:18.242Z</time>
      </trkpt>
      <trkpt lat="45.59904" lon="2.78843">
        <ele>1529</ele>
        <time>2015-04-14T11:15:19.161Z</time>
      </trkpt>
      <trkpt lat="45.59898" lon="2.78851">
        <ele>1530</ele>
        <time>2015-04-14T11:15:26.101Z</time>
      </trkpt>
      <trkpt lat="45.59898" lon="2.78852">
        <ele>1530</ele>
        <time>2015-04-14T11:15:27.100Z</time>
      </trkpt>
      <trkpt lat="45.59892" lon="2.78861">
        <ele>1530</ele>
        <time>2015-04-14T11:15:35.231Z</time>
      </trkpt>
      <trkpt lat="45.59892" lon="2.78862">
        <ele>1531</ele>
        <time>2015-04-14T11:15:36.213Z</time>
      </trkpt>
      <trkpt lat="45.59885" lon="2.78869">
        <ele>1531</ele>
        <time>2015-04-14T11:15:44.103Z</time>
      </trkpt>
      <trkpt lat="45.59884" lon="2.7887">
        <ele>1531</ele>
        <time>2015-04-14T11:15:45.161Z</time>
      </trkpt>
      <trkpt lat="45.59876" lon="2.78876">
        <ele>1533</ele>
        <time>2015-04-14T11:15:53.116Z</time>
      </trkpt>
      <trkpt lat="45.59875" lon="2.78877">
        <ele>1533</ele>
        <time>2015-04-14T11:15:54.117Z</time>
      </trkpt>
      <trkpt lat="45.59867" lon="2.78882">
        <ele>1534</ele>
        <time>2015-04-14T11:16:02.094Z</time>
      </trkpt>
      <trkpt lat="45.59866" lon="2.78882">
        <ele>1534</ele>
        <time>2015-04-14T11:16:03.101Z</time>
      </trkpt>
      <trkpt lat="45.59858" lon="2.78888">
        <ele>1536</ele>
        <time>2015-04-14T11:16:11.190Z</time>
      </trkpt>
      <trkpt lat="45.59857" lon="2.78889">
        <ele>1536</ele>
        <time>2015-04-14T11:16:12.120Z</time>
      </trkpt>
      <trkpt lat="45.59852" lon="2.78897">
        <ele>1537</ele>
        <time>2015-04-14T11:16:20.092Z</time>
      </trkpt>
      <trkpt lat="45.59851" lon="2.78898">
        <ele>1537</ele>
        <time>2015-04-14T11:16:21.101Z</time>
      </trkpt>
      <trkpt lat="45.59848" lon="2.78909">
        <ele>1537</ele>
        <time>2015-04-14T11:16:28.195Z</time>
      </trkpt>
      <trkpt lat="45.59847" lon="2.78911">
        <ele>1536</ele>
        <time>2015-04-14T11:16:29.100Z</time>
      </trkpt>
      <trkpt lat="45.59843" lon="2.78921">
        <ele>1536</ele>
        <time>2015-04-14T11:16:37.094Z</time>
      </trkpt>
      <trkpt lat="45.59842" lon="2.78922">
        <ele>1535</ele>
        <time>2015-04-14T11:16:38.204Z</time>
      </trkpt>
      <trkpt lat="45.59835" lon="2.78929">
        <ele>1535</ele>
        <time>2015-04-14T11:16:45.091Z</time>
      </trkpt>
      <trkpt lat="45.59835" lon="2.7893">
        <ele>1535</ele>
        <time>2015-04-14T11:16:46.100Z</time>
      </trkpt>
      <trkpt lat="45.59826" lon="2.78934">
        <ele>1536</ele>
        <time>2015-04-14T11:16:58.180Z</time>
      </trkpt>
      <trkpt lat="45.59825" lon="2.78935">
        <ele>1536</ele>
        <time>2015-04-14T11:16:59.132Z</time>
      </trkpt>
      <trkpt lat="45.59818" lon="2.7894">
        <ele>1538</ele>
        <time>2015-04-14T11:17:08.448Z</time>
      </trkpt>
      <trkpt lat="45.59817" lon="2.7894">
        <ele>1538</ele>
        <time>2015-04-14T11:17:09.468Z</time>
      </trkpt>
      <trkpt lat="45.59824" lon="2.78946">
        <ele>1532</ele>
        <time>2015-04-14T11:17:46.447Z</time>
      </trkpt>
      <trkpt lat="45.59826" lon="2.78946">
        <ele>1532</ele>
        <time>2015-04-14T11:17:47.427Z</time>
      </trkpt>
      <trkpt lat="45.59832" lon="2.78954">
        <ele>1529</ele>
        <time>2015-04-14T11:21:37.494Z</time>
      </trkpt>
      <trkpt lat="45.59832" lon="2.78956">
        <ele>1528</ele>
        <time>2015-04-14T11:21:38.519Z</time>
      </trkpt>
      <trkpt lat="45.59835" lon="2.78968">
        <ele>1527</ele>
        <time>2015-04-14T11:21:49.431Z</time>
      </trkpt>
      <trkpt lat="45.59835" lon="2.7897">
        <ele>1527</ele>
        <time>2015-04-14T11:21:50.474Z</time>
      </trkpt>
      <trkpt lat="45.59837" lon="2.78981">
        <ele>1528</ele>
        <time>2015-04-14T11:21:56.607Z</time>
      </trkpt>
      <trkpt lat="45.59837" lon="2.78982">
        <ele>1528</ele>
        <time>2015-04-14T11:21:57.437Z</time>
      </trkpt>
      <trkpt lat="45.59841" lon="2.78992">
        <ele>1530</ele>
        <time>2015-04-14T11:22:04.430Z</time>
      </trkpt>
      <trkpt lat="45.59842" lon="2.78994">
        <ele>1530</ele>
        <time>2015-04-14T11:22:05.705Z</time>
      </trkpt>
      <trkpt lat="45.59845" lon="2.79005">
        <ele>1532</ele>
        <time>2015-04-14T11:22:12.984Z</time>
      </trkpt>
      <trkpt lat="45.59845" lon="2.79007">
        <ele>1532</ele>
        <time>2015-04-14T11:22:13.437Z</time>
      </trkpt>
      <trkpt lat="45.59849" lon="2.79018">
        <ele>1533</ele>
        <time>2015-04-14T11:22:20.428Z</time>
      </trkpt>
      <trkpt lat="45.59849" lon="2.79019">
        <ele>1532</ele>
        <time>2015-04-14T11:22:21.431Z</time>
      </trkpt>
      <trkpt lat="45.59851" lon="2.7903">
        <ele>1534</ele>
        <time>2015-04-14T11:22:28.437Z</time>
      </trkpt>
      <trkpt lat="45.59852" lon="2.79032">
        <ele>1534</ele>
        <time>2015-04-14T11:22:29.439Z</time>
      </trkpt>
      <trkpt lat="45.59856" lon="2.79042">
        <ele>1532</ele>
        <time>2015-04-14T11:22:36.437Z</time>
      </trkpt>
      <trkpt lat="45.59857" lon="2.79044">
        <ele>1531</ele>
        <time>2015-04-14T11:22:37.432Z</time>
      </trkpt>
      <trkpt lat="45.59864" lon="2.79051">
        <ele>1530</ele>
        <time>2015-04-14T11:22:44.436Z</time>
      </trkpt>
      <trkpt lat="45.59864" lon="2.79053">
        <ele>1529</ele>
        <time>2015-04-14T11:22:45.436Z</time>
      </trkpt>
      <trkpt lat="45.59867" lon="2.79065">
        <ele>1529</ele>
        <time>2015-04-14T11:22:53.584Z</time>
      </trkpt>
      <trkpt lat="45.59867" lon="2.79066">
        <ele>1529</ele>
        <time>2015-04-14T11:22:54.618Z</time>
      </trkpt>
      <trkpt lat="45.5987" lon="2.79077">
        <ele>1529</ele>
        <time>2015-04-14T11:23:01.437Z</time>
      </trkpt>
      <trkpt lat="45.59871" lon="2.79078">
        <ele>1529</ele>
        <time>2015-04-14T11:23:02.532Z</time>
      </trkpt>
      <trkpt lat="45.59876" lon="2.79088">
        <ele>1528</ele>
        <time>2015-04-14T11:23:10.506Z</time>
      </trkpt>
      <trkpt lat="45.59876" lon="2.79089">
        <ele>1528</ele>
        <time>2015-04-14T11:23:11.512Z</time>
      </trkpt>
      <trkpt lat="45.59877" lon="2.79102">
        <ele>1528</ele>
        <time>2015-04-14T11:23:18.634Z</time>
      </trkpt>
      <trkpt lat="45.59878" lon="2.79103">
        <ele>1528</ele>
        <time>2015-04-14T11:23:19.615Z</time>
      </trkpt>
      <trkpt lat="45.59882" lon="2.79114">
        <ele>1528</ele>
        <time>2015-04-14T11:23:27.438Z</time>
      </trkpt>
      <trkpt lat="45.59882" lon="2.79116">
        <ele>1528</ele>
        <time>2015-04-14T11:23:28.436Z</time>
      </trkpt>
      <trkpt lat="45.59887" lon="2.79126">
        <ele>1528</ele>
        <time>2015-04-14T11:23:35.855Z</time>
      </trkpt>
      <trkpt lat="45.59888" lon="2.79127">
        <ele>1527</ele>
        <time>2015-04-14T11:23:36.435Z</time>
      </trkpt>
      <trkpt lat="45.59894" lon="2.79134">
        <ele>1526</ele>
        <time>2015-04-14T11:23:44.435Z</time>
      </trkpt>
      <trkpt lat="45.59895" lon="2.79135">
        <ele>1525</ele>
        <time>2015-04-14T11:23:45.496Z</time>
      </trkpt>
      <trkpt lat="45.59902" lon="2.79142">
        <ele>1524</ele>
        <time>2015-04-14T11:23:53.436Z</time>
      </trkpt>
      <trkpt lat="45.59903" lon="2.79143">
        <ele>1524</ele>
        <time>2015-04-14T11:23:54.431Z</time>
      </trkpt>
      <trkpt lat="45.59907" lon="2.79153">
        <ele>1522</ele>
        <time>2015-04-14T11:24:01.490Z</time>
      </trkpt>
      <trkpt lat="45.59907" lon="2.79154">
        <ele>1521</ele>
        <time>2015-04-14T11:24:02.455Z</time>
      </trkpt>
      <trkpt lat="45.59913" lon="2.79163">
        <ele>1523</ele>
        <time>2015-04-14T11:24:09.514Z</time>
      </trkpt>
      <trkpt lat="45.59914" lon="2.79164">
        <ele>1522</ele>
        <time>2015-04-14T11:24:10.466Z</time>
      </trkpt>
      <trkpt lat="45.59921" lon="2.7917">
        <ele>1522</ele>
        <time>2015-04-14T11:24:17.492Z</time>
      </trkpt>
      <trkpt lat="45.59922" lon="2.79172">
        <ele>1521</ele>
        <time>2015-04-14T11:24:18.540Z</time>
      </trkpt>
      <trkpt lat="45.59929" lon="2.79179">
        <ele>1521</ele>
        <time>2015-04-14T11:24:26.662Z</time>
      </trkpt>
      <trkpt lat="45.5993" lon="2.79179">
        <ele>1521</ele>
        <time>2015-04-14T11:24:27.435Z</time>
      </trkpt>
      <trkpt lat="45.59936" lon="2.79186">
        <ele>1520</ele>
        <time>2015-04-14T11:24:35.515Z</time>
      </trkpt>
      <trkpt lat="45.59937" lon="2.79187">
        <ele>1519</ele>
        <time>2015-04-14T11:24:36.518Z</time>
      </trkpt>
      <trkpt lat="45.59943" lon="2.79196">
        <ele>1518</ele>
        <time>2015-04-14T11:24:53.433Z</time>
      </trkpt>
      <trkpt lat="45.59943" lon="2.79196">
        <ele>1518</ele>
        <time>2015-04-14T11:24:54.511Z</time>
      </trkpt>
      <trkpt lat="45.59949" lon="2.79206">
        <ele>1516</ele>
        <time>2015-04-14T11:25:06.627Z</time>
      </trkpt>
      <trkpt lat="45.59949" lon="2.79207">
        <ele>1515</ele>
        <time>2015-04-14T11:25:07.448Z</time>
      </trkpt>
      <trkpt lat="45.59954" lon="2.79216">
        <ele>1514</ele>
        <time>2015-04-14T11:25:13.529Z</time>
      </trkpt>
      <trkpt lat="45.59955" lon="2.79218">
        <ele>1514</ele>
        <time>2015-04-14T11:25:14.465Z</time>
      </trkpt>
      <trkpt lat="45.59959" lon="2.79228">
        <ele>1515</ele>
        <time>2015-04-14T11:25:21.461Z</time>
      </trkpt>
      <trkpt lat="45.5996" lon="2.79229">
        <ele>1515</ele>
        <time>2015-04-14T11:25:22.489Z</time>
      </trkpt>
      <trkpt lat="45.59968" lon="2.79234">
        <ele>1514</ele>
        <time>2015-04-14T11:25:33.440Z</time>
      </trkpt>
      <trkpt lat="45.59969" lon="2.79233">
        <ele>1515</ele>
        <time>2015-04-14T11:25:34.459Z</time>
      </trkpt>
      <trkpt lat="45.59977" lon="2.79235">
        <ele>1512</ele>
        <time>2015-04-14T11:25:45.480Z</time>
      </trkpt>
      <trkpt lat="45.59978" lon="2.79236">
        <ele>1512</ele>
        <time>2015-04-14T11:25:46.450Z</time>
      </trkpt>
      <trkpt lat="45.59986" lon="2.79241">
        <ele>1511</ele>
        <time>2015-04-14T11:25:54.504Z</time>
      </trkpt>
      <trkpt lat="45.59987" lon="2.79241">
        <ele>1512</ele>
        <time>2015-04-14T11:25:55.626Z</time>
      </trkpt>
      <trkpt lat="45.59995" lon="2.79244">
        <ele>1511</ele>
        <time>2015-04-14T11:26:03.519Z</time>
      </trkpt>
      <trkpt lat="45.59996" lon="2.79245">
        <ele>1510</ele>
        <time>2015-04-14T11:26:04.435Z</time>
      </trkpt>
      <trkpt lat="45.60003" lon="2.7925">
        <ele>1508</ele>
        <time>2015-04-14T11:26:14.503Z</time>
      </trkpt>
      <trkpt lat="45.60004" lon="2.79251">
        <ele>1508</ele>
        <time>2015-04-14T11:26:15.487Z</time>
      </trkpt>
      <trkpt lat="45.60011" lon="2.79258">
        <ele>1507</ele>
        <time>2015-04-14T11:26:24.440Z</time>
      </trkpt>
      <trkpt lat="45.60012" lon="2.79259">
        <ele>1506</ele>
        <time>2015-04-14T11:26:25.433Z</time>
      </trkpt>
      <trkpt lat="45.6002" lon="2.79264">
        <ele>1505</ele>
        <time>2015-04-14T11:26:35.452Z</time>
      </trkpt>
      <trkpt lat="45.60021" lon="2.79264">
        <ele>1504</ele>
        <time>2015-04-14T11:26:36.435Z</time>
      </trkpt>
      <trkpt lat="45.60029" lon="2.79267">
        <ele>1502</ele>
        <time>2015-04-14T11:26:46.120Z</time>
      </trkpt>
      <trkpt lat="45.6003" lon="2.79267">
        <ele>1503</ele>
        <time>2015-04-14T11:26:47.028Z</time>
      </trkpt>
      <trkpt lat="45.60038" lon="2.7927">
        <ele>1503</ele>
        <time>2015-04-14T11:26:55.878Z</time>
      </trkpt>
      <trkpt lat="45.6004" lon="2.7927">
        <ele>1502</ele>
        <time>2015-04-14T11:26:56.878Z</time>
      </trkpt>
      <trkpt lat="45.60048" lon="2.79269">
        <ele>1501</ele>
        <time>2015-04-14T11:27:08.942Z</time>
      </trkpt>
      <trkpt lat="45.60049" lon="2.79269">
        <ele>1502</ele>
        <time>2015-04-14T11:27:09.904Z</time>
      </trkpt>
      <trkpt lat="45.60054" lon="2.79279">
        <ele>1501</ele>
        <time>2015-04-14T11:27:23.878Z</time>
      </trkpt>
      <trkpt lat="45.60055" lon="2.79279">
        <ele>1501</ele>
        <time>2015-04-14T11:27:24.942Z</time>
      </trkpt>
      <trkpt lat="45.60063" lon="2.79285">
        <ele>1501</ele>
        <time>2015-04-14T11:27:37.896Z</time>
      </trkpt>
      <trkpt lat="45.60063" lon="2.79285">
        <ele>1501</ele>
        <time>2015-04-14T11:27:38.885Z</time>
      </trkpt>
      <trkpt lat="45.60072" lon="2.79286">
        <ele>1499</ele>
        <time>2015-04-14T11:28:04.876Z</time>
      </trkpt>
      <trkpt lat="45.60073" lon="2.79286">
        <ele>1499</ele>
        <time>2015-04-14T11:28:06.073Z</time>
      </trkpt>
      <trkpt lat="45.60081" lon="2.79287">
        <ele>1500</ele>
        <time>2015-04-14T11:28:17.989Z</time>
      </trkpt>
      <trkpt lat="45.60082" lon="2.79287">
        <ele>1499</ele>
        <time>2015-04-14T11:28:19.191Z</time>
      </trkpt>
      <trkpt lat="45.6009" lon="2.79292">
        <ele>1496</ele>
        <time>2015-04-14T11:28:31.948Z</time>
      </trkpt>
      <trkpt lat="45.6009" lon="2.79293">
        <ele>1496</ele>
        <time>2015-04-14T11:28:33.200Z</time>
      </trkpt>
      <trkpt lat="45.60097" lon="2.79301">
        <ele>1488</ele>
        <time>2015-04-14T11:29:10.940Z</time>
      </trkpt>
      <trkpt lat="45.60097" lon="2.79301">
        <ele>1488</ele>
        <time>2015-04-14T11:29:11.876Z</time>
      </trkpt>
      <trkpt lat="45.60105" lon="2.79308">
        <ele>1486</ele>
        <time>2015-04-14T11:29:44.930Z</time>
      </trkpt>
      <trkpt lat="45.60105" lon="2.79309">
        <ele>1486</ele>
        <time>2015-04-14T11:29:45.883Z</time>
      </trkpt>
      <trkpt lat="45.60112" lon="2.79315">
        <ele>1484</ele>
        <time>2015-04-14T11:30:15.006Z</time>
      </trkpt>
      <trkpt lat="45.60113" lon="2.79316">
        <ele>1484</ele>
        <time>2015-04-14T11:30:16.091Z</time>
      </trkpt>
      <trkpt lat="45.60119" lon="2.79323">
        <ele>1477</ele>
        <time>2015-04-14T11:31:11.078Z</time>
      </trkpt>
      <trkpt lat="45.6012" lon="2.79323">
        <ele>1477</ele>
        <time>2015-04-14T11:31:12.052Z</time>
      </trkpt>
      <trkpt lat="45.60126" lon="2.79332">
        <ele>1471</ele>
        <time>2015-04-14T11:31:41.955Z</time>
      </trkpt>
      <trkpt lat="45.60126" lon="2.79333">
        <ele>1471</ele>
        <time>2015-04-14T11:31:42.887Z</time>
      </trkpt>
      <trkpt lat="45.60131" lon="2.79343">
        <ele>1468</ele>
        <time>2015-04-14T11:32:02.871Z</time>
      </trkpt>
      <trkpt lat="45.60132" lon="2.79343">
        <ele>1467</ele>
        <time>2015-04-14T11:32:03.882Z</time>
      </trkpt>
      <trkpt lat="45.60136" lon="2.79353">
        <ele>1464</ele>
        <time>2015-04-14T11:32:13.871Z</time>
      </trkpt>
      <trkpt lat="45.60137" lon="2.79354">
        <ele>1464</ele>
        <time>2015-04-14T11:32:15.064Z</time>
      </trkpt>
      <trkpt lat="45.6014" lon="2.79366">
        <ele>1463</ele>
        <time>2015-04-14T11:32:47.131Z</time>
      </trkpt>
      <trkpt lat="45.60139" lon="2.79367">
        <ele>1463</ele>
        <time>2015-04-14T11:32:47.877Z</time>
      </trkpt>
      <trkpt lat="45.60142" lon="2.79379">
        <ele>1458</ele>
        <time>2015-04-14T11:33:14.014Z</time>
      </trkpt>
      <trkpt lat="45.60142" lon="2.79381">
        <ele>1458</ele>
        <time>2015-04-14T11:33:14.932Z</time>
      </trkpt>
      <trkpt lat="45.60144" lon="2.79393">
        <ele>1454</ele>
        <time>2015-04-14T11:33:24.869Z</time>
      </trkpt>
      <trkpt lat="45.60144" lon="2.79394">
        <ele>1454</ele>
        <time>2015-04-14T11:33:26.005Z</time>
      </trkpt>
      <trkpt lat="45.60148" lon="2.79405">
        <ele>1450</ele>
        <time>2015-04-14T11:33:34.183Z</time>
      </trkpt>
      <trkpt lat="45.60148" lon="2.79406">
        <ele>1451</ele>
        <time>2015-04-14T11:33:35.169Z</time>
      </trkpt>
      <trkpt lat="45.6015" lon="2.79418">
        <ele>1451</ele>
        <time>2015-04-14T11:33:42.035Z</time>
      </trkpt>
      <trkpt lat="45.60151" lon="2.7942">
        <ele>1450</ele>
        <time>2015-04-14T11:33:42.869Z</time>
      </trkpt>
      <trkpt lat="45.60153" lon="2.7943">
        <ele>1450</ele>
        <time>2015-04-14T11:33:50.130Z</time>
      </trkpt>
      <trkpt lat="45.60153" lon="2.79432">
        <ele>1450</ele>
        <time>2015-04-14T11:33:50.871Z</time>
      </trkpt>
      <trkpt lat="45.60156" lon="2.79444">
        <ele>1450</ele>
        <time>2015-04-14T11:33:59.142Z</time>
      </trkpt>
      <trkpt lat="45.60156" lon="2.79446">
        <ele>1450</ele>
        <time>2015-04-14T11:33:59.924Z</time>
      </trkpt>
      <trkpt lat="45.60158" lon="2.79458">
        <ele>1448</ele>
        <time>2015-04-14T11:34:07.889Z</time>
      </trkpt>
      <trkpt lat="45.60158" lon="2.79459">
        <ele>1448</ele>
        <time>2015-04-14T11:34:09.055Z</time>
      </trkpt>
      <trkpt lat="45.60158" lon="2.79472">
        <ele>1448</ele>
        <time>2015-04-14T11:34:17.982Z</time>
      </trkpt>
      <trkpt lat="45.60158" lon="2.79473">
        <ele>1448</ele>
        <time>2015-04-14T11:34:18.923Z</time>
      </trkpt>
      <trkpt lat="45.60156" lon="2.79485">
        <ele>1448</ele>
        <time>2015-04-14T11:34:25.075Z</time>
      </trkpt>
      <trkpt lat="45.60156" lon="2.79486">
        <ele>1448</ele>
        <time>2015-04-14T11:34:25.875Z</time>
      </trkpt>
      <trkpt lat="45.60156" lon="2.79497">
        <ele>1447</ele>
        <time>2015-04-14T11:34:31.880Z</time>
      </trkpt>
      <trkpt lat="45.60156" lon="2.79499">
        <ele>1447</ele>
        <time>2015-04-14T11:34:32.974Z</time>
      </trkpt>
      <trkpt lat="45.60157" lon="2.79511">
        <ele>1447</ele>
        <time>2015-04-14T11:34:38.868Z</time>
      </trkpt>
      <trkpt lat="45.60156" lon="2.79512">
        <ele>1446</ele>
        <time>2015-04-14T11:34:39.867Z</time>
      </trkpt>
      <trkpt lat="45.60155" lon="2.79525">
        <ele>1447</ele>
        <time>2015-04-14T11:35:12.938Z</time>
      </trkpt>
      <trkpt lat="45.60154" lon="2.79525">
        <ele>1447</ele>
        <time>2015-04-14T11:35:14.534Z</time>
      </trkpt>
      <trkpt lat="45.60155" lon="2.79538">
        <ele>1447</ele>
        <time>2015-04-14T11:35:35.898Z</time>
      </trkpt>
      <trkpt lat="45.60156" lon="2.79539">
        <ele>1446</ele>
        <time>2015-04-14T11:35:36.897Z</time>
      </trkpt>
      <trkpt lat="45.60157" lon="2.7955">
        <ele>1445</ele>
        <time>2015-04-14T11:35:43.093Z</time>
      </trkpt>
      <trkpt lat="45.60157" lon="2.79552">
        <ele>1444</ele>
        <time>2015-04-14T11:35:43.887Z</time>
      </trkpt>
      <trkpt lat="45.6016" lon="2.79563">
        <ele>1444</ele>
        <time>2015-04-14T11:35:49.940Z</time>
      </trkpt>
      <trkpt lat="45.60161" lon="2.79565">
        <ele>1445</ele>
        <time>2015-04-14T11:35:50.962Z</time>
      </trkpt>
      <trkpt lat="45.60164" lon="2.79576">
        <ele>1445</ele>
        <time>2015-04-14T11:35:57.967Z</time>
      </trkpt>
      <trkpt lat="45.60165" lon="2.79577">
        <ele>1446</ele>
        <time>2015-04-14T11:35:58.974Z</time>
      </trkpt>
      <trkpt lat="45.60169" lon="2.79588">
        <ele>1448</ele>
        <time>2015-04-14T11:36:05.904Z</time>
      </trkpt>
      <trkpt lat="45.6017" lon="2.7959">
        <ele>1447</ele>
        <time>2015-04-14T11:36:06.872Z</time>
      </trkpt>
      <trkpt lat="45.60175" lon="2.796">
        <ele>1447</ele>
        <time>2015-04-14T11:36:13.947Z</time>
      </trkpt>
      <trkpt lat="45.60176" lon="2.79601">
        <ele>1447</ele>
        <time>2015-04-14T11:36:14.904Z</time>
      </trkpt>
      <trkpt lat="45.60182" lon="2.79609">
        <ele>1446</ele>
        <time>2015-04-14T11:36:22.953Z</time>
      </trkpt>
      <trkpt lat="45.60183" lon="2.79611">
        <ele>1445</ele>
        <time>2015-04-14T11:36:23.954Z</time>
      </trkpt>
      <trkpt lat="45.60187" lon="2.79621">
        <ele>1443</ele>
        <time>2015-04-14T11:36:30.936Z</time>
      </trkpt>
      <trkpt lat="45.60188" lon="2.79622">
        <ele>1443</ele>
        <time>2015-04-14T11:36:31.866Z</time>
      </trkpt>
      <trkpt lat="45.60193" lon="2.79631">
        <ele>1441</ele>
        <time>2015-04-14T11:36:38.926Z</time>
      </trkpt>
      <trkpt lat="45.60194" lon="2.79633">
        <ele>1441</ele>
        <time>2015-04-14T11:36:39.922Z</time>
      </trkpt>
      <trkpt lat="45.60198" lon="2.79643">
        <ele>1443</ele>
        <time>2015-04-14T11:36:47.931Z</time>
      </trkpt>
      <trkpt lat="45.60198" lon="2.79644">
        <ele>1442</ele>
        <time>2015-04-14T11:36:49.023Z</time>
      </trkpt>
      <trkpt lat="45.60202" lon="2.79655">
        <ele>1441</ele>
        <time>2015-04-14T11:36:56.973Z</time>
      </trkpt>
      <trkpt lat="45.60203" lon="2.79656">
        <ele>1439</ele>
        <time>2015-04-14T11:36:57.876Z</time>
      </trkpt>
      <trkpt lat="45.60209" lon="2.79665">
        <ele>1439</ele>
        <time>2015-04-14T11:37:06.872Z</time>
      </trkpt>
      <trkpt lat="45.60209" lon="2.79666">
        <ele>1439</ele>
        <time>2015-04-14T11:37:08.118Z</time>
      </trkpt>
      <trkpt lat="45.60214" lon="2.79676">
        <ele>1439</ele>
        <time>2015-04-14T11:37:17.143Z</time>
      </trkpt>
      <trkpt lat="45.60215" lon="2.79678">
        <ele>1438</ele>
        <time>2015-04-14T11:37:17.906Z</time>
      </trkpt>
      <trkpt lat="45.60216" lon="2.79689">
        <ele>1439</ele>
        <time>2015-04-14T11:37:25.023Z</time>
      </trkpt>
      <trkpt lat="45.60216" lon="2.79691">
        <ele>1439</ele>
        <time>2015-04-14T11:37:25.919Z</time>
      </trkpt>
      <trkpt lat="45.6022" lon="2.79702">
        <ele>1435</ele>
        <time>2015-04-14T11:37:34.943Z</time>
      </trkpt>
      <trkpt lat="45.6022" lon="2.79703">
        <ele>1435</ele>
        <time>2015-04-14T11:37:35.887Z</time>
      </trkpt>
      <trkpt lat="45.60219" lon="2.79716">
        <ele>1433</ele>
        <time>2015-04-14T11:37:47.862Z</time>
      </trkpt>
      <trkpt lat="45.60219" lon="2.79717">
        <ele>1433</ele>
        <time>2015-04-14T11:37:48.989Z</time>
      </trkpt>
      <trkpt lat="45.6022" lon="2.79729">
        <ele>1429</ele>
        <time>2015-04-14T11:38:01.870Z</time>
      </trkpt>
      <trkpt lat="45.6022" lon="2.7973">
        <ele>1429</ele>
        <time>2015-04-14T11:38:02.926Z</time>
      </trkpt>
      <trkpt lat="45.60218" lon="2.79742">
        <ele>1422</ele>
        <time>2015-04-14T11:38:18.949Z</time>
      </trkpt>
      <trkpt lat="45.60218" lon="2.79743">
        <ele>1422</ele>
        <time>2015-04-14T11:38:19.951Z</time>
      </trkpt>
      <trkpt lat="45.60223" lon="2.79753">
        <ele>1419</ele>
        <time>2015-04-14T11:38:31.154Z</time>
      </trkpt>
      <trkpt lat="45.60223" lon="2.79754">
        <ele>1419</ele>
        <time>2015-04-14T11:38:31.861Z</time>
      </trkpt>
      <trkpt lat="45.60231" lon="2.7976">
        <ele>1415</ele>
        <time>2015-04-14T11:38:46.874Z</time>
      </trkpt>
      <trkpt lat="45.60231" lon="2.7976">
        <ele>1414</ele>
        <time>2015-04-14T11:38:47.862Z</time>
      </trkpt>
      <trkpt lat="45.60236" lon="2.7977">
        <ele>1411</ele>
        <time>2015-04-14T11:38:58.350Z</time>
      </trkpt>
      <trkpt lat="45.60237" lon="2.79771">
        <ele>1411</ele>
        <time>2015-04-14T11:38:59.255Z</time>
      </trkpt>
      <trkpt lat="45.6024" lon="2.79781">
        <ele>1411</ele>
        <time>2015-04-14T11:39:08.487Z</time>
      </trkpt>
      <trkpt lat="45.60242" lon="2.79782">
        <ele>1410</ele>
        <time>2015-04-14T11:39:09.265Z</time>
      </trkpt>
      <trkpt lat="45.6025" lon="2.79786">
        <ele>1404</ele>
        <time>2015-04-14T11:39:17.469Z</time>
      </trkpt>
      <trkpt lat="45.6025" lon="2.79787">
        <ele>1404</ele>
        <time>2015-04-14T11:39:18.254Z</time>
      </trkpt>
      <trkpt lat="45.60256" lon="2.79795">
        <ele>1406</ele>
        <time>2015-04-14T11:39:26.508Z</time>
      </trkpt>
      <trkpt lat="45.60256" lon="2.79797">
        <ele>1407</ele>
        <time>2015-04-14T11:39:27.639Z</time>
      </trkpt>
      <trkpt lat="45.60257" lon="2.79809">
        <ele>1408</ele>
        <time>2015-04-14T11:39:35.358Z</time>
      </trkpt>
      <trkpt lat="45.60257" lon="2.7981">
        <ele>1408</ele>
        <time>2015-04-14T11:39:36.266Z</time>
      </trkpt>
      <trkpt lat="45.6026" lon="2.79822">
        <ele>1405</ele>
        <time>2015-04-14T11:39:46.352Z</time>
      </trkpt>
      <trkpt lat="45.6026" lon="2.79823">
        <ele>1405</ele>
        <time>2015-04-14T11:39:47.353Z</time>
      </trkpt>
      <trkpt lat="45.60255" lon="2.79833">
        <ele>1405</ele>
        <time>2015-04-14T11:39:56.275Z</time>
      </trkpt>
      <trkpt lat="45.60255" lon="2.79835">
        <ele>1405</ele>
        <time>2015-04-14T11:39:57.350Z</time>
      </trkpt>
      <trkpt lat="45.60257" lon="2.79846">
        <ele>1403</ele>
        <time>2015-04-14T11:40:05.489Z</time>
      </trkpt>
      <trkpt lat="45.60258" lon="2.79847">
        <ele>1402</ele>
        <time>2015-04-14T11:40:06.255Z</time>
      </trkpt>
      <trkpt lat="45.60262" lon="2.79857">
        <ele>1397</ele>
        <time>2015-04-14T11:40:13.259Z</time>
      </trkpt>
      <trkpt lat="45.60263" lon="2.79858">
        <ele>1398</ele>
        <time>2015-04-14T11:40:14.255Z</time>
      </trkpt>
      <trkpt lat="45.60267" lon="2.7987">
        <ele>1394</ele>
        <time>2015-04-14T11:40:22.257Z</time>
      </trkpt>
      <trkpt lat="45.60267" lon="2.79871">
        <ele>1394</ele>
        <time>2015-04-14T11:40:23.254Z</time>
      </trkpt>
      <trkpt lat="45.6027" lon="2.79883">
        <ele>1392</ele>
        <time>2015-04-14T11:40:31.343Z</time>
      </trkpt>
      <trkpt lat="45.60271" lon="2.79884">
        <ele>1391</ele>
        <time>2015-04-14T11:40:32.480Z</time>
      </trkpt>
      <trkpt lat="45.60273" lon="2.79895">
        <ele>1391</ele>
        <time>2015-04-14T11:40:39.606Z</time>
      </trkpt>
      <trkpt lat="45.60274" lon="2.79896">
        <ele>1391</ele>
        <time>2015-04-14T11:40:40.333Z</time>
      </trkpt>
      <trkpt lat="45.6028" lon="2.79907">
        <ele>1390</ele>
        <time>2015-04-14T11:40:48.326Z</time>
      </trkpt>
      <trkpt lat="45.6028" lon="2.79908">
        <ele>1389</ele>
        <time>2015-04-14T11:40:49.256Z</time>
      </trkpt>
      <trkpt lat="45.60284" lon="2.79918">
        <ele>1389</ele>
        <time>2015-04-14T11:40:56.577Z</time>
      </trkpt>
      <trkpt lat="45.60285" lon="2.7992">
        <ele>1389</ele>
        <time>2015-04-14T11:40:57.253Z</time>
      </trkpt>
      <trkpt lat="45.6029" lon="2.79929">
        <ele>1385</ele>
        <time>2015-04-14T11:41:04.252Z</time>
      </trkpt>
      <trkpt lat="45.60291" lon="2.7993">
        <ele>1385</ele>
        <time>2015-04-14T11:41:05.345Z</time>
      </trkpt>
      <trkpt lat="45.60295" lon="2.79939">
        <ele>1385</ele>
        <time>2015-04-14T11:41:12.328Z</time>
      </trkpt>
      <trkpt lat="45.60296" lon="2.79941">
        <ele>1385</ele>
        <time>2015-04-14T11:41:13.321Z</time>
      </trkpt>
      <trkpt lat="45.60302" lon="2.79948">
        <ele>1386</ele>
        <time>2015-04-14T11:41:20.252Z</time>
      </trkpt>
      <trkpt lat="45.60302" lon="2.7995">
        <ele>1385</ele>
        <time>2015-04-14T11:41:21.255Z</time>
      </trkpt>
      <trkpt lat="45.60308" lon="2.79958">
        <ele>1385</ele>
        <time>2015-04-14T11:41:28.251Z</time>
      </trkpt>
      <trkpt lat="45.60308" lon="2.79959">
        <ele>1386</ele>
        <time>2015-04-14T11:41:29.258Z</time>
      </trkpt>
      <trkpt lat="45.60313" lon="2.79969">
        <ele>1387</ele>
        <time>2015-04-14T11:41:36.300Z</time>
      </trkpt>
      <trkpt lat="45.60313" lon="2.7997">
        <ele>1386</ele>
        <time>2015-04-14T11:41:37.276Z</time>
      </trkpt>
      <trkpt lat="45.60318" lon="2.7998">
        <ele>1386</ele>
        <time>2015-04-14T11:41:44.251Z</time>
      </trkpt>
      <trkpt lat="45.60319" lon="2.79981">
        <ele>1385</ele>
        <time>2015-04-14T11:41:45.251Z</time>
      </trkpt>
      <trkpt lat="45.60323" lon="2.7999">
        <ele>1385</ele>
        <time>2015-04-14T11:41:54.390Z</time>
      </trkpt>
      <trkpt lat="45.60324" lon="2.79991">
        <ele>1384</ele>
        <time>2015-04-14T11:41:55.253Z</time>
      </trkpt>
      <trkpt lat="45.60322" lon="2.80003">
        <ele>1382</ele>
        <time>2015-04-14T11:42:07.347Z</time>
      </trkpt>
      <trkpt lat="45.60321" lon="2.80003">
        <ele>1382</ele>
        <time>2015-04-14T11:42:08.424Z</time>
      </trkpt>
      <trkpt lat="45.60314" lon="2.80011">
        <ele>1382</ele>
        <time>2015-04-14T11:42:16.323Z</time>
      </trkpt>
      <trkpt lat="45.60313" lon="2.80012">
        <ele>1382</ele>
        <time>2015-04-14T11:42:17.340Z</time>
      </trkpt>
      <trkpt lat="45.60308" lon="2.80021">
        <ele>1382</ele>
        <time>2015-04-14T11:42:25.251Z</time>
      </trkpt>
      <trkpt lat="45.60307" lon="2.80022">
        <ele>1383</ele>
        <time>2015-04-14T11:42:26.251Z</time>
      </trkpt>
      <trkpt lat="45.60304" lon="2.80034">
        <ele>1385</ele>
        <time>2015-04-14T11:42:50.266Z</time>
      </trkpt>
      <trkpt lat="45.60304" lon="2.80035">
        <ele>1385</ele>
        <time>2015-04-14T11:42:51.353Z</time>
      </trkpt>
      <trkpt lat="45.60311" lon="2.80041">
        <ele>1386</ele>
        <time>2015-04-14T11:42:59.256Z</time>
      </trkpt>
      <trkpt lat="45.60312" lon="2.80042">
        <ele>1386</ele>
        <time>2015-04-14T11:43:00.253Z</time>
      </trkpt>
      <trkpt lat="45.6032" lon="2.80044">
        <ele>1386</ele>
        <time>2015-04-14T11:43:08.257Z</time>
      </trkpt>
      <trkpt lat="45.60321" lon="2.80045">
        <ele>1387</ele>
        <time>2015-04-14T11:43:09.249Z</time>
      </trkpt>
      <trkpt lat="45.60329" lon="2.80047">
        <ele>1390</ele>
        <time>2015-04-14T11:43:18.205Z</time>
      </trkpt>
      <trkpt lat="45.6033" lon="2.80048">
        <ele>1390</ele>
        <time>2015-04-14T11:43:19.199Z</time>
      </trkpt>
      <trkpt lat="45.60339" lon="2.80048">
        <ele>1390</ele>
        <time>2015-04-14T11:43:27.599Z</time>
      </trkpt>
      <trkpt lat="45.6034" lon="2.80048">
        <ele>1389</ele>
        <time>2015-04-14T11:43:28.581Z</time>
      </trkpt>
      <trkpt lat="45.60348" lon="2.80047">
        <ele>1390</ele>
        <time>2015-04-14T11:43:36.509Z</time>
      </trkpt>
      <trkpt lat="45.6035" lon="2.80047">
        <ele>1391</ele>
        <time>2015-04-14T11:43:37.207Z</time>
      </trkpt>
      <trkpt lat="45.60358" lon="2.80049">
        <ele>1392</ele>
        <time>2015-04-14T11:43:45.247Z</time>
      </trkpt>
      <trkpt lat="45.60359" lon="2.80049">
        <ele>1393</ele>
        <time>2015-04-14T11:43:46.395Z</time>
      </trkpt>
      <trkpt lat="45.60367" lon="2.80051">
        <ele>1394</ele>
        <time>2015-04-14T11:43:54.273Z</time>
      </trkpt>
      <trkpt lat="45.60368" lon="2.80052">
        <ele>1394</ele>
        <time>2015-04-14T11:43:55.279Z</time>
      </trkpt>
      <trkpt lat="45.60377" lon="2.80052">
        <ele>1395</ele>
        <time>2015-04-14T11:44:03.198Z</time>
      </trkpt>
      <trkpt lat="45.60378" lon="2.80052">
        <ele>1394</ele>
        <time>2015-04-14T11:44:04.228Z</time>
      </trkpt>
      <trkpt lat="45.60387" lon="2.8005">
        <ele>1395</ele>
        <time>2015-04-14T11:44:12.197Z</time>
      </trkpt>
      <trkpt lat="45.60388" lon="2.8005">
        <ele>1396</ele>
        <time>2015-04-14T11:44:13.197Z</time>
      </trkpt>
      <trkpt lat="45.60397" lon="2.80049">
        <ele>1394</ele>
        <time>2015-04-14T11:44:21.197Z</time>
      </trkpt>
      <trkpt lat="45.60398" lon="2.80049">
        <ele>1394</ele>
        <time>2015-04-14T11:44:22.198Z</time>
      </trkpt>
      <trkpt lat="45.60406" lon="2.8005">
        <ele>1394</ele>
        <time>2015-04-14T11:44:30.398Z</time>
      </trkpt>
      <trkpt lat="45.60407" lon="2.8005">
        <ele>1394</ele>
        <time>2015-04-14T11:44:31.464Z</time>
      </trkpt>
      <trkpt lat="45.60416" lon="2.80053">
        <ele>1394</ele>
        <time>2015-04-14T11:44:39.196Z</time>
      </trkpt>
      <trkpt lat="45.60417" lon="2.80054">
        <ele>1394</ele>
        <time>2015-04-14T11:44:40.196Z</time>
      </trkpt>
      <trkpt lat="45.60425" lon="2.80057">
        <ele>1391</ele>
        <time>2015-04-14T11:44:47.196Z</time>
      </trkpt>
      <trkpt lat="45.60426" lon="2.80058">
        <ele>1391</ele>
        <time>2015-04-14T11:44:48.197Z</time>
      </trkpt>
      <trkpt lat="45.60434" lon="2.80059">
        <ele>1391</ele>
        <time>2015-04-14T11:44:55.349Z</time>
      </trkpt>
      <trkpt lat="45.60435" lon="2.80059">
        <ele>1391</ele>
        <time>2015-04-14T11:44:56.196Z</time>
      </trkpt>
      <trkpt lat="45.60443" lon="2.80063">
        <ele>1389</ele>
        <time>2015-04-14T11:45:03.210Z</time>
      </trkpt>
      <trkpt lat="45.60444" lon="2.80063">
        <ele>1389</ele>
        <time>2015-04-14T11:45:04.216Z</time>
      </trkpt>
      <trkpt lat="45.60451" lon="2.8007">
        <ele>1392</ele>
        <time>2015-04-14T11:45:10.196Z</time>
      </trkpt>
      <trkpt lat="45.60452" lon="2.80072">
        <ele>1392</ele>
        <time>2015-04-14T11:45:11.196Z</time>
      </trkpt>
      <trkpt lat="45.6046" lon="2.80077">
        <ele>1393</ele>
        <time>2015-04-14T11:45:17.195Z</time>
      </trkpt>
      <trkpt lat="45.60461" lon="2.80078">
        <ele>1393</ele>
        <time>2015-04-14T11:45:18.195Z</time>
      </trkpt>
      <trkpt lat="45.60468" lon="2.80083">
        <ele>1394</ele>
        <time>2015-04-14T11:45:24.457Z</time>
      </trkpt>
      <trkpt lat="45.60469" lon="2.80084">
        <ele>1394</ele>
        <time>2015-04-14T11:45:25.196Z</time>
      </trkpt>
      <trkpt lat="45.60477" lon="2.8009">
        <ele>1394</ele>
        <time>2015-04-14T11:45:32.196Z</time>
      </trkpt>
      <trkpt lat="45.60478" lon="2.8009">
        <ele>1394</ele>
        <time>2015-04-14T11:45:33.195Z</time>
      </trkpt>
      <trkpt lat="45.60485" lon="2.80094">
        <ele>1394</ele>
        <time>2015-04-14T11:45:40.205Z</time>
      </trkpt>
      <trkpt lat="45.60486" lon="2.80095">
        <ele>1394</ele>
        <time>2015-04-14T11:45:41.330Z</time>
      </trkpt>
      <trkpt lat="45.60494" lon="2.80101">
        <ele>1393</ele>
        <time>2015-04-14T11:45:48.288Z</time>
      </trkpt>
      <trkpt lat="45.60495" lon="2.80102">
        <ele>1392</ele>
        <time>2015-04-14T11:45:49.583Z</time>
      </trkpt>
      <trkpt lat="45.60502" lon="2.8011">
        <ele>1392</ele>
        <time>2015-04-14T11:45:56.212Z</time>
      </trkpt>
      <trkpt lat="45.60503" lon="2.80111">
        <ele>1392</ele>
        <time>2015-04-14T11:45:57.218Z</time>
      </trkpt>
      <trkpt lat="45.60509" lon="2.80119">
        <ele>1393</ele>
        <time>2015-04-14T11:46:04.188Z</time>
      </trkpt>
      <trkpt lat="45.6051" lon="2.8012">
        <ele>1393</ele>
        <time>2015-04-14T11:46:05.195Z</time>
      </trkpt>
      <trkpt lat="45.60515" lon="2.80129">
        <ele>1395</ele>
        <time>2015-04-14T11:46:12.200Z</time>
      </trkpt>
      <trkpt lat="45.60516" lon="2.8013">
        <ele>1395</ele>
        <time>2015-04-14T11:46:13.560Z</time>
      </trkpt>
      <trkpt lat="45.60523" lon="2.80139">
        <ele>1394</ele>
        <time>2015-04-14T11:46:20.205Z</time>
      </trkpt>
      <trkpt lat="45.60524" lon="2.8014">
        <ele>1395</ele>
        <time>2015-04-14T11:46:21.188Z</time>
      </trkpt>
      <trkpt lat="45.60529" lon="2.80149">
        <ele>1394</ele>
        <time>2015-04-14T11:46:28.186Z</time>
      </trkpt>
      <trkpt lat="45.6053" lon="2.80151">
        <ele>1393</ele>
        <time>2015-04-14T11:46:29.187Z</time>
      </trkpt>
      <trkpt lat="45.60535" lon="2.80161">
        <ele>1393</ele>
        <time>2015-04-14T11:46:37.193Z</time>
      </trkpt>
      <trkpt lat="45.60536" lon="2.80162">
        <ele>1393</ele>
        <time>2015-04-14T11:46:38.192Z</time>
      </trkpt>
      <trkpt lat="45.60542" lon="2.80171">
        <ele>1392</ele>
        <time>2015-04-14T11:46:46.195Z</time>
      </trkpt>
      <trkpt lat="45.60543" lon="2.80172">
        <ele>1392</ele>
        <time>2015-04-14T11:46:47.188Z</time>
      </trkpt>
      <trkpt lat="45.60548" lon="2.80181">
        <ele>1393</ele>
        <time>2015-04-14T11:46:54.452Z</time>
      </trkpt>
      <trkpt lat="45.60549" lon="2.80182">
        <ele>1393</ele>
        <time>2015-04-14T11:46:55.274Z</time>
      </trkpt>
      <trkpt lat="45.60555" lon="2.8019">
        <ele>1393</ele>
        <time>2015-04-14T11:47:02.185Z</time>
      </trkpt>
      <trkpt lat="45.60556" lon="2.80192">
        <ele>1393</ele>
        <time>2015-04-14T11:47:03.193Z</time>
      </trkpt>
      <trkpt lat="45.6056" lon="2.80202">
        <ele>1393</ele>
        <time>2015-04-14T11:47:11.194Z</time>
      </trkpt>
      <trkpt lat="45.60561" lon="2.80203">
        <ele>1392</ele>
        <time>2015-04-14T11:47:12.265Z</time>
      </trkpt>
      <trkpt lat="45.60566" lon="2.80212">
        <ele>1393</ele>
        <time>2015-04-14T11:47:19.397Z</time>
      </trkpt>
      <trkpt lat="45.60566" lon="2.80214">
        <ele>1393</ele>
        <time>2015-04-14T11:47:20.193Z</time>
      </trkpt>
      <trkpt lat="45.6057" lon="2.80224">
        <ele>1393</ele>
        <time>2015-04-14T11:47:26.195Z</time>
      </trkpt>
      <trkpt lat="45.60571" lon="2.80226">
        <ele>1393</ele>
        <time>2015-04-14T11:47:27.495Z</time>
      </trkpt>
      <trkpt lat="45.60576" lon="2.80234">
        <ele>1392</ele>
        <time>2015-04-14T11:47:33.265Z</time>
      </trkpt>
      <trkpt lat="45.60577" lon="2.80235">
        <ele>1391</ele>
        <time>2015-04-14T11:47:34.203Z</time>
      </trkpt>
      <trkpt lat="45.60582" lon="2.80245">
        <ele>1393</ele>
        <time>2015-04-14T11:47:41.192Z</time>
      </trkpt>
      <trkpt lat="45.60583" lon="2.80246">
        <ele>1393</ele>
        <time>2015-04-14T11:47:42.200Z</time>
      </trkpt>
      <trkpt lat="45.60588" lon="2.80255">
        <ele>1393</ele>
        <time>2015-04-14T11:47:49.189Z</time>
      </trkpt>
      <trkpt lat="45.60588" lon="2.80256">
        <ele>1393</ele>
        <time>2015-04-14T11:47:50.264Z</time>
      </trkpt>
      <trkpt lat="45.60594" lon="2.80264">
        <ele>1391</ele>
        <time>2015-04-14T11:47:57.288Z</time>
      </trkpt>
      <trkpt lat="45.60595" lon="2.80265">
        <ele>1390</ele>
        <time>2015-04-14T11:47:58.218Z</time>
      </trkpt>
      <trkpt lat="45.60599" lon="2.80275">
        <ele>1391</ele>
        <time>2015-04-14T11:48:05.192Z</time>
      </trkpt>
      <trkpt lat="45.606" lon="2.80276">
        <ele>1391</ele>
        <time>2015-04-14T11:48:06.376Z</time>
      </trkpt>
      <trkpt lat="45.60605" lon="2.80286">
        <ele>1391</ele>
        <time>2015-04-14T11:48:13.204Z</time>
      </trkpt>
      <trkpt lat="45.60606" lon="2.80288">
        <ele>1392</ele>
        <time>2015-04-14T11:48:14.408Z</time>
      </trkpt>
      <trkpt lat="45.6061" lon="2.80298">
        <ele>1391</ele>
        <time>2015-04-14T11:48:21.192Z</time>
      </trkpt>
      <trkpt lat="45.60611" lon="2.803">
        <ele>1390</ele>
        <time>2015-04-14T11:48:22.200Z</time>
      </trkpt>
      <trkpt lat="45.60615" lon="2.8031">
        <ele>1388</ele>
        <time>2015-04-14T11:48:30.191Z</time>
      </trkpt>
      <trkpt lat="45.60616" lon="2.80311">
        <ele>1388</ele>
        <time>2015-04-14T11:48:31.206Z</time>
      </trkpt>
      <trkpt lat="45.60621" lon="2.80321">
        <ele>1388</ele>
        <time>2015-04-14T11:48:38.413Z</time>
      </trkpt>
      <trkpt lat="45.60621" lon="2.80322">
        <ele>1388</ele>
        <time>2015-04-14T11:48:39.200Z</time>
      </trkpt>
      <trkpt lat="45.60624" lon="2.80334">
        <ele>1389</ele>
        <time>2015-04-14T11:48:47.199Z</time>
      </trkpt>
      <trkpt lat="45.60624" lon="2.80336">
        <ele>1390</ele>
        <time>2015-04-14T11:48:48.249Z</time>
      </trkpt>
      <trkpt lat="45.60626" lon="2.80347">
        <ele>1386</ele>
        <time>2015-04-14T11:48:55.219Z</time>
      </trkpt>
      <trkpt lat="45.60627" lon="2.80348">
        <ele>1387</ele>
        <time>2015-04-14T11:48:56.282Z</time>
      </trkpt>
      <trkpt lat="45.60628" lon="2.8036">
        <ele>1387</ele>
        <time>2015-04-14T11:49:03.192Z</time>
      </trkpt>
      <trkpt lat="45.60628" lon="2.80361">
        <ele>1388</ele>
        <time>2015-04-14T11:49:04.196Z</time>
      </trkpt>
      <trkpt lat="45.6063" lon="2.80373">
        <ele>1386</ele>
        <time>2015-04-14T11:49:12.200Z</time>
      </trkpt>
      <trkpt lat="45.6063" lon="2.80374">
        <ele>1386</ele>
        <time>2015-04-14T11:49:13.331Z</time>
      </trkpt>
      <trkpt lat="45.60631" lon="2.80385">
        <ele>1388</ele>
        <time>2015-04-14T11:50:06.191Z</time>
      </trkpt>
      <trkpt lat="45.60631" lon="2.80387">
        <ele>1388</ele>
        <time>2015-04-14T11:50:07.443Z</time>
      </trkpt>
      <trkpt lat="45.60633" lon="2.80399">
        <ele>1387</ele>
        <time>2015-04-14T11:50:16.188Z</time>
      </trkpt>
      <trkpt lat="45.60634" lon="2.80399">
        <ele>1387</ele>
        <time>2015-04-14T11:50:17.467Z</time>
      </trkpt>
      <trkpt lat="45.60634" lon="2.80411">
        <ele>1384</ele>
        <time>2015-04-14T11:50:26.202Z</time>
      </trkpt>
      <trkpt lat="45.60634" lon="2.80412">
        <ele>1384</ele>
        <time>2015-04-14T11:50:27.578Z</time>
      </trkpt>
      <trkpt lat="45.60632" lon="2.80425">
        <ele>1384</ele>
        <time>2015-04-14T11:50:36.198Z</time>
      </trkpt>
      <trkpt lat="45.60632" lon="2.80426">
        <ele>1384</ele>
        <time>2015-04-14T11:50:37.483Z</time>
      </trkpt>
      <trkpt lat="45.60632" lon="2.80438">
        <ele>1384</ele>
        <time>2015-04-14T11:50:44.188Z</time>
      </trkpt>
      <trkpt lat="45.60632" lon="2.8044">
        <ele>1384</ele>
        <time>2015-04-14T11:50:45.199Z</time>
      </trkpt>
      <trkpt lat="45.60632" lon="2.80451">
        <ele>1383</ele>
        <time>2015-04-14T11:50:51.198Z</time>
      </trkpt>
      <trkpt lat="45.60632" lon="2.80453">
        <ele>1382</ele>
        <time>2015-04-14T11:50:52.522Z</time>
      </trkpt>
      <trkpt lat="45.6063" lon="2.80464">
        <ele>1382</ele>
        <time>2015-04-14T11:50:59.187Z</time>
      </trkpt>
      <trkpt lat="45.60629" lon="2.80466">
        <ele>1382</ele>
        <time>2015-04-14T11:51:00.304Z</time>
      </trkpt>
      <trkpt lat="45.60628" lon="2.80477">
        <ele>1382</ele>
        <time>2015-04-14T11:51:06.188Z</time>
      </trkpt>
      <trkpt lat="45.60627" lon="2.80478">
        <ele>1382</ele>
        <time>2015-04-14T11:51:07.238Z</time>
      </trkpt>
      <trkpt lat="45.60624" lon="2.80489">
        <ele>1384</ele>
        <time>2015-04-14T11:51:13.187Z</time>
      </trkpt>
      <trkpt lat="45.60624" lon="2.80491">
        <ele>1385</ele>
        <time>2015-04-14T11:51:14.187Z</time>
      </trkpt>
      <trkpt lat="45.6062" lon="2.80502">
        <ele>1385</ele>
        <time>2015-04-14T11:51:20.199Z</time>
      </trkpt>
      <trkpt lat="45.6062" lon="2.80504">
        <ele>1385</ele>
        <time>2015-04-14T11:51:21.190Z</time>
      </trkpt>
      <trkpt lat="45.60616" lon="2.80514">
        <ele>1386</ele>
        <time>2015-04-14T11:51:27.226Z</time>
      </trkpt>
      <trkpt lat="45.60615" lon="2.80515">
        <ele>1387</ele>
        <time>2015-04-14T11:51:28.186Z</time>
      </trkpt>
      <trkpt lat="45.60612" lon="2.80526">
        <ele>1385</ele>
        <time>2015-04-14T11:51:35.187Z</time>
      </trkpt>
      <trkpt lat="45.60612" lon="2.80528">
        <ele>1385</ele>
        <time>2015-04-14T11:51:36.300Z</time>
      </trkpt>
      <trkpt lat="45.60609" lon="2.80539">
        <ele>1385</ele>
        <time>2015-04-14T11:51:43.204Z</time>
      </trkpt>
      <trkpt lat="45.60608" lon="2.8054">
        <ele>1384</ele>
        <time>2015-04-14T11:51:44.186Z</time>
      </trkpt>
      <trkpt lat="45.60603" lon="2.80551">
        <ele>1384</ele>
        <time>2015-04-14T11:51:52.189Z</time>
      </trkpt>
      <trkpt lat="45.60603" lon="2.80552">
        <ele>1384</ele>
        <time>2015-04-14T11:51:53.186Z</time>
      </trkpt>
      <trkpt lat="45.60604" lon="2.80564">
        <ele>1383</ele>
        <time>2015-04-14T11:52:01.186Z</time>
      </trkpt>
      <trkpt lat="45.60604" lon="2.80566">
        <ele>1383</ele>
        <time>2015-04-14T11:52:02.185Z</time>
      </trkpt>
      <trkpt lat="45.60605" lon="2.80578">
        <ele>1383</ele>
        <time>2015-04-14T11:52:09.195Z</time>
      </trkpt>
      <trkpt lat="45.60605" lon="2.80579">
        <ele>1383</ele>
        <time>2015-04-14T11:52:10.205Z</time>
      </trkpt>
      <trkpt lat="45.60606" lon="2.80591">
        <ele>1382</ele>
        <time>2015-04-14T11:52:18.194Z</time>
      </trkpt>
      <trkpt lat="45.60606" lon="2.80592">
        <ele>1381</ele>
        <time>2015-04-14T11:52:19.249Z</time>
      </trkpt>
      <trkpt lat="45.60604" lon="2.80605">
        <ele>1382</ele>
        <time>2015-04-14T11:52:27.201Z</time>
      </trkpt>
      <trkpt lat="45.60604" lon="2.80606">
        <ele>1382</ele>
        <time>2015-04-14T11:52:28.186Z</time>
      </trkpt>
      <trkpt lat="45.60603" lon="2.80617">
        <ele>1380</ele>
        <time>2015-04-14T11:52:38.273Z</time>
      </trkpt>
      <trkpt lat="45.60603" lon="2.80618">
        <ele>1380</ele>
        <time>2015-04-14T11:52:39.391Z</time>
      </trkpt>
      <trkpt lat="45.60602" lon="2.8063">
        <ele>1378</ele>
        <time>2015-04-14T11:52:47.184Z</time>
      </trkpt>
      <trkpt lat="45.60602" lon="2.80631">
        <ele>1378</ele>
        <time>2015-04-14T11:52:48.329Z</time>
      </trkpt>
      <trkpt lat="45.60602" lon="2.80644">
        <ele>1379</ele>
        <time>2015-04-14T11:52:56.184Z</time>
      </trkpt>
      <trkpt lat="45.60602" lon="2.80645">
        <ele>1379</ele>
        <time>2015-04-14T11:52:57.200Z</time>
      </trkpt>
      <trkpt lat="45.60603" lon="2.80657">
        <ele>1379</ele>
        <time>2015-04-14T11:53:05.190Z</time>
      </trkpt>
      <trkpt lat="45.60603" lon="2.80659">
        <ele>1379</ele>
        <time>2015-04-14T11:53:06.185Z</time>
      </trkpt>
      <trkpt lat="45.60601" lon="2.80671">
        <ele>1380</ele>
        <time>2015-04-14T11:53:13.264Z</time>
      </trkpt>
      <trkpt lat="45.60601" lon="2.80673">
        <ele>1380</ele>
        <time>2015-04-14T11:53:14.192Z</time>
      </trkpt>
      <trkpt lat="45.60599" lon="2.80683">
        <ele>1379</ele>
        <time>2015-04-14T11:53:20.289Z</time>
      </trkpt>
      <trkpt lat="45.60599" lon="2.80685">
        <ele>1379</ele>
        <time>2015-04-14T11:53:21.270Z</time>
      </trkpt>
      <trkpt lat="45.60597" lon="2.80697">
        <ele>1380</ele>
        <time>2015-04-14T11:53:28.256Z</time>
      </trkpt>
      <trkpt lat="45.60596" lon="2.80699">
        <ele>1380</ele>
        <time>2015-04-14T11:53:29.263Z</time>
      </trkpt>
      <trkpt lat="45.60593" lon="2.80711">
        <ele>1381</ele>
        <time>2015-04-14T11:53:36.183Z</time>
      </trkpt>
      <trkpt lat="45.60592" lon="2.80712">
        <ele>1382</ele>
        <time>2015-04-14T11:53:37.192Z</time>
      </trkpt>
      <trkpt lat="45.6059" lon="2.80724">
        <ele>1382</ele>
        <time>2015-04-14T11:53:45.267Z</time>
      </trkpt>
      <trkpt lat="45.6059" lon="2.80725">
        <ele>1381</ele>
        <time>2015-04-14T11:53:46.239Z</time>
      </trkpt>
      <trkpt lat="45.60587" lon="2.80738">
        <ele>1382</ele>
        <time>2015-04-14T11:54:02.264Z</time>
      </trkpt>
      <trkpt lat="45.60587" lon="2.80739">
        <ele>1382</ele>
        <time>2015-04-14T11:54:03.206Z</time>
      </trkpt>
      <trkpt lat="45.60585" lon="2.8075">
        <ele>1384</ele>
        <time>2015-04-14T11:54:10.520Z</time>
      </trkpt>
      <trkpt lat="45.60584" lon="2.80752">
        <ele>1383</ele>
        <time>2015-04-14T11:54:11.182Z</time>
      </trkpt>
      <trkpt lat="45.60587" lon="2.80763">
        <ele>1381</ele>
        <time>2015-04-14T11:54:21.254Z</time>
      </trkpt>
      <trkpt lat="45.60587" lon="2.80764">
        <ele>1381</ele>
        <time>2015-04-14T11:54:22.351Z</time>
      </trkpt>
      <trkpt lat="45.60594" lon="2.80772">
        <ele>1381</ele>
        <time>2015-04-14T11:54:30.270Z</time>
      </trkpt>
      <trkpt lat="45.60595" lon="2.80773">
        <ele>1380</ele>
        <time>2015-04-14T11:54:31.278Z</time>
      </trkpt>
      <trkpt lat="45.60599" lon="2.80784">
        <ele>1379</ele>
        <time>2015-04-14T11:54:39.262Z</time>
      </trkpt>
      <trkpt lat="45.606" lon="2.80786">
        <ele>1380</ele>
        <time>2015-04-14T11:54:40.262Z</time>
      </trkpt>
      <trkpt lat="45.60603" lon="2.80797">
        <ele>1380</ele>
        <time>2015-04-14T11:54:47.284Z</time>
      </trkpt>
      <trkpt lat="45.60604" lon="2.80798">
        <ele>1381</ele>
        <time>2015-04-14T11:54:48.240Z</time>
      </trkpt>
      <trkpt lat="45.60607" lon="2.80809">
        <ele>1382</ele>
        <time>2015-04-14T11:54:55.238Z</time>
      </trkpt>
      <trkpt lat="45.60607" lon="2.80811">
        <ele>1382</ele>
        <time>2015-04-14T11:54:56.617Z</time>
      </trkpt>
      <trkpt lat="45.60611" lon="2.80821">
        <ele>1381</ele>
        <time>2015-04-14T11:55:03.180Z</time>
      </trkpt>
      <trkpt lat="45.60611" lon="2.80822">
        <ele>1380</ele>
        <time>2015-04-14T11:55:04.181Z</time>
      </trkpt>
      <trkpt lat="45.60615" lon="2.80834">
        <ele>1381</ele>
        <time>2015-04-14T11:55:11.198Z</time>
      </trkpt>
      <trkpt lat="45.60615" lon="2.80836">
        <ele>1381</ele>
        <time>2015-04-14T11:55:12.193Z</time>
      </trkpt>
      <trkpt lat="45.60618" lon="2.80847">
        <ele>1382</ele>
        <time>2015-04-14T11:55:19.180Z</time>
      </trkpt>
      <trkpt lat="45.60619" lon="2.80849">
        <ele>1381</ele>
        <time>2015-04-14T11:55:20.181Z</time>
      </trkpt>
      <trkpt lat="45.60621" lon="2.80859">
        <ele>1381</ele>
        <time>2015-04-14T11:55:26.181Z</time>
      </trkpt>
      <trkpt lat="45.60622" lon="2.80861">
        <ele>1381</ele>
        <time>2015-04-14T11:55:27.249Z</time>
      </trkpt>
      <trkpt lat="45.60625" lon="2.80872">
        <ele>1381</ele>
        <time>2015-04-14T11:55:34.269Z</time>
      </trkpt>
      <trkpt lat="45.60626" lon="2.80874">
        <ele>1381</ele>
        <time>2015-04-14T11:55:35.272Z</time>
      </trkpt>
      <trkpt lat="45.60626" lon="2.80885">
        <ele>1381</ele>
        <time>2015-04-14T11:55:42.191Z</time>
      </trkpt>
      <trkpt lat="45.60627" lon="2.80887">
        <ele>1382</ele>
        <time>2015-04-14T11:55:43.188Z</time>
      </trkpt>
      <trkpt lat="45.60627" lon="2.80899">
        <ele>1381</ele>
        <time>2015-04-14T11:55:51.188Z</time>
      </trkpt>
      <trkpt lat="45.60627" lon="2.809">
        <ele>1381</ele>
        <time>2015-04-14T11:55:52.188Z</time>
      </trkpt>
      <trkpt lat="45.6063" lon="2.80912">
        <ele>1381</ele>
        <time>2015-04-14T11:56:00.211Z</time>
      </trkpt>
      <trkpt lat="45.6063" lon="2.80914">
        <ele>1381</ele>
        <time>2015-04-14T11:56:01.193Z</time>
      </trkpt>
      <trkpt lat="45.60631" lon="2.80925">
        <ele>1382</ele>
        <time>2015-04-14T11:56:08.187Z</time>
      </trkpt>
      <trkpt lat="45.60631" lon="2.80927">
        <ele>1382</ele>
        <time>2015-04-14T11:56:09.308Z</time>
      </trkpt>
      <trkpt lat="45.60631" lon="2.80938">
        <ele>1381</ele>
        <time>2015-04-14T11:56:16.249Z</time>
      </trkpt>
      <trkpt lat="45.60631" lon="2.8094">
        <ele>1381</ele>
        <time>2015-04-14T11:56:17.194Z</time>
      </trkpt>
      <trkpt lat="45.60633" lon="2.80952">
        <ele>1381</ele>
        <time>2015-04-14T11:56:24.200Z</time>
      </trkpt>
      <trkpt lat="45.60634" lon="2.80954">
        <ele>1381</ele>
        <time>2015-04-14T11:56:25.188Z</time>
      </trkpt>
      <trkpt lat="45.60636" lon="2.80965">
        <ele>1382</ele>
        <time>2015-04-14T11:56:32.194Z</time>
      </trkpt>
      <trkpt lat="45.60636" lon="2.80966">
        <ele>1381</ele>
        <time>2015-04-14T11:56:33.198Z</time>
      </trkpt>
      <trkpt lat="45.60638" lon="2.80978">
        <ele>1382</ele>
        <time>2015-04-14T11:56:41.188Z</time>
      </trkpt>
      <trkpt lat="45.60638" lon="2.8098">
        <ele>1382</ele>
        <time>2015-04-14T11:56:42.187Z</time>
      </trkpt>
      <trkpt lat="45.60639" lon="2.80992">
        <ele>1382</ele>
        <time>2015-04-14T11:56:49.190Z</time>
      </trkpt>
      <trkpt lat="45.60639" lon="2.80994">
        <ele>1382</ele>
        <time>2015-04-14T11:56:50.522Z</time>
      </trkpt>
      <trkpt lat="45.60641" lon="2.81005">
        <ele>1383</ele>
        <time>2015-04-14T11:56:57.187Z</time>
      </trkpt>
      <trkpt lat="45.60641" lon="2.81007">
        <ele>1383</ele>
        <time>2015-04-14T11:56:58.187Z</time>
      </trkpt>
      <trkpt lat="45.60643" lon="2.81018">
        <ele>1384</ele>
        <time>2015-04-14T11:57:05.186Z</time>
      </trkpt>
      <trkpt lat="45.60643" lon="2.8102">
        <ele>1383</ele>
        <time>2015-04-14T11:57:06.188Z</time>
      </trkpt>
      <trkpt lat="45.60642" lon="2.81032">
        <ele>1384</ele>
        <time>2015-04-14T11:57:14.186Z</time>
      </trkpt>
      <trkpt lat="45.60642" lon="2.81034">
        <ele>1384</ele>
        <time>2015-04-14T11:57:15.186Z</time>
      </trkpt>
      <trkpt lat="45.60646" lon="2.81044">
        <ele>1385</ele>
        <time>2015-04-14T11:57:30.525Z</time>
      </trkpt>
      <trkpt lat="45.60647" lon="2.81045">
        <ele>1385</ele>
        <time>2015-04-14T11:57:31.207Z</time>
      </trkpt>
      <trkpt lat="45.60654" lon="2.81054">
        <ele>1383</ele>
        <time>2015-04-14T11:57:39.190Z</time>
      </trkpt>
      <trkpt lat="45.60655" lon="2.81055">
        <ele>1383</ele>
        <time>2015-04-14T11:57:40.186Z</time>
      </trkpt>
      <trkpt lat="45.60661" lon="2.81063">
        <ele>1382</ele>
        <time>2015-04-14T11:57:47.186Z</time>
      </trkpt>
      <trkpt lat="45.60662" lon="2.81064">
        <ele>1382</ele>
        <time>2015-04-14T11:57:48.186Z</time>
      </trkpt>
      <trkpt lat="45.60669" lon="2.81071">
        <ele>1382</ele>
        <time>2015-04-14T11:57:55.186Z</time>
      </trkpt>
      <trkpt lat="45.6067" lon="2.81073">
        <ele>1381</ele>
        <time>2015-04-14T11:57:56.189Z</time>
      </trkpt>
      <trkpt lat="45.60676" lon="2.8108">
        <ele>1382</ele>
        <time>2015-04-14T11:58:03.184Z</time>
      </trkpt>
      <trkpt lat="45.60677" lon="2.81081">
        <ele>1381</ele>
        <time>2015-04-14T11:58:04.184Z</time>
      </trkpt>
      <trkpt lat="45.60683" lon="2.81088">
        <ele>1380</ele>
        <time>2015-04-14T11:58:11.185Z</time>
      </trkpt>
      <trkpt lat="45.60684" lon="2.81089">
        <ele>1380</ele>
        <time>2015-04-14T11:58:12.184Z</time>
      </trkpt>
      <trkpt lat="45.6069" lon="2.81096">
        <ele>1380</ele>
        <time>2015-04-14T11:58:19.248Z</time>
      </trkpt>
      <trkpt lat="45.60691" lon="2.81098">
        <ele>1381</ele>
        <time>2015-04-14T11:58:20.257Z</time>
      </trkpt>
      <trkpt lat="45.60697" lon="2.81106">
        <ele>1380</ele>
        <time>2015-04-14T11:58:27.187Z</time>
      </trkpt>
      <trkpt lat="45.60698" lon="2.81107">
        <ele>1380</ele>
        <time>2015-04-14T11:58:28.183Z</time>
      </trkpt>
      <trkpt lat="45.60704" lon="2.81114">
        <ele>1381</ele>
        <time>2015-04-14T11:58:35.203Z</time>
      </trkpt>
      <trkpt lat="45.60705" lon="2.81115">
        <ele>1381</ele>
        <time>2015-04-14T11:58:36.184Z</time>
      </trkpt>
      <trkpt lat="45.60711" lon="2.81124">
        <ele>1381</ele>
        <time>2015-04-14T11:58:43.187Z</time>
      </trkpt>
      <trkpt lat="45.60712" lon="2.81125">
        <ele>1380</ele>
        <time>2015-04-14T11:58:44.202Z</time>
      </trkpt>
      <trkpt lat="45.60718" lon="2.81132">
        <ele>1381</ele>
        <time>2015-04-14T11:58:51.183Z</time>
      </trkpt>
      <trkpt lat="45.60719" lon="2.81133">
        <ele>1381</ele>
        <time>2015-04-14T11:58:52.183Z</time>
      </trkpt>
      <trkpt lat="45.60726" lon="2.8114">
        <ele>1382</ele>
        <time>2015-04-14T11:59:00.207Z</time>
      </trkpt>
      <trkpt lat="45.60727" lon="2.8114">
        <ele>1382</ele>
        <time>2015-04-14T11:59:01.193Z</time>
      </trkpt>
      <trkpt lat="45.60735" lon="2.81146">
        <ele>1385</ele>
        <time>2015-04-14T11:59:09.283Z</time>
      </trkpt>
      <trkpt lat="45.60736" lon="2.81146">
        <ele>1385</ele>
        <time>2015-04-14T11:59:10.287Z</time>
      </trkpt>
      <trkpt lat="45.60742" lon="2.81154">
        <ele>1386</ele>
        <time>2015-04-14T11:59:39.182Z</time>
      </trkpt>
      <trkpt lat="45.60743" lon="2.81156">
        <ele>1386</ele>
        <time>2015-04-14T11:59:40.232Z</time>
      </trkpt>
      <trkpt lat="45.60747" lon="2.81167">
        <ele>1387</ele>
        <time>2015-04-14T11:59:49.279Z</time>
      </trkpt>
      <trkpt lat="45.60747" lon="2.81168">
        <ele>1387</ele>
        <time>2015-04-14T11:59:50.280Z</time>
      </trkpt>
      <trkpt lat="45.60748" lon="2.8118">
        <ele>1389</ele>
        <time>2015-04-14T12:00:07.206Z</time>
      </trkpt>
      <trkpt lat="45.60749" lon="2.81181">
        <ele>1388</ele>
        <time>2015-04-14T12:00:08.261Z</time>
      </trkpt>
      <trkpt lat="45.60752" lon="2.81192">
        <ele>1388</ele>
        <time>2015-04-14T12:00:15.173Z</time>
      </trkpt>
      <trkpt lat="45.60752" lon="2.81194">
        <ele>1387</ele>
        <time>2015-04-14T12:00:16.245Z</time>
      </trkpt>
      <trkpt lat="45.60756" lon="2.81204">
        <ele>1387</ele>
        <time>2015-04-14T12:00:24.252Z</time>
      </trkpt>
      <trkpt lat="45.60756" lon="2.81205">
        <ele>1387</ele>
        <time>2015-04-14T12:00:25.238Z</time>
      </trkpt>
      <trkpt lat="45.60762" lon="2.81214">
        <ele>1385</ele>
        <time>2015-04-14T12:00:33.182Z</time>
      </trkpt>
      <trkpt lat="45.60762" lon="2.81216">
        <ele>1385</ele>
        <time>2015-04-14T12:00:34.221Z</time>
      </trkpt>
      <trkpt lat="45.60767" lon="2.81226">
        <ele>1384</ele>
        <time>2015-04-14T12:00:43.237Z</time>
      </trkpt>
      <trkpt lat="45.60768" lon="2.81227">
        <ele>1384</ele>
        <time>2015-04-14T12:00:44.277Z</time>
      </trkpt>
      <trkpt lat="45.60774" lon="2.81234">
        <ele>1384</ele>
        <time>2015-04-14T12:00:55.198Z</time>
      </trkpt>
      <trkpt lat="45.60775" lon="2.81235">
        <ele>1384</ele>
        <time>2015-04-14T12:00:56.236Z</time>
      </trkpt>
      <trkpt lat="45.60778" lon="2.81246">
        <ele>1386</ele>
        <time>2015-04-14T12:01:04.182Z</time>
      </trkpt>
      <trkpt lat="45.60779" lon="2.81247">
        <ele>1387</ele>
        <time>2015-04-14T12:01:05.187Z</time>
      </trkpt>
      <trkpt lat="45.60781" lon="2.81259">
        <ele>1388</ele>
        <time>2015-04-14T12:01:13.177Z</time>
      </trkpt>
      <trkpt lat="45.60782" lon="2.8126">
        <ele>1388</ele>
        <time>2015-04-14T12:01:14.172Z</time>
      </trkpt>
      <trkpt lat="45.60785" lon="2.81271">
        <ele>1388</ele>
        <time>2015-04-14T12:01:22.246Z</time>
      </trkpt>
      <trkpt lat="45.60785" lon="2.81272">
        <ele>1389</ele>
        <time>2015-04-14T12:01:23.247Z</time>
      </trkpt>
      <trkpt lat="45.60785" lon="2.81284">
        <ele>1391</ele>
        <time>2015-04-14T12:01:36.248Z</time>
      </trkpt>
      <trkpt lat="45.60785" lon="2.81286">
        <ele>1391</ele>
        <time>2015-04-14T12:01:37.263Z</time>
      </trkpt>
      <trkpt lat="45.60784" lon="2.81297">
        <ele>1393</ele>
        <time>2015-04-14T12:01:45.246Z</time>
      </trkpt>
      <trkpt lat="45.60784" lon="2.81298">
        <ele>1393</ele>
        <time>2015-04-14T12:01:46.246Z</time>
      </trkpt>
      <trkpt lat="45.60788" lon="2.81309">
        <ele>1394</ele>
        <time>2015-04-14T12:02:04.256Z</time>
      </trkpt>
      <trkpt lat="45.60788" lon="2.8131">
        <ele>1394</ele>
        <time>2015-04-14T12:02:05.245Z</time>
      </trkpt>
      <trkpt lat="45.60794" lon="2.81318">
        <ele>1393</ele>
        <time>2015-04-14T12:02:14.289Z</time>
      </trkpt>
      <trkpt lat="45.60795" lon="2.81319">
        <ele>1394</ele>
        <time>2015-04-14T12:02:15.258Z</time>
      </trkpt>
      <trkpt lat="45.60801" lon="2.81328">
        <ele>1393</ele>
        <time>2015-04-14T12:02:23.309Z</time>
      </trkpt>
      <trkpt lat="45.60801" lon="2.81329">
        <ele>1393</ele>
        <time>2015-04-14T12:02:24.249Z</time>
      </trkpt>
      <trkpt lat="45.60807" lon="2.81337">
        <ele>1394</ele>
        <time>2015-04-14T12:02:32.269Z</time>
      </trkpt>
      <trkpt lat="45.60808" lon="2.81338">
        <ele>1393</ele>
        <time>2015-04-14T12:02:33.245Z</time>
      </trkpt>
      <trkpt lat="45.60812" lon="2.81349">
        <ele>1395</ele>
        <time>2015-04-14T12:02:43.247Z</time>
      </trkpt>
      <trkpt lat="45.60813" lon="2.8135">
        <ele>1396</ele>
        <time>2015-04-14T12:02:44.367Z</time>
      </trkpt>
      <trkpt lat="45.60817" lon="2.81361">
        <ele>1398</ele>
        <time>2015-04-14T12:02:51.325Z</time>
      </trkpt>
      <trkpt lat="45.60817" lon="2.81363">
        <ele>1399</ele>
        <time>2015-04-14T12:02:52.245Z</time>
      </trkpt>
      <trkpt lat="45.60823" lon="2.81372">
        <ele>1400</ele>
        <time>2015-04-14T12:03:09.244Z</time>
      </trkpt>
      <trkpt lat="45.60824" lon="2.81372">
        <ele>1399</ele>
        <time>2015-04-14T12:03:10.258Z</time>
      </trkpt>
      <trkpt lat="45.60832" lon="2.81377">
        <ele>1398</ele>
        <time>2015-04-14T12:03:18.244Z</time>
      </trkpt>
      <trkpt lat="45.60833" lon="2.81378">
        <ele>1398</ele>
        <time>2015-04-14T12:03:19.248Z</time>
      </trkpt>
      <trkpt lat="45.60841" lon="2.81382">
        <ele>1396</ele>
        <time>2015-04-14T12:03:27.244Z</time>
      </trkpt>
      <trkpt lat="45.60842" lon="2.81383">
        <ele>1397</ele>
        <time>2015-04-14T12:03:28.244Z</time>
      </trkpt>
      <trkpt lat="45.60849" lon="2.8139">
        <ele>1398</ele>
        <time>2015-04-14T12:03:35.243Z</time>
      </trkpt>
      <trkpt lat="45.6085" lon="2.81391">
        <ele>1398</ele>
        <time>2015-04-14T12:03:36.252Z</time>
      </trkpt>
      <trkpt lat="45.60858" lon="2.81397">
        <ele>1397</ele>
        <time>2015-04-14T12:03:44.243Z</time>
      </trkpt>
      <trkpt lat="45.60859" lon="2.81398">
        <ele>1397</ele>
        <time>2015-04-14T12:03:45.264Z</time>
      </trkpt>
      <trkpt lat="45.60868" lon="2.814">
        <ele>1398</ele>
        <time>2015-04-14T12:03:53.248Z</time>
      </trkpt>
      <trkpt lat="45.60869" lon="2.814">
        <ele>1398</ele>
        <time>2015-04-14T12:03:54.249Z</time>
      </trkpt>
      <trkpt lat="45.60877" lon="2.81402">
        <ele>1400</ele>
        <time>2015-04-14T12:04:02.261Z</time>
      </trkpt>
      <trkpt lat="45.60878" lon="2.81402">
        <ele>1399</ele>
        <time>2015-04-14T12:04:03.242Z</time>
      </trkpt>
      <trkpt lat="45.60886" lon="2.81404">
        <ele>1399</ele>
        <time>2015-04-14T12:04:10.250Z</time>
      </trkpt>
      <trkpt lat="45.60887" lon="2.81404">
        <ele>1399</ele>
        <time>2015-04-14T12:04:11.251Z</time>
      </trkpt>
      <trkpt lat="45.60896" lon="2.81403">
        <ele>1400</ele>
        <time>2015-04-14T12:04:21.406Z</time>
      </trkpt>
      <trkpt lat="45.60897" lon="2.81402">
        <ele>1400</ele>
        <time>2015-04-14T12:04:22.251Z</time>
      </trkpt>
      <trkpt lat="45.60905" lon="2.81401">
        <ele>1400</ele>
        <time>2015-04-14T12:04:28.253Z</time>
      </trkpt>
      <trkpt lat="45.60906" lon="2.814">
        <ele>1399</ele>
        <time>2015-04-14T12:04:29.252Z</time>
      </trkpt>
      <trkpt lat="45.60914" lon="2.81399">
        <ele>1399</ele>
        <time>2015-04-14T12:04:35.250Z</time>
      </trkpt>
      <trkpt lat="45.60916" lon="2.81399">
        <ele>1400</ele>
        <time>2015-04-14T12:04:36.250Z</time>
      </trkpt>
      <trkpt lat="45.60924" lon="2.81397">
        <ele>1399</ele>
        <time>2015-04-14T12:04:42.250Z</time>
      </trkpt>
      <trkpt lat="45.60925" lon="2.81397">
        <ele>1399</ele>
        <time>2015-04-14T12:04:43.250Z</time>
      </trkpt>
      <trkpt lat="45.60933" lon="2.81395">
        <ele>1399</ele>
        <time>2015-04-14T12:04:49.250Z</time>
      </trkpt>
      <trkpt lat="45.60934" lon="2.81394">
        <ele>1400</ele>
        <time>2015-04-14T12:04:50.299Z</time>
      </trkpt>
      <trkpt lat="45.60942" lon="2.8139">
        <ele>1402</ele>
        <time>2015-04-14T12:04:58.265Z</time>
      </trkpt>
      <trkpt lat="45.60943" lon="2.81389">
        <ele>1402</ele>
        <time>2015-04-14T12:04:59.257Z</time>
      </trkpt>
      <trkpt lat="45.60951" lon="2.81385">
        <ele>1401</ele>
        <time>2015-04-14T12:05:07.249Z</time>
      </trkpt>
      <trkpt lat="45.60953" lon="2.81385">
        <ele>1402</ele>
        <time>2015-04-14T12:05:08.253Z</time>
      </trkpt>
      <trkpt lat="45.60961" lon="2.81385">
        <ele>1403</ele>
        <time>2015-04-14T12:05:15.251Z</time>
      </trkpt>
      <trkpt lat="45.60962" lon="2.81384">
        <ele>1403</ele>
        <time>2015-04-14T12:05:16.274Z</time>
      </trkpt>
      <trkpt lat="45.6097" lon="2.81382">
        <ele>1403</ele>
        <time>2015-04-14T12:05:22.251Z</time>
      </trkpt>
      <trkpt lat="45.60972" lon="2.81382">
        <ele>1403</ele>
        <time>2015-04-14T12:05:23.249Z</time>
      </trkpt>
      <trkpt lat="45.60981" lon="2.81383">
        <ele>1405</ele>
        <time>2015-04-14T12:05:29.265Z</time>
      </trkpt>
      <trkpt lat="45.60982" lon="2.81384">
        <ele>1406</ele>
        <time>2015-04-14T12:05:30.260Z</time>
      </trkpt>
      <trkpt lat="45.6099" lon="2.81384">
        <ele>1405</ele>
        <time>2015-04-14T12:05:38.249Z</time>
      </trkpt>
      <trkpt lat="45.60991" lon="2.81383">
        <ele>1405</ele>
        <time>2015-04-14T12:05:39.249Z</time>
      </trkpt>
      <trkpt lat="45.60999" lon="2.81379">
        <ele>1405</ele>
        <time>2015-04-14T12:08:51.244Z</time>
      </trkpt>
      <trkpt lat="45.61" lon="2.81379">
        <ele>1405</ele>
        <time>2015-04-14T12:08:52.251Z</time>
      </trkpt>
      <trkpt lat="45.61008" lon="2.81383">
        <ele>1404</ele>
        <time>2015-04-14T12:09:02.244Z</time>
      </trkpt>
      <trkpt lat="45.61009" lon="2.81383">
        <ele>1404</ele>
        <time>2015-04-14T12:09:03.244Z</time>
      </trkpt>
      <trkpt lat="45.61017" lon="2.81381">
        <ele>1405</ele>
        <time>2015-04-14T12:09:12.244Z</time>
      </trkpt>
      <trkpt lat="45.61018" lon="2.81381">
        <ele>1405</ele>
        <time>2015-04-14T12:09:13.375Z</time>
      </trkpt>
      <trkpt lat="45.61026" lon="2.81381">
        <ele>1405</ele>
        <time>2015-04-14T12:09:22.243Z</time>
      </trkpt>
      <trkpt lat="45.61027" lon="2.81381">
        <ele>1405</ele>
        <time>2015-04-14T12:09:23.258Z</time>
      </trkpt>
      <trkpt lat="45.61035" lon="2.81377">
        <ele>1404</ele>
        <time>2015-04-14T12:09:32.244Z</time>
      </trkpt>
      <trkpt lat="45.61036" lon="2.81377">
        <ele>1404</ele>
        <time>2015-04-14T12:09:33.245Z</time>
      </trkpt>
      <trkpt lat="45.61044" lon="2.81378">
        <ele>1403</ele>
        <time>2015-04-14T12:09:43.480Z</time>
      </trkpt>
      <trkpt lat="45.61045" lon="2.81378">
        <ele>1403</ele>
        <time>2015-04-14T12:09:44.243Z</time>
      </trkpt>
      <trkpt lat="45.61053" lon="2.81382">
        <ele>1402</ele>
        <time>2015-04-14T12:09:52.374Z</time>
      </trkpt>
      <trkpt lat="45.61054" lon="2.81383">
        <ele>1402</ele>
        <time>2015-04-14T12:09:53.248Z</time>
      </trkpt>
      <trkpt lat="45.61063" lon="2.81385">
        <ele>1401</ele>
        <time>2015-04-14T12:10:01.243Z</time>
      </trkpt>
      <trkpt lat="45.61063" lon="2.81385">
        <ele>1401</ele>
        <time>2015-04-14T12:10:02.244Z</time>
      </trkpt>
      <trkpt lat="45.61072" lon="2.81383">
        <ele>1401</ele>
        <time>2015-04-14T12:10:13.598Z</time>
      </trkpt>
      <trkpt lat="45.61073" lon="2.81383">
        <ele>1401</ele>
        <time>2015-04-14T12:10:14.242Z</time>
      </trkpt>
      <trkpt lat="45.61081" lon="2.81379">
        <ele>1399</ele>
        <time>2015-04-14T12:10:22.244Z</time>
      </trkpt>
      <trkpt lat="45.61082" lon="2.81379">
        <ele>1399</ele>
        <time>2015-04-14T12:10:23.241Z</time>
      </trkpt>
      <trkpt lat="45.6109" lon="2.81379">
        <ele>1398</ele>
        <time>2015-04-14T12:10:32.253Z</time>
      </trkpt>
      <trkpt lat="45.61091" lon="2.81379">
        <ele>1397</ele>
        <time>2015-04-14T12:10:33.242Z</time>
      </trkpt>
      <trkpt lat="45.611" lon="2.81379">
        <ele>1396</ele>
        <time>2015-04-14T12:10:42.248Z</time>
      </trkpt>
      <trkpt lat="45.61101" lon="2.81379">
        <ele>1396</ele>
        <time>2015-04-14T12:10:43.613Z</time>
      </trkpt>
      <trkpt lat="45.61109" lon="2.81379">
        <ele>1396</ele>
        <time>2015-04-14T12:10:51.241Z</time>
      </trkpt>
      <trkpt lat="45.6111" lon="2.81379">
        <ele>1397</ele>
        <time>2015-04-14T12:10:52.482Z</time>
      </trkpt>
      <trkpt lat="45.61119" lon="2.81381">
        <ele>1396</ele>
        <time>2015-04-14T12:11:00.475Z</time>
      </trkpt>
      <trkpt lat="45.6112" lon="2.81381">
        <ele>1395</ele>
        <time>2015-04-14T12:11:01.242Z</time>
      </trkpt>
      <trkpt lat="45.61128" lon="2.81381">
        <ele>1393</ele>
        <time>2015-04-14T12:11:13.241Z</time>
      </trkpt>
      <trkpt lat="45.61129" lon="2.81382">
        <ele>1393</ele>
        <time>2015-04-14T12:11:14.242Z</time>
      </trkpt>
      <trkpt lat="45.61137" lon="2.81377">
        <ele>1393</ele>
        <time>2015-04-14T12:11:23.695Z</time>
      </trkpt>
      <trkpt lat="45.61138" lon="2.81377">
        <ele>1393</ele>
        <time>2015-04-14T12:11:24.241Z</time>
      </trkpt>
      <trkpt lat="45.61147" lon="2.81375">
        <ele>1391</ele>
        <time>2015-04-14T12:11:32.251Z</time>
      </trkpt>
      <trkpt lat="45.61148" lon="2.81375">
        <ele>1391</ele>
        <time>2015-04-14T12:11:33.242Z</time>
      </trkpt>
      <trkpt lat="45.61156" lon="2.81374">
        <ele>1391</ele>
        <time>2015-04-14T12:11:40.244Z</time>
      </trkpt>
      <trkpt lat="45.61157" lon="2.81374">
        <ele>1391</ele>
        <time>2015-04-14T12:11:41.244Z</time>
      </trkpt>
      <trkpt lat="45.61166" lon="2.81374">
        <ele>1390</ele>
        <time>2015-04-14T12:11:49.488Z</time>
      </trkpt>
      <trkpt lat="45.61167" lon="2.81375">
        <ele>1390</ele>
        <time>2015-04-14T12:11:50.254Z</time>
      </trkpt>
      <trkpt lat="45.61175" lon="2.81374">
        <ele>1390</ele>
        <time>2015-04-14T12:11:59.240Z</time>
      </trkpt>
      <trkpt lat="45.61176" lon="2.81374">
        <ele>1390</ele>
        <time>2015-04-14T12:12:00.265Z</time>
      </trkpt>
      <trkpt lat="45.61185" lon="2.81376">
        <ele>1388</ele>
        <time>2015-04-14T12:12:10.378Z</time>
      </trkpt>
      <trkpt lat="45.61185" lon="2.81377">
        <ele>1388</ele>
        <time>2015-04-14T12:12:11.248Z</time>
      </trkpt>
      <trkpt lat="45.61193" lon="2.81382">
        <ele>1386</ele>
        <time>2015-04-14T12:12:27.240Z</time>
      </trkpt>
      <trkpt lat="45.61194" lon="2.81382">
        <ele>1386</ele>
        <time>2015-04-14T12:12:28.245Z</time>
      </trkpt>
      <trkpt lat="45.61203" lon="2.81383">
        <ele>1384</ele>
        <time>2015-04-14T12:12:39.249Z</time>
      </trkpt>
      <trkpt lat="45.61204" lon="2.81383">
        <ele>1384</ele>
        <time>2015-04-14T12:12:40.240Z</time>
      </trkpt>
      <trkpt lat="45.61212" lon="2.81386">
        <ele>1381</ele>
        <time>2015-04-14T12:12:57.240Z</time>
      </trkpt>
      <trkpt lat="45.61212" lon="2.81386">
        <ele>1381</ele>
        <time>2015-04-14T12:12:58.241Z</time>
      </trkpt>
      <trkpt lat="45.61221" lon="2.81385">
        <ele>1380</ele>
        <time>2015-04-14T12:13:08.240Z</time>
      </trkpt>
      <trkpt lat="45.61221" lon="2.81384">
        <ele>1380</ele>
        <time>2015-04-14T12:13:09.243Z</time>
      </trkpt>
      <trkpt lat="45.61229" lon="2.8138">
        <ele>1378</ele>
        <time>2015-04-14T12:13:18.258Z</time>
      </trkpt>
      <trkpt lat="45.6123" lon="2.8138">
        <ele>1378</ele>
        <time>2015-04-14T12:13:19.246Z</time>
      </trkpt>
      <trkpt lat="45.61239" lon="2.81381">
        <ele>1377</ele>
        <time>2015-04-14T12:13:27.246Z</time>
      </trkpt>
      <trkpt lat="45.6124" lon="2.81381">
        <ele>1376</ele>
        <time>2015-04-14T12:13:28.248Z</time>
      </trkpt>
      <trkpt lat="45.61248" lon="2.81383">
        <ele>1375</ele>
        <time>2015-04-14T12:13:36.238Z</time>
      </trkpt>
      <trkpt lat="45.61249" lon="2.81383">
        <ele>1375</ele>
        <time>2015-04-14T12:13:37.305Z</time>
      </trkpt>
      <trkpt lat="45.61257" lon="2.81386">
        <ele>1375</ele>
        <time>2015-04-14T12:13:45.254Z</time>
      </trkpt>
      <trkpt lat="45.61258" lon="2.81386">
        <ele>1375</ele>
        <time>2015-04-14T12:13:46.249Z</time>
      </trkpt>
      <trkpt lat="45.61263" lon="2.81395">
        <ele>1373</ele>
        <time>2015-04-14T12:13:58.245Z</time>
      </trkpt>
      <trkpt lat="45.61263" lon="2.81396">
        <ele>1373</ele>
        <time>2015-04-14T12:13:59.245Z</time>
      </trkpt>
      <trkpt lat="45.61265" lon="2.81408">
        <ele>1373</ele>
        <time>2015-04-14T12:14:07.538Z</time>
      </trkpt>
      <trkpt lat="45.61265" lon="2.81409">
        <ele>1373</ele>
        <time>2015-04-14T12:14:08.425Z</time>
      </trkpt>
      <trkpt lat="45.61268" lon="2.8142">
        <ele>1370</ele>
        <time>2015-04-14T12:14:15.252Z</time>
      </trkpt>
      <trkpt lat="45.61269" lon="2.81422">
        <ele>1371</ele>
        <time>2015-04-14T12:14:16.257Z</time>
      </trkpt>
      <trkpt lat="45.61277" lon="2.81418">
        <ele>1369</ele>
        <time>2015-04-14T12:14:28.238Z</time>
      </trkpt>
      <trkpt lat="45.61278" lon="2.81417">
        <ele>1369</ele>
        <time>2015-04-14T12:14:29.240Z</time>
      </trkpt>
      <trkpt lat="45.61285" lon="2.81412">
        <ele>1369</ele>
        <time>2015-04-14T12:14:37.238Z</time>
      </trkpt>
      <trkpt lat="45.61286" lon="2.81411">
        <ele>1370</ele>
        <time>2015-04-14T12:14:38.576Z</time>
      </trkpt>
      <trkpt lat="45.61294" lon="2.81408">
        <ele>1370</ele>
        <time>2015-04-14T12:14:45.236Z</time>
      </trkpt>
      <trkpt lat="45.61295" lon="2.81408">
        <ele>1370</ele>
        <time>2015-04-14T12:14:46.247Z</time>
      </trkpt>
      <trkpt lat="45.61304" lon="2.81407">
        <ele>1370</ele>
        <time>2015-04-14T12:14:52.258Z</time>
      </trkpt>
      <trkpt lat="45.61305" lon="2.81407">
        <ele>1369</ele>
        <time>2015-04-14T12:14:53.660Z</time>
      </trkpt>
      <trkpt lat="45.61313" lon="2.81407">
        <ele>1371</ele>
        <time>2015-04-14T12:15:06.437Z</time>
      </trkpt>
      <trkpt lat="45.61314" lon="2.81406">
        <ele>1371</ele>
        <time>2015-04-14T12:15:07.249Z</time>
      </trkpt>
      <trkpt lat="45.61322" lon="2.81401">
        <ele>1372</ele>
        <time>2015-04-14T12:15:14.260Z</time>
      </trkpt>
      <trkpt lat="45.61323" lon="2.814">
        <ele>1372</ele>
        <time>2015-04-14T12:15:15.247Z</time>
      </trkpt>
      <trkpt lat="45.61331" lon="2.81397">
        <ele>1373</ele>
        <time>2015-04-14T12:15:22.619Z</time>
      </trkpt>
      <trkpt lat="45.61332" lon="2.81396">
        <ele>1372</ele>
        <time>2015-04-14T12:15:23.244Z</time>
      </trkpt>
      <trkpt lat="45.6134" lon="2.81393">
        <ele>1371</ele>
        <time>2015-04-14T12:15:30.244Z</time>
      </trkpt>
      <trkpt lat="45.61341" lon="2.81393">
        <ele>1370</ele>
        <time>2015-04-14T12:15:31.244Z</time>
      </trkpt>
      <trkpt lat="45.61349" lon="2.81394">
        <ele>1369</ele>
        <time>2015-04-14T12:15:39.245Z</time>
      </trkpt>
      <trkpt lat="45.6135" lon="2.81394">
        <ele>1369</ele>
        <time>2015-04-14T12:15:40.247Z</time>
      </trkpt>
      <trkpt lat="45.61358" lon="2.81393">
        <ele>1368</ele>
        <time>2015-04-14T12:15:54.238Z</time>
      </trkpt>
      <trkpt lat="45.61359" lon="2.81393">
        <ele>1368</ele>
        <time>2015-04-14T12:15:55.234Z</time>
      </trkpt>
      <trkpt lat="45.61368" lon="2.81393">
        <ele>1367</ele>
        <time>2015-04-14T12:16:03.245Z</time>
      </trkpt>
      <trkpt lat="45.6137" lon="2.81394">
        <ele>1367</ele>
        <time>2015-04-14T12:16:04.273Z</time>
      </trkpt>
      <trkpt lat="45.61378" lon="2.81392">
        <ele>1366</ele>
        <time>2015-04-14T12:16:11.247Z</time>
      </trkpt>
      <trkpt lat="45.61379" lon="2.81392">
        <ele>1366</ele>
        <time>2015-04-14T12:16:12.236Z</time>
      </trkpt>
      <trkpt lat="45.61388" lon="2.8139">
        <ele>1365</ele>
        <time>2015-04-14T12:16:19.287Z</time>
      </trkpt>
      <trkpt lat="45.61389" lon="2.81389">
        <ele>1365</ele>
        <time>2015-04-14T12:16:20.243Z</time>
      </trkpt>
      <trkpt lat="45.61398" lon="2.81389">
        <ele>1363</ele>
        <time>2015-04-14T12:16:35.242Z</time>
      </trkpt>
      <trkpt lat="45.61399" lon="2.81389">
        <ele>1363</ele>
        <time>2015-04-14T12:16:36.252Z</time>
      </trkpt>
      <trkpt lat="45.61407" lon="2.81388">
        <ele>1363</ele>
        <time>2015-04-14T12:16:43.242Z</time>
      </trkpt>
      <trkpt lat="45.61408" lon="2.81388">
        <ele>1363</ele>
        <time>2015-04-14T12:16:44.652Z</time>
      </trkpt>
      <trkpt lat="45.61417" lon="2.81389">
        <ele>1363</ele>
        <time>2015-04-14T12:16:51.611Z</time>
      </trkpt>
      <trkpt lat="45.61418" lon="2.81389">
        <ele>1363</ele>
        <time>2015-04-14T12:16:52.247Z</time>
      </trkpt>
      <trkpt lat="45.61426" lon="2.81391">
        <ele>1361</ele>
        <time>2015-04-14T12:16:59.241Z</time>
      </trkpt>
      <trkpt lat="45.61428" lon="2.81392">
        <ele>1361</ele>
        <time>2015-04-14T12:17:00.243Z</time>
      </trkpt>
      <trkpt lat="45.61436" lon="2.81393">
        <ele>1361</ele>
        <time>2015-04-14T12:17:07.487Z</time>
      </trkpt>
      <trkpt lat="45.61437" lon="2.81392">
        <ele>1361</ele>
        <time>2015-04-14T12:17:08.423Z</time>
      </trkpt>
      <trkpt lat="45.61445" lon="2.8139">
        <ele>1365</ele>
        <time>2015-04-14T12:17:15.322Z</time>
      </trkpt>
      <trkpt lat="45.61447" lon="2.81389">
        <ele>1364</ele>
        <time>2015-04-14T12:17:16.305Z</time>
      </trkpt>
      <trkpt lat="45.61455" lon="2.81389">
        <ele>1363</ele>
        <time>2015-04-14T12:17:24.240Z</time>
      </trkpt>
      <trkpt lat="45.61457" lon="2.81388">
        <ele>1363</ele>
        <time>2015-04-14T12:17:25.243Z</time>
      </trkpt>
      <trkpt lat="45.61465" lon="2.81389">
        <ele>1363</ele>
        <time>2015-04-14T12:17:33.241Z</time>
      </trkpt>
      <trkpt lat="45.61466" lon="2.81389">
        <ele>1362</ele>
        <time>2015-04-14T12:17:34.242Z</time>
      </trkpt>
      <trkpt lat="45.61475" lon="2.81388">
        <ele>1363</ele>
        <time>2015-04-14T12:17:42.241Z</time>
      </trkpt>
      <trkpt lat="45.61476" lon="2.81388">
        <ele>1362</ele>
        <time>2015-04-14T12:17:43.240Z</time>
      </trkpt>
      <trkpt lat="45.61484" lon="2.81382">
        <ele>1360</ele>
        <time>2015-04-14T12:18:02.254Z</time>
      </trkpt>
      <trkpt lat="45.61484" lon="2.81382">
        <ele>1360</ele>
        <time>2015-04-14T12:18:03.256Z</time>
      </trkpt>
      <trkpt lat="45.61491" lon="2.81376">
        <ele>1361</ele>
        <time>2015-04-14T12:18:32.310Z</time>
      </trkpt>
      <trkpt lat="45.61492" lon="2.81376">
        <ele>1362</ele>
        <time>2015-04-14T12:18:33.239Z</time>
      </trkpt>
      <trkpt lat="45.615" lon="2.8138">
        <ele>1362</ele>
        <time>2015-04-14T12:18:40.239Z</time>
      </trkpt>
      <trkpt lat="45.61501" lon="2.81381">
        <ele>1362</ele>
        <time>2015-04-14T12:18:41.239Z</time>
      </trkpt>
      <trkpt lat="45.61509" lon="2.8138">
        <ele>1361</ele>
        <time>2015-04-14T12:18:48.262Z</time>
      </trkpt>
      <trkpt lat="45.6151" lon="2.8138">
        <ele>1361</ele>
        <time>2015-04-14T12:18:49.239Z</time>
      </trkpt>
      <trkpt lat="45.61518" lon="2.81379">
        <ele>1359</ele>
        <time>2015-04-14T12:19:03.271Z</time>
      </trkpt>
      <trkpt lat="45.6152" lon="2.81379">
        <ele>1359</ele>
        <time>2015-04-14T12:19:04.247Z</time>
      </trkpt>
      <trkpt lat="45.61528" lon="2.81379">
        <ele>1359</ele>
        <time>2015-04-14T12:19:10.245Z</time>
      </trkpt>
      <trkpt lat="45.61529" lon="2.81379">
        <ele>1359</ele>
        <time>2015-04-14T12:19:11.247Z</time>
      </trkpt>
      <trkpt lat="45.61538" lon="2.81379">
        <ele>1359</ele>
        <time>2015-04-14T12:19:17.328Z</time>
      </trkpt>
      <trkpt lat="45.61539" lon="2.81379">
        <ele>1359</ele>
        <time>2015-04-14T12:19:18.239Z</time>
      </trkpt>
      <trkpt lat="45.61547" lon="2.81379">
        <ele>1359</ele>
        <time>2015-04-14T12:19:24.326Z</time>
      </trkpt>
      <trkpt lat="45.61548" lon="2.81379">
        <ele>1359</ele>
        <time>2015-04-14T12:19:25.254Z</time>
      </trkpt>
      <trkpt lat="45.61557" lon="2.81379">
        <ele>1359</ele>
        <time>2015-04-14T12:19:32.263Z</time>
      </trkpt>
      <trkpt lat="45.61558" lon="2.8138">
        <ele>1359</ele>
        <time>2015-04-14T12:19:33.318Z</time>
      </trkpt>
      <trkpt lat="45.61566" lon="2.81381">
        <ele>1361</ele>
        <time>2015-04-14T12:19:40.302Z</time>
      </trkpt>
      <trkpt lat="45.61568" lon="2.8138">
        <ele>1361</ele>
        <time>2015-04-14T12:19:41.308Z</time>
      </trkpt>
      <trkpt lat="45.61576" lon="2.8138">
        <ele>1361</ele>
        <time>2015-04-14T12:19:49.245Z</time>
      </trkpt>
      <trkpt lat="45.61577" lon="2.81379">
        <ele>1361</ele>
        <time>2015-04-14T12:19:50.241Z</time>
      </trkpt>
      <trkpt lat="45.61584" lon="2.81376">
        <ele>1360</ele>
        <time>2015-04-14T12:19:57.241Z</time>
      </trkpt>
      <trkpt lat="45.61586" lon="2.81375">
        <ele>1361</ele>
        <time>2015-04-14T12:19:58.249Z</time>
      </trkpt>
      <trkpt lat="45.61594" lon="2.81372">
        <ele>1361</ele>
        <time>2015-04-14T12:20:05.278Z</time>
      </trkpt>
      <trkpt lat="45.61595" lon="2.81371">
        <ele>1361</ele>
        <time>2015-04-14T12:20:06.237Z</time>
      </trkpt>
      <trkpt lat="45.61602" lon="2.81368">
        <ele>1359</ele>
        <time>2015-04-14T12:20:13.293Z</time>
      </trkpt>
      <trkpt lat="45.61603" lon="2.81367">
        <ele>1360</ele>
        <time>2015-04-14T12:20:14.245Z</time>
      </trkpt>
      <trkpt lat="45.61606" lon="2.81356">
        <ele>1356</ele>
        <time>2015-04-14T12:20:34.251Z</time>
      </trkpt>
      <trkpt lat="45.61606" lon="2.81354">
        <ele>1356</ele>
        <time>2015-04-14T12:20:35.237Z</time>
      </trkpt>
      <trkpt lat="45.61608" lon="2.81343">
        <ele>1353</ele>
        <time>2015-04-14T12:20:50.237Z</time>
      </trkpt>
      <trkpt lat="45.61608" lon="2.81342">
        <ele>1353</ele>
        <time>2015-04-14T12:20:51.240Z</time>
      </trkpt>
      <trkpt lat="45.61604" lon="2.81331">
        <ele>1354</ele>
        <time>2015-04-14T12:21:03.236Z</time>
      </trkpt>
      <trkpt lat="45.61603" lon="2.8133">
        <ele>1354</ele>
        <time>2015-04-14T12:21:04.236Z</time>
      </trkpt>
      <trkpt lat="45.61598" lon="2.8132">
        <ele>1355</ele>
        <time>2015-04-14T12:21:15.243Z</time>
      </trkpt>
      <trkpt lat="45.61597" lon="2.81319">
        <ele>1355</ele>
        <time>2015-04-14T12:21:16.237Z</time>
      </trkpt>
      <trkpt lat="45.61592" lon="2.81309">
        <ele>1356</ele>
        <time>2015-04-14T12:21:29.236Z</time>
      </trkpt>
      <trkpt lat="45.61591" lon="2.81308">
        <ele>1356</ele>
        <time>2015-04-14T12:21:30.245Z</time>
      </trkpt>
      <trkpt lat="45.61585" lon="2.813">
        <ele>1357</ele>
        <time>2015-04-14T12:21:40.241Z</time>
      </trkpt>
      <trkpt lat="45.61584" lon="2.81298">
        <ele>1357</ele>
        <time>2015-04-14T12:21:41.245Z</time>
      </trkpt>
      <trkpt lat="45.61579" lon="2.81289">
        <ele>1357</ele>
        <time>2015-04-14T12:21:50.236Z</time>
      </trkpt>
      <trkpt lat="45.61579" lon="2.81287">
        <ele>1357</ele>
        <time>2015-04-14T12:21:51.335Z</time>
      </trkpt>
      <trkpt lat="45.61572" lon="2.81281">
        <ele>1358</ele>
        <time>2015-04-14T12:22:12.235Z</time>
      </trkpt>
      <trkpt lat="45.6157" lon="2.8128">
        <ele>1359</ele>
        <time>2015-04-14T12:22:13.234Z</time>
      </trkpt>
      <trkpt lat="45.61571" lon="2.81269">
        <ele>1359</ele>
        <time>2015-04-14T12:22:29.248Z</time>
      </trkpt>
      <trkpt lat="45.61571" lon="2.81267">
        <ele>1359</ele>
        <time>2015-04-14T12:22:30.244Z</time>
      </trkpt>
      <trkpt lat="45.61577" lon="2.81259">
        <ele>1358</ele>
        <time>2015-04-14T12:22:44.252Z</time>
      </trkpt>
      <trkpt lat="45.61578" lon="2.81258">
        <ele>1358</ele>
        <time>2015-04-14T12:22:45.239Z</time>
      </trkpt>
      <trkpt lat="45.61582" lon="2.81248">
        <ele>1354</ele>
        <time>2015-04-14T12:23:34.239Z</time>
      </trkpt>
      <trkpt lat="45.61583" lon="2.81248">
        <ele>1353</ele>
        <time>2015-04-14T12:23:35.234Z</time>
      </trkpt>
      <trkpt lat="45.61589" lon="2.8124">
        <ele>1352</ele>
        <time>2015-04-14T12:24:32.232Z</time>
      </trkpt>
      <trkpt lat="45.6159" lon="2.8124">
        <ele>1352</ele>
        <time>2015-04-14T12:24:33.256Z</time>
      </trkpt>
      <trkpt lat="45.61596" lon="2.81232">
        <ele>1355</ele>
        <time>2015-04-14T12:24:42.235Z</time>
      </trkpt>
      <trkpt lat="45.61596" lon="2.81231">
        <ele>1356</ele>
        <time>2015-04-14T12:24:43.238Z</time>
      </trkpt>
      <trkpt lat="45.616" lon="2.81241">
        <ele>1359</ele>
        <time>2015-04-14T12:25:21.253Z</time>
      </trkpt>
      <trkpt lat="45.61601" lon="2.81242">
        <ele>1359</ele>
        <time>2015-04-14T12:25:22.238Z</time>
      </trkpt>
      <trkpt lat="45.61607" lon="2.81249">
        <ele>1357</ele>
        <time>2015-04-14T12:25:29.253Z</time>
      </trkpt>
      <trkpt lat="45.61609" lon="2.81249">
        <ele>1357</ele>
        <time>2015-04-14T12:25:30.259Z</time>
      </trkpt>
      <trkpt lat="45.61617" lon="2.81253">
        <ele>1354</ele>
        <time>2015-04-14T12:25:38.348Z</time>
      </trkpt>
      <trkpt lat="45.61618" lon="2.81254">
        <ele>1354</ele>
        <time>2015-04-14T12:25:39.246Z</time>
      </trkpt>
      <trkpt lat="45.61625" lon="2.8126">
        <ele>1353</ele>
        <time>2015-04-14T12:25:45.472Z</time>
      </trkpt>
      <trkpt lat="45.61626" lon="2.8126">
        <ele>1353</ele>
        <time>2015-04-14T12:25:46.247Z</time>
      </trkpt>
      <trkpt lat="45.61633" lon="2.81268">
        <ele>1354</ele>
        <time>2015-04-14T12:25:55.245Z</time>
      </trkpt>
      <trkpt lat="45.61633" lon="2.81269">
        <ele>1354</ele>
        <time>2015-04-14T12:25:56.269Z</time>
      </trkpt>
      <trkpt lat="45.61638" lon="2.81279">
        <ele>1354</ele>
        <time>2015-04-14T12:26:03.235Z</time>
      </trkpt>
      <trkpt lat="45.61638" lon="2.81281">
        <ele>1355</ele>
        <time>2015-04-14T12:26:04.239Z</time>
      </trkpt>
      <trkpt lat="45.61642" lon="2.81292">
        <ele>1356</ele>
        <time>2015-04-14T12:26:12.391Z</time>
      </trkpt>
      <trkpt lat="45.61643" lon="2.81294">
        <ele>1355</ele>
        <time>2015-04-14T12:26:13.359Z</time>
      </trkpt>
      <trkpt lat="45.61644" lon="2.81305">
        <ele>1356</ele>
        <time>2015-04-14T12:26:19.325Z</time>
      </trkpt>
      <trkpt lat="45.61645" lon="2.81307">
        <ele>1355</ele>
        <time>2015-04-14T12:26:20.379Z</time>
      </trkpt>
      <trkpt lat="45.61646" lon="2.81318">
        <ele>1354</ele>
        <time>2015-04-14T12:26:26.293Z</time>
      </trkpt>
      <trkpt lat="45.61646" lon="2.8132">
        <ele>1354</ele>
        <time>2015-04-14T12:26:27.293Z</time>
      </trkpt>
      <trkpt lat="45.61646" lon="2.81332">
        <ele>1353</ele>
        <time>2015-04-14T12:26:35.236Z</time>
      </trkpt>
      <trkpt lat="45.61646" lon="2.81333">
        <ele>1354</ele>
        <time>2015-04-14T12:26:36.244Z</time>
      </trkpt>
      <trkpt lat="45.61649" lon="2.81344">
        <ele>1352</ele>
        <time>2015-04-14T12:26:48.246Z</time>
      </trkpt>
      <trkpt lat="45.6165" lon="2.81346">
        <ele>1353</ele>
        <time>2015-04-14T12:26:49.242Z</time>
      </trkpt>
      <trkpt lat="45.61657" lon="2.81353">
        <ele>1353</ele>
        <time>2015-04-14T12:26:57.229Z</time>
      </trkpt>
      <trkpt lat="45.61658" lon="2.81354">
        <ele>1353</ele>
        <time>2015-04-14T12:26:58.262Z</time>
      </trkpt>
      <trkpt lat="45.61665" lon="2.81361">
        <ele>1352</ele>
        <time>2015-04-14T12:27:06.228Z</time>
      </trkpt>
      <trkpt lat="45.61665" lon="2.81362">
        <ele>1352</ele>
        <time>2015-04-14T12:27:07.322Z</time>
      </trkpt>
      <trkpt lat="45.61672" lon="2.81369">
        <ele>1352</ele>
        <time>2015-04-14T12:27:16.239Z</time>
      </trkpt>
      <trkpt lat="45.61673" lon="2.81371">
        <ele>1352</ele>
        <time>2015-04-14T12:27:17.226Z</time>
      </trkpt>
      <trkpt lat="45.61678" lon="2.8138">
        <ele>1353</ele>
        <time>2015-04-14T12:27:24.354Z</time>
      </trkpt>
      <trkpt lat="45.61678" lon="2.81382">
        <ele>1354</ele>
        <time>2015-04-14T12:27:25.244Z</time>
      </trkpt>
      <trkpt lat="45.61683" lon="2.81392">
        <ele>1354</ele>
        <time>2015-04-14T12:27:33.309Z</time>
      </trkpt>
      <trkpt lat="45.61684" lon="2.81393">
        <ele>1354</ele>
        <time>2015-04-14T12:27:34.245Z</time>
      </trkpt>
      <trkpt lat="45.6169" lon="2.814">
        <ele>1353</ele>
        <time>2015-04-14T12:27:42.233Z</time>
      </trkpt>
      <trkpt lat="45.61691" lon="2.81401">
        <ele>1352</ele>
        <time>2015-04-14T12:27:43.262Z</time>
      </trkpt>
      <trkpt lat="45.61698" lon="2.81407">
        <ele>1351</ele>
        <time>2015-04-14T12:27:51.296Z</time>
      </trkpt>
      <trkpt lat="45.61699" lon="2.81408">
        <ele>1351</ele>
        <time>2015-04-14T12:27:52.256Z</time>
      </trkpt>
      <trkpt lat="45.61703" lon="2.81418">
        <ele>1354</ele>
        <time>2015-04-14T12:28:02.244Z</time>
      </trkpt>
      <trkpt lat="45.61704" lon="2.81419">
        <ele>1354</ele>
        <time>2015-04-14T12:28:03.225Z</time>
      </trkpt>
      <trkpt lat="45.61712" lon="2.8142">
        <ele>1354</ele>
        <time>2015-04-14T12:28:13.336Z</time>
      </trkpt>
      <trkpt lat="45.61714" lon="2.8142">
        <ele>1354</ele>
        <time>2015-04-14T12:28:14.243Z</time>
      </trkpt>
      <trkpt lat="45.61722" lon="2.8142">
        <ele>1353</ele>
        <time>2015-04-14T12:28:21.250Z</time>
      </trkpt>
      <trkpt lat="45.61723" lon="2.8142">
        <ele>1352</ele>
        <time>2015-04-14T12:28:22.313Z</time>
      </trkpt>
      <trkpt lat="45.61731" lon="2.81421">
        <ele>1352</ele>
        <time>2015-04-14T12:28:29.232Z</time>
      </trkpt>
      <trkpt lat="45.61732" lon="2.81421">
        <ele>1352</ele>
        <time>2015-04-14T12:28:30.299Z</time>
      </trkpt>
      <trkpt lat="45.61741" lon="2.81423">
        <ele>1351</ele>
        <time>2015-04-14T12:28:38.228Z</time>
      </trkpt>
      <trkpt lat="45.61742" lon="2.81423">
        <ele>1351</ele>
        <time>2015-04-14T12:28:39.244Z</time>
      </trkpt>
      <trkpt lat="45.61749" lon="2.81432">
        <ele>1348</ele>
        <time>2015-04-14T12:28:50.245Z</time>
      </trkpt>
      <trkpt lat="45.61749" lon="2.81434">
        <ele>1349</ele>
        <time>2015-04-14T12:28:51.238Z</time>
      </trkpt>
      <trkpt lat="45.61753" lon="2.81443">
        <ele>1351</ele>
        <time>2015-04-14T12:28:58.226Z</time>
      </trkpt>
      <trkpt lat="45.61754" lon="2.81445">
        <ele>1352</ele>
        <time>2015-04-14T12:28:59.244Z</time>
      </trkpt>
      <trkpt lat="45.61757" lon="2.81456">
        <ele>1349</ele>
        <time>2015-04-14T12:29:07.226Z</time>
      </trkpt>
      <trkpt lat="45.61758" lon="2.81458">
        <ele>1348</ele>
        <time>2015-04-14T12:29:08.225Z</time>
      </trkpt>
      <trkpt lat="45.61763" lon="2.81468">
        <ele>1347</ele>
        <time>2015-04-14T12:29:15.371Z</time>
      </trkpt>
      <trkpt lat="45.61764" lon="2.81469">
        <ele>1346</ele>
        <time>2015-04-14T12:29:16.340Z</time>
      </trkpt>
      <trkpt lat="45.61769" lon="2.81479">
        <ele>1347</ele>
        <time>2015-04-14T12:29:22.223Z</time>
      </trkpt>
      <trkpt lat="45.61769" lon="2.81481">
        <ele>1346</ele>
        <time>2015-04-14T12:29:23.234Z</time>
      </trkpt>
      <trkpt lat="45.61774" lon="2.8149">
        <ele>1348</ele>
        <time>2015-04-14T12:29:32.226Z</time>
      </trkpt>
      <trkpt lat="45.61774" lon="2.81492">
        <ele>1347</ele>
        <time>2015-04-14T12:29:33.226Z</time>
      </trkpt>
      <trkpt lat="45.6178" lon="2.81501">
        <ele>1341</ele>
        <time>2015-04-14T12:29:41.270Z</time>
      </trkpt>
      <trkpt lat="45.61781" lon="2.81502">
        <ele>1340</ele>
        <time>2015-04-14T12:29:42.223Z</time>
      </trkpt>
      <trkpt lat="45.61788" lon="2.81509">
        <ele>1335</ele>
        <time>2015-04-14T12:29:51.227Z</time>
      </trkpt>
      <trkpt lat="45.61789" lon="2.81509">
        <ele>1334</ele>
        <time>2015-04-14T12:29:52.256Z</time>
      </trkpt>
      <trkpt lat="45.61796" lon="2.81513">
        <ele>1335</ele>
        <time>2015-04-14T12:29:59.226Z</time>
      </trkpt>
      <trkpt lat="45.61797" lon="2.81514">
        <ele>1335</ele>
        <time>2015-04-14T12:30:00.329Z</time>
      </trkpt>
      <trkpt lat="45.61804" lon="2.8152">
        <ele>1336</ele>
        <time>2015-04-14T12:30:06.229Z</time>
      </trkpt>
      <trkpt lat="45.61805" lon="2.81521">
        <ele>1337</ele>
        <time>2015-04-14T12:30:07.340Z</time>
      </trkpt>
      <trkpt lat="45.61813" lon="2.81525">
        <ele>1338</ele>
        <time>2015-04-14T12:30:17.280Z</time>
      </trkpt>
      <trkpt lat="45.61814" lon="2.81526">
        <ele>1339</ele>
        <time>2015-04-14T12:30:18.394Z</time>
      </trkpt>
      <trkpt lat="45.61821" lon="2.81534">
        <ele>1339</ele>
        <time>2015-04-14T12:30:25.228Z</time>
      </trkpt>
      <trkpt lat="45.61822" lon="2.81535">
        <ele>1339</ele>
        <time>2015-04-14T12:30:26.272Z</time>
      </trkpt>
      <trkpt lat="45.61828" lon="2.81542">
        <ele>1341</ele>
        <time>2015-04-14T12:30:32.226Z</time>
      </trkpt>
      <trkpt lat="45.61829" lon="2.81543">
        <ele>1342</ele>
        <time>2015-04-14T12:30:33.223Z</time>
      </trkpt>
      <trkpt lat="45.61833" lon="2.81552">
        <ele>1341</ele>
        <time>2015-04-14T12:30:38.323Z</time>
      </trkpt>
      <trkpt lat="45.61834" lon="2.81554">
        <ele>1341</ele>
        <time>2015-04-14T12:30:39.232Z</time>
      </trkpt>
      <trkpt lat="45.61841" lon="2.81561">
        <ele>1341</ele>
        <time>2015-04-14T12:30:46.223Z</time>
      </trkpt>
      <trkpt lat="45.61842" lon="2.81562">
        <ele>1340</ele>
        <time>2015-04-14T12:30:47.226Z</time>
      </trkpt>
      <trkpt lat="45.6185" lon="2.81568">
        <ele>1336</ele>
        <time>2015-04-14T12:30:59.221Z</time>
      </trkpt>
      <trkpt lat="45.6185" lon="2.81568">
        <ele>1335</ele>
        <time>2015-04-14T12:31:00.405Z</time>
      </trkpt>
      <trkpt lat="45.61858" lon="2.81574">
        <ele>1334</ele>
        <time>2015-04-14T12:31:12.232Z</time>
      </trkpt>
      <trkpt lat="45.61859" lon="2.81575">
        <ele>1334</ele>
        <time>2015-04-14T12:31:13.264Z</time>
      </trkpt>
      <trkpt lat="45.61867" lon="2.81581">
        <ele>1333</ele>
        <time>2015-04-14T12:31:19.238Z</time>
      </trkpt>
      <trkpt lat="45.61868" lon="2.81582">
        <ele>1334</ele>
        <time>2015-04-14T12:31:20.232Z</time>
      </trkpt>
      <trkpt lat="45.61872" lon="2.81591">
        <ele>1335</ele>
        <time>2015-04-14T12:31:25.225Z</time>
      </trkpt>
      <trkpt lat="45.61873" lon="2.81592">
        <ele>1337</ele>
        <time>2015-04-14T12:31:26.224Z</time>
      </trkpt>
      <trkpt lat="45.6188" lon="2.81599">
        <ele>1340</ele>
        <time>2015-04-14T12:31:31.214Z</time>
      </trkpt>
      <trkpt lat="45.61881" lon="2.816">
        <ele>1341</ele>
        <time>2015-04-14T12:31:32.269Z</time>
      </trkpt>
      <trkpt lat="45.61886" lon="2.81609">
        <ele>1339</ele>
        <time>2015-04-14T12:31:37.311Z</time>
      </trkpt>
      <trkpt lat="45.61887" lon="2.8161">
        <ele>1339</ele>
        <time>2015-04-14T12:31:38.277Z</time>
      </trkpt>
      <trkpt lat="45.61893" lon="2.81617">
        <ele>1337</ele>
        <time>2015-04-14T12:31:45.232Z</time>
      </trkpt>
      <trkpt lat="45.61894" lon="2.81619">
        <ele>1337</ele>
        <time>2015-04-14T12:31:46.223Z</time>
      </trkpt>
      <trkpt lat="45.61901" lon="2.81626">
        <ele>1337</ele>
        <time>2015-04-14T12:31:54.222Z</time>
      </trkpt>
      <trkpt lat="45.61901" lon="2.81626">
        <ele>1338</ele>
        <time>2015-04-14T12:31:55.223Z</time>
      </trkpt>
      <trkpt lat="45.61908" lon="2.81632">
        <ele>1339</ele>
        <time>2015-04-14T12:32:01.244Z</time>
      </trkpt>
      <trkpt lat="45.61909" lon="2.81633">
        <ele>1339</ele>
        <time>2015-04-14T12:32:02.221Z</time>
      </trkpt>
      <trkpt lat="45.61916" lon="2.8164">
        <ele>1336</ele>
        <time>2015-04-14T12:32:10.277Z</time>
      </trkpt>
      <trkpt lat="45.61917" lon="2.81641">
        <ele>1336</ele>
        <time>2015-04-14T12:32:11.309Z</time>
      </trkpt>
      <trkpt lat="45.61923" lon="2.81649">
        <ele>1337</ele>
        <time>2015-04-14T12:32:17.228Z</time>
      </trkpt>
      <trkpt lat="45.61924" lon="2.81651">
        <ele>1336</ele>
        <time>2015-04-14T12:32:18.282Z</time>
      </trkpt>
      <trkpt lat="45.61931" lon="2.81658">
        <ele>1334</ele>
        <time>2015-04-14T12:32:25.244Z</time>
      </trkpt>
      <trkpt lat="45.61932" lon="2.81658">
        <ele>1333</ele>
        <time>2015-04-14T12:32:26.223Z</time>
      </trkpt>
      <trkpt lat="45.61938" lon="2.81668">
        <ele>1333</ele>
        <time>2015-04-14T12:32:35.275Z</time>
      </trkpt>
      <trkpt lat="45.61939" lon="2.81669">
        <ele>1332</ele>
        <time>2015-04-14T12:32:36.222Z</time>
      </trkpt>
      <trkpt lat="45.61947" lon="2.81675">
        <ele>1331</ele>
        <time>2015-04-14T12:32:45.230Z</time>
      </trkpt>
      <trkpt lat="45.61947" lon="2.81676">
        <ele>1330</ele>
        <time>2015-04-14T12:32:46.235Z</time>
      </trkpt>
      <trkpt lat="45.61953" lon="2.81685">
        <ele>1326</ele>
        <time>2015-04-14T12:32:54.272Z</time>
      </trkpt>
      <trkpt lat="45.61954" lon="2.81686">
        <ele>1327</ele>
        <time>2015-04-14T12:32:55.228Z</time>
      </trkpt>
      <trkpt lat="45.61961" lon="2.81692">
        <ele>1326</ele>
        <time>2015-04-14T12:33:03.222Z</time>
      </trkpt>
      <trkpt lat="45.61962" lon="2.81693">
        <ele>1326</ele>
        <time>2015-04-14T12:33:04.229Z</time>
      </trkpt>
      <trkpt lat="45.61968" lon="2.81702">
        <ele>1325</ele>
        <time>2015-04-14T12:33:12.309Z</time>
      </trkpt>
      <trkpt lat="45.61968" lon="2.81702">
        <ele>1326</ele>
        <time>2015-04-14T12:33:13.371Z</time>
      </trkpt>
      <trkpt lat="45.61973" lon="2.81713">
        <ele>1338</ele>
        <time>2015-04-14T12:33:29.236Z</time>
      </trkpt>
      <trkpt lat="45.61974" lon="2.81713">
        <ele>1338</ele>
        <time>2015-04-14T12:33:30.229Z</time>
      </trkpt>
      <trkpt lat="45.61977" lon="2.81724">
        <ele>1341</ele>
        <time>2015-04-14T12:33:39.315Z</time>
      </trkpt>
      <trkpt lat="45.61977" lon="2.81726">
        <ele>1342</ele>
        <time>2015-04-14T12:33:40.320Z</time>
      </trkpt>
      <trkpt lat="45.61975" lon="2.81736">
        <ele>1335</ele>
        <time>2015-04-14T12:34:03.220Z</time>
      </trkpt>
      <trkpt lat="45.61975" lon="2.81738">
        <ele>1335</ele>
        <time>2015-04-14T12:34:04.226Z</time>
      </trkpt>
      <trkpt lat="45.61973" lon="2.8175">
        <ele>1336</ele>
        <time>2015-04-14T12:34:11.318Z</time>
      </trkpt>
      <trkpt lat="45.61973" lon="2.81752">
        <ele>1335</ele>
        <time>2015-04-14T12:34:12.300Z</time>
      </trkpt>
      <trkpt lat="45.6197" lon="2.81764">
        <ele>1334</ele>
        <time>2015-04-14T12:34:20.250Z</time>
      </trkpt>
      <trkpt lat="45.61969" lon="2.81764">
        <ele>1333</ele>
        <time>2015-04-14T12:34:21.242Z</time>
      </trkpt>
      <trkpt lat="45.61967" lon="2.81775">
        <ele>1331</ele>
        <time>2015-04-14T12:34:30.218Z</time>
      </trkpt>
      <trkpt lat="45.61967" lon="2.81777">
        <ele>1332</ele>
        <time>2015-04-14T12:34:31.240Z</time>
      </trkpt>
      <trkpt lat="45.61965" lon="2.81787">
        <ele>1334</ele>
        <time>2015-04-14T12:34:35.219Z</time>
      </trkpt>
      <trkpt lat="45.61964" lon="2.8179">
        <ele>1333</ele>
        <time>2015-04-14T12:34:36.271Z</time>
      </trkpt>
      <trkpt lat="45.61962" lon="2.81802">
        <ele>1333</ele>
        <time>2015-04-14T12:34:42.329Z</time>
      </trkpt>
      <trkpt lat="45.61961" lon="2.81804">
        <ele>1333</ele>
        <time>2015-04-14T12:34:43.300Z</time>
      </trkpt>
      <trkpt lat="45.61962" lon="2.81816">
        <ele>1330</ele>
        <time>2015-04-14T12:34:50.221Z</time>
      </trkpt>
      <trkpt lat="45.61962" lon="2.81818">
        <ele>1329</ele>
        <time>2015-04-14T12:34:51.218Z</time>
      </trkpt>
      <trkpt lat="45.61961" lon="2.8183">
        <ele>1328</ele>
        <time>2015-04-14T12:34:58.227Z</time>
      </trkpt>
      <trkpt lat="45.61961" lon="2.81832">
        <ele>1327</ele>
        <time>2015-04-14T12:34:59.219Z</time>
      </trkpt>
      <trkpt lat="45.61957" lon="2.81842">
        <ele>1325</ele>
        <time>2015-04-14T12:35:05.238Z</time>
      </trkpt>
      <trkpt lat="45.61957" lon="2.81843">
        <ele>1325</ele>
        <time>2015-04-14T12:35:06.234Z</time>
      </trkpt>
      <trkpt lat="45.61954" lon="2.81855">
        <ele>1326</ele>
        <time>2015-04-14T12:35:13.226Z</time>
      </trkpt>
      <trkpt lat="45.61953" lon="2.81857">
        <ele>1327</ele>
        <time>2015-04-14T12:35:14.299Z</time>
      </trkpt>
      <trkpt lat="45.61948" lon="2.81866">
        <ele>1324</ele>
        <time>2015-04-14T12:35:20.281Z</time>
      </trkpt>
      <trkpt lat="45.61947" lon="2.81867">
        <ele>1323</ele>
        <time>2015-04-14T12:35:21.243Z</time>
      </trkpt>
      <trkpt lat="45.61941" lon="2.81876">
        <ele>1319</ele>
        <time>2015-04-14T12:35:28.234Z</time>
      </trkpt>
      <trkpt lat="45.61941" lon="2.81877">
        <ele>1320</ele>
        <time>2015-04-14T12:35:29.208Z</time>
      </trkpt>
      <trkpt lat="45.6194" lon="2.8189">
        <ele>1322</ele>
        <time>2015-04-14T12:35:37.217Z</time>
      </trkpt>
      <trkpt lat="45.6194" lon="2.81892">
        <ele>1323</ele>
        <time>2015-04-14T12:35:38.234Z</time>
      </trkpt>
      <trkpt lat="45.61937" lon="2.81903">
        <ele>1321</ele>
        <time>2015-04-14T12:35:43.316Z</time>
      </trkpt>
      <trkpt lat="45.61937" lon="2.81905">
        <ele>1321</ele>
        <time>2015-04-14T12:35:44.323Z</time>
      </trkpt>
      <trkpt lat="45.61936" lon="2.81917">
        <ele>1323</ele>
        <time>2015-04-14T12:35:51.320Z</time>
      </trkpt>
      <trkpt lat="45.61936" lon="2.81919">
        <ele>1323</ele>
        <time>2015-04-14T12:35:52.325Z</time>
      </trkpt>
      <trkpt lat="45.61936" lon="2.81931">
        <ele>1319</ele>
        <time>2015-04-14T12:35:59.309Z</time>
      </trkpt>
      <trkpt lat="45.61936" lon="2.81933">
        <ele>1319</ele>
        <time>2015-04-14T12:36:00.319Z</time>
      </trkpt>
      <trkpt lat="45.61939" lon="2.81944">
        <ele>1316</ele>
        <time>2015-04-14T12:36:08.233Z</time>
      </trkpt>
      <trkpt lat="45.61939" lon="2.81945">
        <ele>1316</ele>
        <time>2015-04-14T12:36:09.236Z</time>
      </trkpt>
      <trkpt lat="45.61944" lon="2.81954">
        <ele>1314</ele>
        <time>2015-04-14T12:36:18.224Z</time>
      </trkpt>
      <trkpt lat="45.61945" lon="2.81955">
        <ele>1314</ele>
        <time>2015-04-14T12:36:19.224Z</time>
      </trkpt>
      <trkpt lat="45.61952" lon="2.81962">
        <ele>1308</ele>
        <time>2015-04-14T12:36:30.263Z</time>
      </trkpt>
      <trkpt lat="45.61952" lon="2.81963">
        <ele>1307</ele>
        <time>2015-04-14T12:36:31.295Z</time>
      </trkpt>
      <trkpt lat="45.61959" lon="2.8197">
        <ele>1304</ele>
        <time>2015-04-14T12:36:38.289Z</time>
      </trkpt>
      <trkpt lat="45.6196" lon="2.81971">
        <ele>1303</ele>
        <time>2015-04-14T12:36:39.255Z</time>
      </trkpt>
      <trkpt lat="45.61968" lon="2.81975">
        <ele>1300</ele>
        <time>2015-04-14T12:36:46.312Z</time>
      </trkpt>
      <trkpt lat="45.6197" lon="2.81976">
        <ele>1299</ele>
        <time>2015-04-14T12:36:47.249Z</time>
      </trkpt>
      <trkpt lat="45.61978" lon="2.8198">
        <ele>1299</ele>
        <time>2015-04-14T12:36:54.280Z</time>
      </trkpt>
      <trkpt lat="45.61979" lon="2.81981">
        <ele>1299</ele>
        <time>2015-04-14T12:36:55.364Z</time>
      </trkpt>
      <trkpt lat="45.61986" lon="2.81986">
        <ele>1298</ele>
        <time>2015-04-14T12:37:02.247Z</time>
      </trkpt>
      <trkpt lat="45.61987" lon="2.81987">
        <ele>1298</ele>
        <time>2015-04-14T12:37:03.239Z</time>
      </trkpt>
      <trkpt lat="45.61994" lon="2.81994">
        <ele>1298</ele>
        <time>2015-04-14T12:37:09.229Z</time>
      </trkpt>
      <trkpt lat="45.61995" lon="2.81995">
        <ele>1305</ele>
        <time>2015-04-14T12:37:10.241Z</time>
      </trkpt>
      <trkpt lat="45.62002" lon="2.82">
        <ele>1301</ele>
        <time>2015-04-14T12:37:16.626Z</time>
      </trkpt>
      <trkpt lat="45.62003" lon="2.82001">
        <ele>1301</ele>
        <time>2015-04-14T12:37:17.624Z</time>
      </trkpt>
      <trkpt lat="45.6201" lon="2.82007">
        <ele>1299</ele>
        <time>2015-04-14T12:37:23.623Z</time>
      </trkpt>
      <trkpt lat="45.62011" lon="2.82007">
        <ele>1299</ele>
        <time>2015-04-14T12:37:24.623Z</time>
      </trkpt>
      <trkpt lat="45.62019" lon="2.82012">
        <ele>1304</ele>
        <time>2015-04-14T12:37:30.631Z</time>
      </trkpt>
      <trkpt lat="45.6202" lon="2.82013">
        <ele>1304</ele>
        <time>2015-04-14T12:37:31.631Z</time>
      </trkpt>
      <trkpt lat="45.62027" lon="2.8202">
        <ele>1304</ele>
        <time>2015-04-14T12:37:37.631Z</time>
      </trkpt>
      <trkpt lat="45.62027" lon="2.82021">
        <ele>1303</ele>
        <time>2015-04-14T12:37:38.623Z</time>
      </trkpt>
      <trkpt lat="45.62034" lon="2.82028">
        <ele>1304</ele>
        <time>2015-04-14T12:37:45.633Z</time>
      </trkpt>
      <trkpt lat="45.62035" lon="2.82029">
        <ele>1304</ele>
        <time>2015-04-14T12:37:46.673Z</time>
      </trkpt>
      <trkpt lat="45.62042" lon="2.82034">
        <ele>1304</ele>
        <time>2015-04-14T12:37:53.638Z</time>
      </trkpt>
      <trkpt lat="45.62043" lon="2.82034">
        <ele>1303</ele>
        <time>2015-04-14T12:37:54.640Z</time>
      </trkpt>
      <trkpt lat="45.62051" lon="2.82038">
        <ele>1303</ele>
        <time>2015-04-14T12:38:01.640Z</time>
      </trkpt>
      <trkpt lat="45.62052" lon="2.82038">
        <ele>1302</ele>
        <time>2015-04-14T12:38:02.643Z</time>
      </trkpt>
      <trkpt lat="45.6206" lon="2.82045">
        <ele>1303</ele>
        <time>2015-04-14T12:38:10.638Z</time>
      </trkpt>
      <trkpt lat="45.6206" lon="2.82046">
        <ele>1303</ele>
        <time>2015-04-14T12:38:11.639Z</time>
      </trkpt>
      <trkpt lat="45.62053" lon="2.82053">
        <ele>1308</ele>
        <time>2015-04-14T12:38:48.702Z</time>
      </trkpt>
      <trkpt lat="45.62052" lon="2.82053">
        <ele>1308</ele>
        <time>2015-04-14T12:38:49.686Z</time>
      </trkpt>
      <trkpt lat="45.62059" lon="2.82058">
        <ele>1311</ele>
        <time>2015-04-14T12:40:15.635Z</time>
      </trkpt>
      <trkpt lat="45.62061" lon="2.82059">
        <ele>1310</ele>
        <time>2015-04-14T12:40:16.686Z</time>
      </trkpt>
      <trkpt lat="45.62068" lon="2.8206">
        <ele>1310</ele>
        <time>2015-04-14T12:40:22.631Z</time>
      </trkpt>
      <trkpt lat="45.6207" lon="2.8206">
        <ele>1310</ele>
        <time>2015-04-14T12:40:23.636Z</time>
      </trkpt>
      <trkpt lat="45.62078" lon="2.82059">
        <ele>1309</ele>
        <time>2015-04-14T12:40:30.700Z</time>
      </trkpt>
      <trkpt lat="45.62079" lon="2.82058">
        <ele>1309</ele>
        <time>2015-04-14T12:40:31.776Z</time>
      </trkpt>
      <trkpt lat="45.62087" lon="2.82053">
        <ele>1306</ele>
        <time>2015-04-14T12:40:51.345Z</time>
      </trkpt>
      <trkpt lat="45.62088" lon="2.82053">
        <ele>1306</ele>
        <time>2015-04-14T12:40:52.348Z</time>
      </trkpt>
      <trkpt lat="45.62097" lon="2.82051">
        <ele>1306</ele>
        <time>2015-04-14T12:40:58.324Z</time>
      </trkpt>
      <trkpt lat="45.62098" lon="2.8205">
        <ele>1306</ele>
        <time>2015-04-14T12:40:59.325Z</time>
      </trkpt>
      <trkpt lat="45.62106" lon="2.82049">
        <ele>1308</ele>
        <time>2015-04-14T12:41:05.342Z</time>
      </trkpt>
      <trkpt lat="45.62107" lon="2.82049">
        <ele>1309</ele>
        <time>2015-04-14T12:41:06.335Z</time>
      </trkpt>
      <trkpt lat="45.62113" lon="2.82048">
        <ele>1316</ele>
        <time>2015-04-14T12:42:51.121Z</time>
      </trkpt>
    </trkseg>
  </trk>
</gpx>